     2              OBSERVATION DATA    GPS                 RINEX VERSION / TYPE
srx/v1.8.1.4 seismo 02/07/17 22:36:46                       PGM / RUN BY / DATE
                                                            COMMENT
sig: 9 8 7 6 5 4 1 0                                        COMMENT
sig: 9 8 7 6 5 4 1 0                                        COMMENT
sig: 9 8 7 6 5 4 1 0                                        COMMENT
sig: 9 8 7 6 5 4 1 0                                        COMMENT
sig: 9 8 7 6 5 4 1 0                                        COMMENT
Original Marker Name: AWHD                                  COMMENT
Campaign Name: CSUSB 2002-2003                              COMMENT
4-Character Station Name: AWHD                              COMMENT
6-Character Antenna Code: DMRCHT                            COMMENT
Vertical Measurement Point: BCR                             COMMENT
Vertical Offset to Rinex Ref. Point: 0.0348                 COMMENT
Radial Measurement Point: ECF                               COMMENT
Radial Offset to Rinex Ref. Point: 0.1897                   COMMENT
Antenna Height from Field Measurement: 1.3630 m             COMMENT
Additional Antenna Identification Info.:                    COMMENT
Turborogue and Ashtech Choke Ring                           COMMENT
Original XYZ: -2434643.0662 -4697678.1762 3550111.7202      COMMENT
New XYZ position is based on association with SCEC monument COMMENT
E1D0S6L5+0011. Position of that monument is believed to be  COMMENT
valid to within 1 m horizontally; vertical accuracy         COMMENT
should be no worse than 3-times this value.                 COMMENT
                                                            COMMENT
Revised Rinex header created by UCSD GPS archive for        COMMENT
GSAC on 20-Apr-2005 (2005:110) 16:26:15 GMT                 COMMENT
For assistance contact dagnew@ucsd.edu                      COMMENT
or anderson@python.ucsd.edu                                 COMMENT
                                                            COMMENT
AWHD                                                        MARKER NAME
AWHD                                                        MARKER NUMBER
MR CAL STATE SAN BERNARDINO                                 OBSERVER / AGENCY
T262 TURBOROGUE SNR-8000 98.12.27                           REC # / TYPE / VERS
260 DORNE-MARGOL. TYPE T                                    ANT # / TYPE
 -2420516.0000 -4695053.0000  3563593.0000                  APPROX POSITION XYZ
        1.3149        0.0000        0.0000                  ANTENNA: DELTA H/E/N
     1     1     0                                          WAVELENGTH FACT L1/2
     5    L1    L2    P1    P2    C1                        # / TYPES OF OBSERV
    30                                                      INTERVAL
  2002     7    10    15    14    0.000000                  TIME OF FIRST OBS
  2002     7    10    23    55    0.000000                  TIME OF LAST OBS
                                                            END OF HEADER
 02 07 10 15 14 00.0000000  0  4 06 15 26 29
        -0.29159        -0.19457         0.00051  20293114.20757  20293113.77159
        -0.67258         0.33356         0.00051  22107025.24956  22107023.48258
        -0.46658        -0.29055         0.00051  22632555.39555  22632554.15958
        -1.11858        -1.06855         0.00051  22907365.02555  22907363.73558
 02 07 10 15 14 30.0000000  0  7 06 15 17 18 23 26 29
      5203.78549      4054.91447         0.00041  20294104.24947  20294103.62949
    -37639.20248    -29328.37746         0.00041  22099861.37946  22099859.88648
         0.06158         1.20056         0.00051  21516386.23256  21516384.56258
        -0.03358        -0.16056         0.00051  22684044.04956  22684041.99158
        -0.60659        -0.09857         0.00051  20679000.13657  20678999.16859
    -46874.48148    -36525.46746         0.00041  22623637.28446  22623634.20448
    -22817.36948    -17779.95145         0.00041  22903022.61545  22903022.10348
 02 07 10 15 15 00.0000000  0  7 06 15 17 18 23 26 29
      9497.30949      7400.50647         0.00041  20294921.21547  20294921.10449
    -76427.72648    -59553.18346         0.00041  22092479.84546  22092478.47748
    -20418.01749    -15909.01046         0.00041  21512501.63946  21512500.29649
    -76688.27448    -59757.17846         0.00041  22669450.06746  22669448.81748
     36847.44349     28712.66047         0.00041  20686012.02147  20686011.03349
    -94678.06048    -73774.99346         0.00041  22614539.26646  22614537.32148
    -46541.24048    -36266.04545         0.00041  22898509.80345  22898508.12348
 02 07 10 15 15 30.0000000  0  6 06 15 17 18 23 26
       461.93749       359.94247         0.00041  20293201.88547  20293201.45849
   -128785.99248   -100351.81946         0.00041  22082518.37446  22082515.65048
    -54417.54949    -42402.14146         0.00041  21506032.04146  21506030.08549
   -166847.41048   -130011.02946         0.00041  22652293.61146  22652291.55248
     60436.77249     47093.94347         0.00041  20690500.99247  20690500.07949
   -155827.62948   -121423.98646         0.00041  22602903.17646  22602901.21948
 02 07 10 15 16 00.0000000  0  6 06 15 17 18 23 26
    -18239.32049    -14212.47447         0.00041  20289643.44047  20289642.86249
   -191052.63648   -148871.26346         0.00041  22070668.48846  22070666.74048
    -98337.36449    -76625.38246         0.00041  21497673.54946  21497672.36149
   -266813.96248   -207907.00446         0.00041  22633270.78046  22633268.76348
     74427.46949     57995.77147         0.00041  20693163.30347  20693162.17249
   -226658.61548   -176616.91646         0.00041  22589424.51146  22589422.28248
 02 07 10 15 16 30.0000000  0  6 06 15 17 18 23 26
    -44523.29749    -34693.51147         0.00041  20284641.65247  20284641.07849
   -261145.78748   -203489.29546         0.00041  22057330.41146  22057328.67748
   -150096.14749   -116956.90746         0.00041  21487825.13646  21487823.38849
   -374504.06648   -291821.33046         0.00041  22612777.28646  22612775.89048
     80899.85749     63039.17947         0.00041  20694394.90947  20694393.85049
   -305085.97848   -237729.08446         0.00041  22574500.50646  22574498.22048
 02 07 10 15 17 00.0000000  0  6 06 15 17 18 23 26
    -69098.75849    -53843.23647         0.00041  20279965.07347  20279964.72649
   -329775.90648   -256967.28946         0.00041  22044271.63346  22044268.65648
   -200404.24949   -156158.00046         0.00041  21478251.22746  21478250.08249
   -480626.25648   -374513.90746         0.00041  22592583.06646  22592581.41748
     89142.35649     69461.89347         0.00041  20695963.61547  20695962.71949
   -381816.64548   -297519.18145         0.00041  22559898.95645  22559896.68948
 02 07 10 15 17 30.0000000  0  6 06 15 17 18 23 26
    -89863.71549    -70023.72747         0.00041  20276013.80947  20276013.25949
   -394842.18748   -307668.27046         0.00041  22031888.81246  22031886.95848
   -247161.26949   -192592.04846         0.00041  21469353.87846  21469352.23149
   -583077.92448   -454346.34746         0.00041  22573086.86846  22573085.91348
    101254.12349     78899.62347         0.00041  20698268.40047  20698267.51649
   -454746.78748   -354347.83745         0.00041  22546019.71845  22546018.51548
 02 07 10 15 18 00.0000000  0  6 06 15 17 18 23 26
   -107559.65149    -83812.77747         0.00041  20272646.23747  20272645.71049
   -457087.75348   -356171.29446         0.00041  22020043.84146  22020041.80948
   -291110.67949   -226838.32346         0.00041  21460989.99646  21460989.13049
   -682600.10248   -531896.05946         0.00041  22554148.09446  22554147.17148
    116490.80249     90772.34747         0.00041  20701167.60547  20701166.96149
   -524616.27748   -408791.58245         0.00041  22532724.47445  22532722.85248
 02 07 10 15 18 30.0000000  0  6 06 15 17 18 23 26
   -122994.58649    -95840.00647         0.00041  20269709.01647  20269708.69249
   -517322.42548   -403107.36946         0.00041  22008581.56146  22008579.48948
   -333062.10349   -259527.75846         0.00041  21453007.73346  21453006.14149
   -780000.41648   -607792.36646         0.00041  22535613.49446  22535611.99848
    134041.59649    104448.27947         0.00041  20704507.58147  20704506.74149
   -592231.36748   -461478.63845         0.00041  22519856.49145  22519856.09648
 02 07 10 15 19 00.0000000  0  6 06 15 17 18 23 26
   -136723.67449   -106537.99847         0.00041  20267096.81547  20267096.08849
   -576102.75948   -448910.23146         0.00041  21997396.26246  21997394.22248
   -373572.06948   -291093.96246         0.00041  21445299.19846  21445296.50048
   -875833.42248   -682467.38746         0.00041  22517376.33946  22517376.12248
    153348.50949    119492.60947         0.00041  20708181.39547  20708180.39649
   -658145.26548   -512840.09645         0.00041  22507314.15445  22507312.96348
 02 07 10 15 19 30.0000000  0  6 06 15 17 18 23 26
   -149050.13949   -116143.04447         0.00041  20264751.00547  20264750.28249
   -633733.42148   -493817.22646         0.00041  21986429.68546  21986426.50148
   -412945.68349   -321774.71446         0.00041  21437806.50646  21437804.37849
   -970401.93148   -756157.09446         0.00041  22499381.40546  22499380.79948
    174105.41549    135666.80647         0.00041  20712131.44947  20712130.22949
   -722659.55148   -563110.93645         0.00041  22495038.73345  22495036.13148
 02 07 10 15 20 00.0000000  0  7 06 15 17 18 23 26 29
   -160400.53549   -124987.52146         0.00041  20262590.86246  20262590.35349
   -690642.76248   -538162.15846         0.00041  21975600.14446  21975598.33048
   -451611.35449   -351903.82046         0.00041  21430448.51646  21430446.66649
  -1064131.97548   -829193.45946         0.00041  22481545.06246  22481544.41848
    195882.64149    152636.05747         0.00041  20716275.48447  20716274.24749
   -786199.18048   -612622.30345         0.00041  22482946.52145  22482945.59548
        -0.46058        -0.39655         0.00051  22812929.16955  22812927.03558
 02 07 10 15 20 30.0000000  0  7 06 15 17 18 23 26 29
   -170732.73149   -133038.59347         0.00041  20260624.84047  20260624.55749
   -746789.85248   -581913.15846         0.00041  21964915.15146  21964913.07448
   -489528.35749   -381449.55246         0.00041  21423233.34646  21423231.69849
  -1156980.83648   -901543.19946         0.00041  22463876.24546  22463875.31248
    218719.42749    170430.93747         0.00041  20720621.06247  20720620.26749
   -848720.16348   -661339.92045         0.00041  22471049.89645  22471048.24448
    -38266.24748    -29817.94445         0.00041  22805647.63145  22805644.41148
 02 07 10 15 21 00.0000000  0  7 06 15 17 18 23 26 29
   -180200.53649   -140416.11447         0.00041  20258823.25147  20258822.58649
   -802329.53748   -625190.80746         0.00041  21954346.87746  21954344.66648
   -526852.19849   -410533.06346         0.00041  21416130.47346  21416129.27349
  -1249101.98948   -973325.87846         0.00041  22446346.36746  22446345.35848
    242459.17049    188929.42447         0.00041  20725138.50147  20725137.96049
   -910374.57148   -709382.29345         0.00041  22459317.65245  22459315.53048
    -75655.79648    -58951.99045         0.00041  22798530.59445  22798529.91648
 02 07 10 15 21 30.0000000  0  7 06 15 17 18 23 26 29
   -188909.10449   -147202.02047         0.00041  20257165.95147  20257165.36949
   -857368.50048   -668078.29846         0.00041  21943872.72546  21943870.72248
   -563689.41149   -439237.38746         0.00041  21409120.55746  21409119.35449
  -1340599.76148  -1044622.80046         0.00041  22428934.88046  22428932.86148
    266994.15049    208047.57547         0.00041  20729807.62647  20729806.92849
   -971265.51848   -756829.75645         0.00041  22447730.10345  22447728.54648
   -112273.26348    -87484.52845         0.00041  22791562.84945  22791562.25748
 02 07 10 15 22 00.0000000  0  7 06 15 17 18 23 26 29
   -197041.29849   -153538.80647         0.00041  20255618.59647  20255618.13849
   -912091.39348   -710719.47846         0.00041  21933460.26446  21933457.63348
   -600224.58749   -467706.35846         0.00041  21402168.05246  21402166.74449
  -1431656.84548  -1115576.32846         0.00041  22411607.64346  22411605.82148
    292138.43349    227640.50847         0.00041  20734592.53547  20734591.47549
  -1031574.34248   -803823.62045         0.00041  22436252.76645  22436251.96248
   -148300.92248   -115558.07245         0.00041  22784707.57545  22784706.34048
 02 07 10 15 22 30.0000000  0  7 06 15 17 18 23 26 29
   -204587.70049   -159419.12747         0.00041  20254182.42647  20254182.10249
   -966489.97348   -753107.96446         0.00041  21923108.61846  21923106.03648
   -636449.83949   -495933.82346         0.00041  21395273.76446  21395272.74949
  -1522263.15848  -1186178.62346         0.00041  22394365.20246  22394364.75548
    317898.53149    247713.30047         0.00041  20739494.71247  20739493.41049
  -1091289.75748   -850355.09445         0.00041  22424888.85445  22424888.26448
   -183728.46948   -143163.96545         0.00041  22777964.92745  22777964.16648
 02 07 10 15 23 00.0000000  0  7 06 15 17 18 23 26 29
   -211591.35849   -164876.53547         0.00041  20252849.91347  20252849.43449
  -1020608.67248   -795278.35146         0.00041  21912809.90846  21912807.22848
   -672409.75049   -523954.53046         0.00041  21388432.31446  21388430.19349
  -1612461.24748  -1256462.82146         0.00041  22377201.10446  22377200.73248
    344228.60949    268230.23247         0.00041  20744505.00947  20744503.89449
  -1150453.18248   -896456.43345         0.00041  22413632.15945  22413629.80748
   -218598.54948   -170335.45145         0.00041  22771329.73545  22771328.99848
 02 07 10 15 23 30.0000000  0  7 06 15 17 18 23 26 29
   -218061.55749   -169918.25747         0.00041  20251618.40847  20251617.98549
  -1074458.17048   -837238.99646         0.00041  21902562.85846  21902560.18648
   -708115.13049   -551776.90046         0.00041  21381636.07146  21381635.64249
  -1702259.50348  -1326435.44946         0.00041  22360112.78146  22360112.61348
    371116.66349    289181.94747         0.00041  20749621.82347  20749620.87749
  -1209071.91648   -942133.36345         0.00041  22402476.17545  22402475.36748
   -252919.68348   -197079.17845         0.00041  22764798.15745  22764797.77348
 02 07 10 15 24 00.0000000  0  7 06 15 17 18 23 26 29
   -224020.08349   -174561.26946         0.00041  20250484.24046  20250484.01449
  -1128061.58048   -879007.84346         0.00041  21892362.45446  21892359.94848
   -743589.27648   -579419.09846         0.00041  21374887.18446  21374884.87148
  -1791679.62648  -1396113.44246         0.00041  22343097.79446  22343096.38148
    398537.92349    310549.15047         0.00041  20754839.74647  20754838.82049
  -1267166.09848   -987401.54645         0.00041  22391421.40745  22391420.11448
   -286712.83148   -223411.46845         0.00041  22758369.89345  22758366.80348
 02 07 10 15 24 30.0000000  0  7 06 15 17 18 23 26 29
   -229491.17449   -178824.47147         0.00041  20249443.60147  20249443.16849
  -1181444.36348   -920604.80946         0.00041  21882202.91746  21882201.38348
   -778857.92148   -606901.15546         0.00041  21368175.00946  21368173.38348
  -1880745.06348  -1465515.03946         0.00041  22326149.13146  22326147.62448
    426465.29749    332310.72447         0.00041  20760154.06047  20760153.01449
  -1324758.16148  -1032278.44445         0.00041  22380463.09545  22380460.81348
   -320001.51848   -249350.71445         0.00041  22752035.54845  22752031.67348
 02 07 10 15 25 00.0000000  0  7 06 15 17 18 23 26 29
   -234478.50849   -182710.72147         0.00041  20248494.77347  20248494.03449
  -1234611.39548   -962033.65646         0.00041  21872086.20546  21872084.03048
   -813926.19548   -634227.09346         0.00041  21361501.57246  21361499.86648
  -1969458.97648  -1534642.73246         0.00041  22309265.95346  22309265.88048
    454892.23349    354461.57447         0.00041  20765563.44347  20765562.65349
  -1381850.04648  -1076765.59146         0.00041  22369597.56146  22369596.48848
   -352788.94648   -274899.34045         0.00041  22745795.70945  22745792.91248
 02 07 10 15 25 30.0000000  0  7 06 15 17 18 23 26 29
   -238992.93749   -186228.47447         0.00041  20247635.62647  20247635.10749
  -1287575.18748  -1003304.12146         0.00041  21862006.74646  21862005.13348
   -848806.66049   -661406.67046         0.00041  21354863.88246  21354863.29349
  -2057831.97448  -1603504.76146         0.00041  22292450.12346  22292449.13448
    483804.82849    376990.85847         0.00041  20771065.52447  20771064.81249
  -1438451.14848  -1120870.30546         0.00041  22358827.34946  22358825.92348
   -385085.37148   -300065.34545         0.00041  22739647.77145  22739647.23048
 02 07 10 15 26 00.0000000  0  7 06 15 17 18 23 26 29
   -243050.39449   -189390.14446         0.00041  20246863.20146  20246862.83949
  -1340352.85948  -1044429.57046         0.00041  21851963.64246  21851961.61348
   -883516.74748   -688453.49046         0.00041  21348259.92746  21348257.31748
  -2145879.15648  -1672112.90346         0.00041  22275695.42746  22275693.89448
    513184.26449    399883.91447         0.00041  20776656.22947  20776655.57049
  -1494575.46148  -1164603.51446         0.00041  22348147.13246  22348145.79648
   -416906.08748   -324860.69445         0.00041  22733593.75645  22733591.66648
 02 07 10 15 26 30.0000000  0  7 06 15 17 18 23 26 29
   -246655.95349   -192199.69047         0.00041  20246176.97847  20246177.03849
  -1392950.87148  -1085415.00546         0.00041  21841954.45146  21841952.61248
   -918062.63548   -715372.36346         0.00041  21341685.07246  21341683.64248
  -2233605.38548  -1740470.98046         0.00041  22259001.42046  22259000.28648
    543022.53449    423134.50247         0.00041  20782334.53647  20782333.54049
  -1550226.25848  -1207967.76746         0.00041  22337556.49346  22337555.38648
   -448255.26648   -349288.61745         0.00041  22727628.13045  22727625.75348
 02 07 10 15 27 00.0000000  0  7 06 15 17 18 23 26 29
   -249811.83249   -194658.83147         0.00041  20245576.64047  20245576.28249
  -1445372.69348  -1126263.14846         0.00041  21831980.14746  21831977.43748
   -952448.25549   -742166.35646         0.00041  21335141.67946  21335140.67749
  -2321012.06448  -1808580.04146         0.00041  22242368.60746  22242367.79748
    573314.52649    446738.64247         0.00041  20788098.77247  20788097.68049
  -1605404.13048  -1250963.48646         0.00041  22327056.19646  22327055.50148
   -479134.62348   -373350.45145         0.00041  22721751.85845  22721750.67348
 02 07 10 15 27 30.0000000  0  7 06 15 17 18 23 26 29
   -252484.39949   -196741.36447         0.00041  20245068.42547  20245067.69149
  -1497585.75348  -1166948.62346         0.00041  21822043.18346  21822041.60148
   -986641.19748   -768810.20946         0.00041  21328635.43946  21328633.62848
  -2408065.18548  -1876413.59546         0.00041  22225803.19146  22225802.41348
    604091.15349    470720.41947         0.00041  20793955.36747  20793954.14249
  -1660073.74948  -1293563.16345         0.00041  22316653.64245  22316652.49648
   -509509.88348   -397019.45645         0.00041  22715971.62745  22715970.43148
 02 07 10 15 28 00.0000000  0  7 06 15 17 18 23 26 29
   -254645.27049   -198425.18047         0.00041  20244657.11847  20244656.55749
  -1549563.03548  -1207450.41146         0.00041  21812152.34846  21812150.72148
  -1020614.42249   -795282.85546         0.00041  21322170.25846  21322169.01049
  -2494735.81648  -1943949.10946         0.00041  22209310.50346  22209309.06548
    635377.91449    495099.70347         0.00041  20799909.49247  20799908.15849
  -1714204.74148  -1335743.14646         0.00041  22306353.39846  22306351.38448
   -539351.96248   -420273.03345         0.00041  22710291.89245  22710291.52048
 02 07 10 15 28 30.0000000  0  7 06 15 17 18 23 26 29
   -256436.88049   -199821.26647         0.00041  20244316.29747  20244315.86949
  -1601448.26348  -1247880.42846         0.00041  21802279.92846  21802277.05848
  -1054511.93949   -821696.49946         0.00041  21315720.26746  21315718.34249
  -2581165.77048  -2011297.08846         0.00041  22192862.27546  22192861.60748
    667029.37049    519763.16447         0.00041  20805932.27847  20805931.28149
  -1767938.15448  -1377613.32346         0.00041  22296127.58446  22296125.89048
   -568802.78348   -443221.69945         0.00041  22704689.41345  22704686.49148
 02 07 10 15 29 00.0000000  0  7 06 15 17 18 23 26 29
   -257784.19749   -200871.14147         0.00041  20244059.78347  20244059.27949
  -1653167.51548  -1288181.12846         0.00041  21792436.75346  21792435.31748
  -1088260.07749   -847993.75546         0.00041  21309297.21946  21309296.56949
  -2667279.45148  -2078398.62246         0.00041  22176474.56846  22176474.45948
    699117.70149    544767.04747         0.00041  20812038.38747  20812037.66849
  -1821196.98248  -1419113.67046         0.00041  22285992.39346  22285991.61848
   -597786.46148   -465806.37445         0.00041  22699174.20945  22699171.75848
 02 07 10 15 29 30.0000000  0  7 06 15 17 18 23 26 29
   -258660.16349   -201553.72747         0.00041  20243893.37347  20243893.03349
  -1704695.03748  -1328332.43846         0.00041  21782631.84246  21782629.72848
  -1121832.95549   -874154.43646         0.00041  21302909.35046  21302907.41649
  -2753049.17948  -2145232.13946         0.00041  22160153.46446  22160153.36748
    731667.09549    570130.20247         0.00041  20818232.11247  20818231.21749
  -1873952.42848  -1460221.79146         0.00041  22275953.03146  22275952.44548
   -626275.44448   -488005.57145         0.00041  22693752.75945  22693751.18948
 02 07 10 15 30 00.0000000  0  8 06 15 17 18 21 23 26 29
   -259075.17149   -201877.13247         0.00041  20243814.29747  20243813.75549
  -1756042.43048  -1368343.36346         0.00041  21772860.53246  21772858.79348
  -1155242.44049   -900187.80146         0.00041  21296551.62146  21296550.67349
  -2838485.04648  -2211805.50246         0.00041  22143895.93846  22143895.58848
        -0.72757         0.00051         0.00051         0.00051  24886201.09057
    764664.28149    595842.28347         0.00041  20824511.41147  20824510.26849
  -1926213.37448  -1500944.57546         0.00041  22266009.42246  22266007.07348
   -654279.66448   -509827.03545         0.00041  22688421.93045  22688421.47948
 02 07 10 15 30 30.0000000  0  8 06 15 17 18 21 23 26 29
   -259039.50449   -201849.36247         0.00041  20243820.95947  20243820.70549
  -1807220.75348  -1408222.57846         0.00041  21763121.68146  21763120.03748
  -1188499.90249   -926102.71346         0.00041  21290223.18346  21290221.45949
  -2923596.24048  -2278125.88346         0.00041  22127700.85846  22127699.76448
    -94556.60747         0.00041         0.00041         0.00041  24868205.46747
    798096.21549    621893.12947         0.00041  20830873.48347  20830872.44249
  -1977988.24548  -1541288.60846         0.00041  22256157.83746  22256154.70348
   -681808.45048   -531278.04545         0.00041  22683183.52145  22683182.43648
 02 07 10 15 31 00.0000000  0  8 06 15 17 18 21 23 26 29
   -258601.02149   -201507.69747         0.00041  20243904.38947  20243903.96249
  -1858279.42048  -1448008.52946         0.00041  21753405.37746  21753403.66848
  -1221654.66549   -951937.59646         0.00041  21283914.31746  21283912.23649
  -3008430.21348  -2344230.24846         0.00041  22111557.53846  22111555.65748
   -189029.82648         0.00041         0.00041         0.00041  24850227.98348
    831912.09149    648243.15147         0.00041  20837308.41447  20837307.25749
  -2029323.24448  -1581289.87146         0.00041  22246388.36146  22246386.09748
   -708909.34748   -552395.62045         0.00041  22678026.11945  22678025.56648
 02 07 10 15 31 30.0000000  0  8 06 15 17 18 21 23 26 29
   -257649.65349   -200766.39147         0.00041  20244085.83247  20244085.45449
  -1909109.38948  -1487616.26346         0.00041  21743733.76246  21743730.81048
  -1254597.93849   -977607.68746         0.00041  21277644.70046  21277643.65949
  -3092876.65148  -2410032.62346         0.00041  22095487.55546  22095485.40848
   -283309.69048   -220760.06241         0.00041         0.00041  24832287.08348
    866219.13249    674975.90047         0.00041  20843836.78747  20843835.56149
  -2080106.56648  -1620861.24845         0.00041  22236725.11545  22236722.15748
   -735471.57748   -573093.46045         0.00041  22672971.35745  22672970.89148
 02 07 10 15 32 00.0000000  0  8 06 15 17 18 21 23 26 29
   -256133.03349   -199584.62447         0.00041  20244374.70347  20244374.21549
  -1959659.38948  -1527005.88146         0.00041  21734113.08146  21734112.15748
  -1287278.82449  -1003073.31046         0.00041  21271425.95346  21271424.63449
  -3176882.55748  -2475491.72546         0.00041  22079500.38746  22079499.64548
   -377343.74248   -294033.28344         0.00041  24814400.68744  24814393.83248
    901066.71449    702129.84447         0.00041  20850468.15347  20850467.06349
  -2130284.20448  -1659960.69045         0.00041  22227175.30545  22227173.53348
   -761442.22548   -593330.33545         0.00041  22668029.06845  22668028.46848
 02 07 10 15 32 30.0000000  0  8 06 15 17 18 21 23 26 29
   -254248.15149   -198115.90147         0.00041  20244732.93347  20244732.33749
  -2010127.77248  -1566331.86746         0.00041  21724510.22546  21724507.96248
  -1319895.18748  -1028488.67046         0.00041  21265219.10446  21265217.30748
  -3260644.15348  -2540760.47746         0.00041  22063561.47246  22063561.26648
   -471328.21848   -367267.88444         0.00041  24796515.34444  24796509.29348
    936255.15549    729549.39447         0.00041  20857164.14847  20857163.50549
  -2180051.33248  -1698740.27045         0.00041  22217704.39845  22217703.44748
   -787017.70248   -613259.28245         0.00041  22663163.96245  22663162.04448
 02 07 10 15 33 00.0000000  0  8 06 15 17 18 21 23 26 29
   -251921.49249   -196302.93547         0.00041  20245175.51947  20245175.29149
  -2060442.11448  -1605537.83246         0.00041  21714935.27346  21714933.29948
  -1352375.04949  -1053797.65846         0.00041  21259038.16846  21259037.28049
  -3344087.24948  -2605781.05146         0.00041  22047682.86746  22047682.37548
   -565188.91248   -440406.03544         0.00041  24778657.15644  24778648.96548
    971855.05049    757289.55647         0.00041  20863938.90747  20863938.08449
  -2229332.92748  -1737141.50846         0.00041  22208327.39646  22208324.67548
   -812123.83548   -632822.49945         0.00041  22658386.35145  22658384.47848
 02 07 10 15 33 30.0000000  0  8 06 15 17 18 21 23 26 29
   -249145.35249   -194139.72347         0.00041  20245703.97847  20245703.47049
  -2110595.74848  -1644618.57146         0.00041  21705391.52246  21705389.40748
  -1384711.66049  -1078995.02946         0.00041  21252885.40546  21252883.69849
  -3427203.73248  -2670547.10946         0.00041  22031867.55546  22031866.17048
   -658917.18648   -513440.98441         0.00041         0.00041  24760812.10948
   1007871.17249    785354.05147         0.00041  20870792.10047  20870791.46449
  -2278119.55148  -1775157.05646         0.00041  22199044.28246  22199041.11748
   -836752.61448   -652013.76345         0.00041  22653698.75045  22653697.81148
 02 07 10 15 34 00.0000000  0  8 06 15 17 18 21 23 26 29
   -245911.39849   -191619.77647         0.00041  20246319.75547  20246318.89849
  -2160581.27549  -1683568.32746         0.00041  21695879.66146  21695877.79149
  -1416897.94849  -1104075.25446         0.00041  21246760.75746  21246759.11749
  -3509984.62848  -2735051.66546         0.00041  22016114.14946  22016113.21248
   -752504.88247   -586366.35041         0.00041         0.00041  24743002.43047
   1044309.10249    813747.22347         0.00041  20877726.07147  20877725.18849
  -2326401.12148  -1812779.05746         0.00041  22189855.77746  22189854.14048
   -860894.92848   -670825.97145         0.00041  22649104.53745  22649102.80648
 02 07 10 15 34 30.0000000  0  8 06 15 17 18 21 23 26 29
   -242216.32349   -188740.51147         0.00041  20247022.64547  20247022.01849
  -2210396.46149  -1722385.32646         0.00041  21686400.21146  21686398.46549
  -1448931.86849  -1129036.75346         0.00041  21240664.56346  21240663.03749
  -3592426.16149  -2799291.79746         0.00041  22000426.85246  22000425.71249
   -845948.16848   -659179.12744         0.00041  24725226.30144  24725221.68648
   1081169.08249    842469.26547         0.00041  20884740.21647  20884739.48249
  -2374172.78648  -1850003.71746         0.00041  22180766.21746  22180763.70448
   -884546.94148   -689256.11945         0.00041  22644604.76845  22644602.38548
 02 07 10 15 35 00.0000000  0  8 06 15 17 18 21 23 26 29
   -238047.82649   -185492.34447         0.00041  20247815.63747  20247815.22749
  -2260030.05649  -1761060.82346         0.00041  21676954.92946  21676953.43549
  -1480802.21249  -1153870.78446         0.00041  21234599.89046  21234598.43549
  -3674515.56648  -2863257.53846         0.00041  21984805.00946  21984803.65548
   -939234.32848   -731869.58244         0.00041  24707473.76444  24707470.56648
   1118460.68349    871527.64047         0.00041  20891836.79747  20891835.95349
  -2421420.51848  -1886820.11845         0.00041  22171773.96845  22171772.16548
   -907695.78448   -707294.19045         0.00041  22640199.44245  22640197.52248
 02 07 10 15 35 30.0000000  0  8 06 15 17 18 21 23 26 29
   -233411.30849   -181879.48847         0.00041  20248698.27047  20248697.57949
  -2309488.55149  -1799599.89546         0.00041  21667542.94446  21667541.61249
  -1512515.59749  -1178582.52246         0.00041  21228565.32046  21228563.73049
  -3756257.28748  -2926952.35746         0.00041  21969248.72946  21969248.11648
  -1032368.38248   -804441.46844         0.00041  24689751.42444  24689747.10448
   1156175.71749    900915.95947         0.00041  20899013.81447  20899013.02549
  -2468147.90048  -1923231.07345         0.00041  22162881.93545  22162880.41948
   -930346.37948   -724943.98145         0.00041  22635890.06645  22635886.88648
 02 07 10 15 36 00.0000000  0  8 06 15 17 18 21 23 26 29
   -228317.44949   -177910.26747         0.00041  20249667.47347  20249667.02049
  -2358783.46249  -1838011.49546         0.00041  21658162.65946  21658160.93349
  -1544083.58849  -1203180.96146         0.00041  21222557.69846  21222556.18249
  -3837661.53248  -2990384.20746         0.00041  21953757.96546  21953757.50348
  -1125360.07048   -876902.41044         0.00041  24672055.80844  24672049.88248
   1194300.59649    930623.63947         0.00041  20906269.02747  20906267.99849
  -2514364.07348  -1959243.68045         0.00041  22154087.60545  22154085.97048
   -952508.53048   -742213.18545         0.00041  22631671.44745  22631669.92848
 02 07 10 15 36 30.0000000  0  8 06 15 17 18 21 23 26 29
   -222745.04149   -173568.14547         0.00041  20250727.97247  20250727.42449
  -2407894.32948  -1876279.68946         0.00041  21648816.94646  21648814.78448
  -1575486.04449  -1227650.41346         0.00041  21216582.26146  21216581.07249
  -3918706.38348  -3053536.01146         0.00041  21938336.41246  21938335.66048
  -1218187.65748   -949235.50144         0.00041  24654387.90444  24654385.19748
   1232853.80349    960665.08547         0.00041  20913605.44547  20913604.11749
  -2560046.02048  -1994840.00645         0.00041  22145395.36345  22145392.48648
   -974160.76048   -759085.06045         0.00041  22627549.57645  22627549.44748
 02 07 10 15 37 00.0000000  0  8 06 15 17 18 21 23 26 29
   -216720.49549   -168873.70847         0.00041  20251874.45747  20251873.78449
  -2456848.73348  -1914425.94046         0.00041  21639501.20446  21639499.11148
  -1606750.57649  -1252012.38446         0.00041  21210632.46946  21210631.31949
  -3999417.63048  -3116427.86846         0.00041  21922977.75346  21922976.57948
  -1310876.70548  -1021460.67844         0.00041  24636757.47444  24636748.29048
   1271806.11549    991017.51947         0.00041  20921017.66047  20921016.53849
  -2605218.63848  -2030039.42446         0.00041  22136799.58446  22136796.47348
   -995329.02348   -775579.79845         0.00041  22623522.54545  22623521.59548
 02 07 10 15 37 30.0000000  0  8 06 15 17 18 21 23 26 29
   -210227.22149   -163814.03447         0.00041  20253110.13247  20253109.66149
  -2505631.17048  -1952438.22546         0.00041  21630218.04346  21630216.92548
  -1637861.78349  -1276254.88846         0.00041  21204712.69446  21204710.38449
  -4079778.28848  -3179046.53446         0.00041  21907686.17846  21907684.66948
  -1403410.20948  -1093564.68344         0.00041  24619146.42044  24619140.71648
   1311171.30949   1021691.68047         0.00041  20928508.52347  20928507.48049
  -2649863.67448  -2064827.73946         0.00041  22128303.03546  22128301.39748
  -1015995.94848   -791683.89645         0.00041  22619589.14745  22619588.35648
 02 07 10 15 38 00.0000000  0  8 06 15 17 18 21 23 26 29
   -203242.55249   -158371.44947         0.00041  20254439.17247  20254438.72149
  -2554219.90648  -1990299.56846         0.00041  21620972.94946  21620970.79948
  -1668797.90249  -1300360.95346         0.00041  21198825.36546  21198823.94149
  -4159765.06448  -3241373.85246         0.00041  21892464.28046  21892463.51348
  -1495765.07748  -1165529.40844         0.00041  24601570.81344  24601565.81948
   1350969.12549   1052702.95247         0.00041  20936082.08947  20936080.75249
  -2693956.86748  -2099186.06546         0.00041  22119912.36646  22119910.90048
  -1036138.66248   -807379.52445         0.00041  22615757.65945  22615755.37248
 02 07 10 15 38 30.0000000  0  8 06 15 17 18 21 23 26 29
   -195768.59149   -152547.59647         0.00041  20255861.64847  20255860.97649
  -2602617.94548  -2028012.30446         0.00041  21611762.88646  21611760.56248
  -1699562.11849  -1324333.07146         0.00041  21192971.13646  21192969.74249
  -4239379.24049  -3303410.84846         0.00041  21877314.75646  21877314.41249
  -1587942.86748  -1237356.15844         0.00041  24584030.57244  24584024.13148
   1391194.64549   1084047.49947         0.00041  20943736.73447  20943735.45949
  -2737498.66248  -2133114.74546         0.00041  22111626.47646  22111624.47448
  -1055758.57648   -822667.77345         0.00041  22612024.22845  22612022.18948
 02 07 10 15 39 00.0000000  0  8 06 15 17 18 21 23 26 29
   -187860.52449   -146385.48347         0.00041  20257366.45847  20257365.87349
  -2650881.25149  -2065620.05846         0.00041  21602578.39546  21602576.95649
  -1730210.35949  -1348214.82146         0.00041  21187139.27646  21187137.62449
  -4318675.66249  -3365200.23546         0.00041  21862225.38546  21862224.77549
  -1679997.81048  -1309087.18844         0.00041  24566512.87444  24566506.91948
   1431789.91049   1115680.15847         0.00041  20951461.72947  20951460.48149
  -2780542.48648  -2166655.38846         0.00041  22103435.44046  22103433.20148
  -1074910.47548   -837591.33945         0.00041  22608380.13545  22608377.58148
 02 07 10 15 39 30.0000000  0  8 06 15 17 18 21 23 26 29
   -179493.44449   -139865.69947         0.00041  20258958.68347  20258957.99349
  -2698985.74748  -2103104.07046         0.00041  21593424.68146  21593422.71348
  -1760718.83349  -1371987.66446         0.00041  21181334.20846  21181332.29349
  -4397628.53249  -3426721.92946         0.00041  21847201.05846  21847201.06349
  -1771904.39648  -1380702.65644         0.00041  24549025.46144  24549017.93248
   1472777.12949   1147618.23147         0.00041  20959261.68947  20959260.26049
  -2823061.82248  -2199787.30646         0.00041  22095344.42746  22095342.61748
  -1093568.58448   -852130.12545         0.00041  22604829.08845  22604827.24148
 02 07 10 15 40 00.0000000  0  8 06 15 17 18 21 23 26 29
   -170652.36049   -132976.56547         0.00041  20260641.03847  20260640.36049
  -2746917.47648  -2140453.43546         0.00041  21584303.96246  21584301.02248
  -1791073.70449  -1395640.81246         0.00041  21175557.18046  21175556.15349
  -4476222.12949  -3487963.65946         0.00041  21832245.10946  21832244.10949
  -1863647.21948  -1452190.50144         0.00041  24531564.04644  24531560.02548
   1514168.32149   1179871.08947         0.00041  20967138.04747  20967136.78849
  -2865040.16748  -2232497.68946         0.00041  22087356.66446  22087354.16048
  -1111717.80148   -866272.37445         0.00041  22601375.31345  22601373.54148
 02 07 10 15 40 30.0000000  0  8 06 15 17 18 21 23 26 29
   -161381.07349   -125752.20547         0.00041  20262405.35447  20262404.82049
  -2794721.02448  -2177702.95246         0.00041  21575205.91746  21575205.08048
  -1821319.44749  -1419208.92646         0.00041  21169801.66846  21169800.30949
  -4554499.93849  -3548959.32746         0.00041  21817348.40746  21817348.27849
  -1955269.51848  -1523584.40044         0.00041  24514129.01244  24514124.37448
   1555917.01849   1212402.52247         0.00041  20975082.57747  20975081.43749
  -2906519.73648  -2264819.44246         0.00041  22079463.47346  22079461.25248
  -1129401.48048   -880051.85745         0.00041  22598010.50345  22598008.68148
 02 07 10 15 41 00.0000000  0  8 06 15 17 18 21 23 26 29
   -151563.24449   -118101.96847         0.00041  20264273.73747  20264273.05849
  -2842280.64448  -2214762.36346         0.00041  21566156.67246  21566154.43548
  -1851340.90849  -1442602.27646         0.00041  21164088.71646  21164086.98249
  -4632344.97849  -3609617.77446         0.00041  21802535.66046  21802534.52449
  -2046654.54748  -1594793.44944         0.00041  24496739.13744  24496734.19648
   1598136.87149   1245301.08847         0.00041  20983116.50047  20983115.51049
  -2947382.52148  -2296660.55346         0.00041  22071687.63746  22071685.34148
  -1146502.61248   -893377.41345         0.00041  22594755.69945  22594755.09348
 02 07 10 15 41 30.0000000  0  8 06 15 17 18 21 23 26 29
   -141199.40849   -110026.26847         0.00041  20266245.86547  20266245.24349
  -2889597.66448  -2251632.77746         0.00041  21557151.72746  21557149.52648
  -1881139.34449  -1465821.84346         0.00041  21158418.31246  21158416.47349
  -4709757.01449  -3669938.80746         0.00041  21787804.54046  21787803.51449
  -2137802.06648  -1665817.34644         0.00041  24479396.18444  24479390.43248
   1640824.41249   1278564.08747         0.00041  20991239.51047  20991238.89149
  -2987627.46448  -2328020.23646         0.00041  22064028.68646  22064026.44848
  -1163021.38848   -906249.19345         0.00041  22591612.17245  22591611.34748
 02 07 10 15 42 00.0000000  0  8 06 15 17 18 21 23 26 29
   -130447.21949   -101647.95547         0.00041  20268291.86947  20268291.48249
  -2936830.86148  -2288437.85446         0.00041  21548164.32546  21548162.96648
  -1910873.37149  -1488991.22246         0.00041  21152759.83646  21152758.83249
  -4786892.94549  -3730044.70146         0.00041  21773125.84646  21773124.80349
  -2228868.84648  -1736778.38844         0.00041  24462063.82144  24462061.12848
   1683819.21349   1312066.50846         0.00041  20999421.39246  20999420.40249
  -3027410.75048  -2359020.20046         0.00041  22056458.15646  22056455.51748
  -1179115.04448   -918789.69746         0.00041  22588550.66646  22588548.58548
 02 07 10 15 42 30.0000000  0  8 06 15 17 18 21 23 26 29
   -119232.83349    -92909.49147         0.00041  20270425.89747  20270425.30449
  -2983906.97948  -2325120.56046         0.00041  21539205.35046  21539204.35448
  -1940469.98649  -1512053.51846         0.00041  21147127.93146  21147126.31449
  -4863678.31449  -3789877.42246         0.00041  21758514.24946  21758513.78349
  -2319780.58248  -1807618.58441         0.00041         0.00041  24444758.27848
   1727192.53649   1345863.87646         0.00041  21007675.14546  21007673.96049
  -3066656.78648  -2389601.51546         0.00041  22048990.39146  22048987.76948
  -1194708.92548   -930940.79246         0.00041  22585582.89146  22585581.50548
 02 07 10 15 43 00.0000000  0  8 06 15 17 18 21 23 26 29
   -107539.30549    -83797.67147         0.00041  20272651.38547  20272650.62949
  -3030809.62148  -2361668.06546         0.00041  21530280.60846  21530278.81348
  -1969912.67349  -1534995.89046         0.00041  21141525.40146  21141524.00349
  -4940095.58349  -3849423.32146         0.00041  21743972.42346  21743972.31249
  -2410519.13648  -1878323.89541         0.00041         0.00041  24427490.92248
   1770958.51249   1379967.20846         0.00041  21016003.68546  21016002.35049
  -3105347.05348  -2419749.76446         0.00041  22041628.04346  22041625.40948
  -1209785.75948   -942688.97246         0.00041  22582713.97346  22582712.51248
 02 07 10 15 43 30.0000000  0  8 06 15 17 18 21 23 26 29
    -95375.10549    -74319.09947         0.00041  20274966.15747  20274965.55949
  -3077547.94348  -2398087.56646         0.00041  21521387.21246  21521384.34648
  -1999211.16649  -1557825.88646         0.00041  21135949.84946  21135948.89049
  -5016152.47249  -3908688.39846         0.00041  21729499.16646  21729498.69749
  -2501092.96948  -1948900.82544         0.00041  24410260.40244  24410257.12348
   1815105.78749   1414367.66246         0.00041  21024404.88146  21024403.28549
  -3143488.59848  -2449470.41446         0.00041  22034370.09846  22034367.44348
  -1224353.66748   -954040.58846         0.00041  22579941.94346  22579940.02448
 02 07 10 15 44 00.0000000  0  8 06 15 17 18 21 23 26 29
    -82726.77949    -64463.28447         0.00041  20277372.87647  20277372.15349
  -3124109.60348  -2434369.36346         0.00041  21512525.65446  21512524.17148
  -2028352.75749  -1580533.62446         0.00041  21130404.60746  21130402.52349
  -5091835.04349  -3967661.79846         0.00041  21715097.19746  21715096.27149
  -2591487.48448  -2019337.99744         0.00041  24393059.11744  24393055.91348
   1859645.15149   1449073.63846         0.00041  21032880.19646  21032878.68449
  -3181066.39848  -2478751.79346         0.00041  22027218.80746  22027216.31948
  -1238398.77248   -964984.80846         0.00041  22577269.30346  22577267.57348
 02 07 10 15 44 30.0000000  0  8 06 15 17 18 21 23 26 29
    -69597.65849    -54232.83347         0.00041  20279871.52147  20279870.71449
  -3170498.58048  -2470516.61546         0.00041  21503698.92246  21503695.62448
  -2057341.62049  -1603122.36046         0.00041  21124888.32246  21124886.34749
  -5167146.10849  -4026345.71346         0.00041  21700765.78646  21700765.18049
  -2681705.65648  -2089637.80044         0.00041  24375894.60644  24375888.00848
   1904570.58549   1484080.45046         0.00041  21041429.07746  21041427.87149
  -3218082.13848  -2507595.22846         0.00041  22020174.53546  22020172.69048
  -1251924.06648   -975523.99746         0.00041  22574695.49746  22574694.02148
 02 07 10 15 45 00.0000000  0  8 06 15 17 18 21 23 26 29
    -55985.84449    -43626.24947         0.00041  20282461.56247  20282460.90649
  -3216713.53849  -2506528.25146         0.00041  21494903.65146  21494902.50349
  -2086176.33849  -1625590.97446         0.00041  21119401.43246  21119400.11949
  -5242082.68349  -4084737.82446         0.00041  21686506.03046  21686505.63249
  -2771744.91348  -2159798.12844         0.00041  24358759.94444  24358752.14048
   1949881.41749   1519387.57346         0.00041  21050051.60046  21050050.47649
  -3254532.33848  -2535997.98446         0.00041  22013238.07846  22013236.47848
  -1264926.99348   -985656.15546         0.00041  22572220.32146  22572219.72848
 02 07 10 15 45 30.0000000  0  8 06 15 17 18 21 23 26 29
    -41885.95549    -32639.33647         0.00041  20285144.64847  20285143.87849
  -3262749.62948  -2542400.52946         0.00041  21486144.35546  21486141.21648
  -2114852.46649  -1647936.01746         0.00041  21113944.28846  21113943.32449
  -5316638.83249  -4142833.49746         0.00041  21672318.72246  21672318.07349
  -2861598.96948  -2229814.19044         0.00041  24341656.92144  24341654.29848
   1995580.27849   1554997.05846         0.00041  21058747.89546  21058746.70849
  -3290410.11248  -2563954.68046         0.00041  22006410.33046  22006409.10448
  -1277401.85548   -995376.81946         0.00041  22569846.59346  22569845.73748
 02 07 10 15 46 00.0000000  0  8 06 15 17 18 21 23 26 29
    -27299.54349    -21273.31747         0.00041  20287920.41947  20287919.43949
  -3308608.96948  -2578135.07246         0.00041  21477416.46346  21477415.02948
  -2143372.22149  -1670159.20046         0.00041  21108517.59346  21108515.61649
  -5390815.47449  -4200633.45146         0.00041  21658203.08846  21658203.06149
  -2951268.30348  -2299686.26544         0.00041  24324593.54744  24324591.48648
   2041662.97049   1590905.62746         0.00041  21067516.92246  21067515.77449
  -3325715.56048  -2591465.41646         0.00041  21999692.69146  21999690.58348
  -1289349.74048  -1004686.85446         0.00041  22567572.80346  22567571.90048
 02 07 10 15 46 30.0000000  0  8 06 15 17 18 21 23 26 29
    -12270.08949     -9562.08147         0.00041  20290780.52147  20290780.04549
  -3354335.59148  -2613766.18946         0.00041  21468714.97146  21468712.83048
  -2171779.67949  -1692294.89146         0.00041  21103111.56246  21103109.78849
  -5464655.43749  -4258171.05846         0.00041  21644151.97546  21644151.31149
  -3040796.23548  -2369448.21341         0.00041         0.00041  24307554.72048
   2088083.35549   1627077.33546         0.00041  21076350.63646  21076349.57249
  -3360490.39348  -2618562.69946         0.00041  21993074.93146  21993073.31348
  -1300813.59448  -1013619.74546         0.00041  22565391.07046  22565390.42248
 02 07 10 15 47 00.0000000  0  8 06 15 17 18 21 23 26 29
      3255.93249      2536.09947         0.00041  20293734.84747  20293734.44449
  -3399876.62549  -2649252.71146         0.00041  21460049.17646  21460047.57349
  -2200021.88449  -1714301.81046         0.00041  21097737.12546  21097735.68049
  -5538104.39449  -4315403.97746         0.00041  21630176.09046  21630174.78649
  -3130128.00048  -2439057.28044         0.00041  24290560.25444  24290555.80848
   2134892.30249   1663551.81847         0.00041  21085258.22347  21085256.96449
  -3394679.67048  -2645203.68846         0.00041  21986569.48346  21986567.47348
  -1311739.59148  -1022133.51146         0.00041  22563312.96246  22563311.54548
 02 07 10 15 47 30.0000000  0  8 06 15 17 18 21 23 26 29
     19284.69249     15026.02747         0.00041  20296785.20847  20296784.46949
  -3445226.55849  -2684590.29946         0.00041  21451419.70846  21451417.80349
  -2228093.49149  -1736175.79046         0.00041  21092395.13846  21092393.55649
  -5611155.54549  -4372326.92046         0.00041  21616273.83946  21616273.25949
  -3219257.13248  -2508508.45044         0.00041  24273599.39144  24273595.46148
   2182093.29849   1700331.79447         0.00041  21094240.26947  21094239.01049
  -3428275.70548  -2671382.41046         0.00041  21980176.89746  21980174.43048
  -1322121.20448  -1030223.06446         0.00041  22561337.32146  22561335.73348
 02 07 10 15 48 00.0000000  0  8 06 15 17 18 21 23 26 29
     35787.79649     27885.57447         0.00041  20299925.91947  20299925.02149
  -3490414.47549  -2719801.66546         0.00041  21442820.63246  21442818.70949
  -2256023.48049  -1757939.42646         0.00041  21087080.18246  21087078.54949
  -5683836.81149  -4428961.64546         0.00041  21602442.13246  21602442.13649
  -3308211.12848  -2577823.14744         0.00041  24256674.53344  24256667.51248
   2229655.24449   1737393.02947         0.00041  21103290.98547  21103289.81849
  -3461305.52548  -2697119.91646         0.00041  21973890.50246  21973888.89148
  -1331986.32048  -1037910.17246         0.00041  22559459.51846  22559458.29748
 02 07 10 15 48 30.0000000  0  8 06 15 17 18 21 23 26 29
     52791.66149     41135.32047         0.00041  20303161.42147  20303160.56649
  -3535414.18649  -2754866.36546         0.00041  21434257.13146  21434256.29149
  -2283785.99049  -1779572.55846         0.00041  21081797.47246  21081795.65949
  -5756120.73849  -4485286.75146         0.00041  21588687.26246  21588686.63249
  -3396962.59448  -2646980.06044         0.00041  24239781.68744  24239777.62048
   2277601.92949   1774754.06146         0.00041  21112414.81946  21112413.78249
  -3493740.93648  -2722394.23846         0.00041  21967718.29746  21967716.67648
  -1341308.10348  -1045173.90846         0.00041  22557685.36546  22557683.95648
 02 07 10 15 49 00.0000000  0  8 06 15 17 18 21 23 26 29
     70301.22749     54779.11247         0.00041  20306493.55347  20306492.57749
  -3580221.36249  -2789781.05446         0.00041  21425730.92046  21425728.63349
  -2311376.72149  -1801071.84046         0.00041  21076546.69746  21076545.35449
  -5828001.81449  -4541297.95346         0.00041  21575008.98146  21575008.59749
  -3485506.06748  -2715974.90044         0.00041  24222932.73144  24222928.42848
   2325935.70749   1812416.72446         0.00041  21121612.43346  21121611.42349
  -3525575.79448  -2747200.60546         0.00041  21961660.50446  21961658.91548
  -1350081.36948  -1052010.20846         0.00041  22556016.13446  22556014.83348
 02 07 10 15 49 30.0000000  0  8 06 15 17 18 21 23 26 29
     88256.52249     68770.23047         0.00041  20309910.31347  20309909.48549
  -3624896.33449  -2824592.70746         0.00041  21417229.72246  21417227.78349
  -2338855.83249  -1822484.13446         0.00041  21071318.07346  21071316.62949
  -5899539.27649  -4597041.40046         0.00041  21561396.07746  21561395.15649
  -3573900.68848  -2784853.69644         0.00041  24206111.84944  24206108.14348
   2374594.25849   1850332.45846         0.00041  21130871.82046  21130870.87649
  -3556868.30448  -2771584.36846         0.00041  21955705.63946  21955703.65648
  -1358365.41048  -1058465.29246         0.00041  22554440.82246  22554438.80848
 02 07 10 15 50 00.0000000  0  8 06 15 17 18 21 23 26 29
    106651.24049     83103.75647         0.00041  20313410.79047  20313410.02349
  -3669446.06249  -2859306.78146         0.00041  21408751.80946  21408750.22149
  -2366230.43649  -1843815.00146         0.00041  21066108.81646  21066107.35149
  -5970738.56549  -4652521.34046         0.00041  21547847.42246  21547846.75849
  -3662151.85748  -2853620.75745         0.00041  24189319.44145  24189314.55648
   2423568.54949   1888494.21946         0.00041  21140191.38546  21140190.36549
  -3587623.41448  -2795549.36646         0.00041  21949853.14346  21949851.19748
  -1366166.34148  -1064543.94946         0.00041  22552955.10946  22552953.84148
 02 07 10 15 50 30.0000000  0  8 06 15 17 18 21 23 26 29
    125598.88549     97868.14047         0.00041  20317016.49847  20317015.70849
  -3713757.55649  -2893835.20846         0.00041  21400320.33146  21400318.42049
  -2393387.45149  -1864976.31346         0.00041  21060940.87546  21060939.65749
  -6041485.61249  -4707648.87246         0.00041  21534384.24046  21534383.38849
  -3750144.71048  -2922186.54444         0.00041  24172574.43644  24172569.51848
   2472969.36649   1926988.33846         0.00041  21149591.86346  21149591.22949
  -3617726.25648  -2819006.10546         0.00041  21944124.69646  21944123.38948
  -1373370.33548  -1070157.45646         0.00041  22551582.74546  22551582.89848
 02 07 10 15 51 00.0000000  0  8 06 15 17 18 21 23 26 29
    145078.04549    113046.68847         0.00041  20320722.86647  20320721.94349
  -3757852.50049  -2928194.90046         0.00041  21391929.17346  21391927.56049
  -2420348.95949  -1885985.28346         0.00041  21055810.17446  21055808.63749
  -6111801.26249  -4762440.25546         0.00041  21521004.45546  21521003.37349
  -3837900.53548  -2990567.58944         0.00041  24155872.87444  24155869.71348
   2522772.80549   1965796.19246         0.00041  21159068.86646  21159068.28649
  -3647196.55848  -2841969.94746         0.00041  21938516.76246  21938515.58648
  -1379998.34848  -1075322.15346         0.00041  22550323.23846  22550322.04648
 02 07 10 15 51 30.0000000  0  8 06 15 17 18 21 23 26 29
    164921.14049    128508.81747         0.00041  20324499.20347  20324498.25249
  -3801898.69449  -2962516.60846         0.00041  21383547.04646  21383545.31049
  -2447282.68349  -1906972.60946         0.00041  21050684.75846  21050683.62249
  -6181852.14449  -4817025.33046         0.00041  21507673.63046  21507672.88249
  -3925586.26848  -3058894.05444         0.00041  24139188.39444  24139185.16848
   2572808.85749   2004785.30146         0.00041  21168590.70846  21168589.65749
  -3676200.52448  -2864570.41946         0.00041  21932997.66646  21932995.39648
  -1386217.55848  -1080168.30046         0.00041  22549139.79446  22549138.47848
 02 07 10 15 52 00.0000000  0  8 06 15 17 18 21 23 26 29
    185210.35749    144318.57047         0.00041  20328360.30347  20328359.19849
  -3845814.43549  -2996736.65546         0.00041  21375190.21346  21375188.69449
  -2474107.21449  -1927874.84146         0.00041  21045580.33646  21045579.29249
  -6251555.62849  -4871339.70346         0.00041  21494409.63946  21494408.48749
  -4013118.56848  -3127100.99444         0.00041  24122531.24144  24122528.06748
   2623156.90749   2044017.52746         0.00041  21178172.08846  21178170.94049
  -3704654.68948  -2886742.48746         0.00041  21927582.78946  21927580.51748
  -1391945.50048  -1084631.62346         0.00041  22548050.17246  22548048.15148
 02 07 10 15 52 30.0000000  0  8 06 15 17 18 21 23 26 29
    206096.83749    160593.72847         0.00041  20332334.45147  20332333.83649
  -3889448.73549  -3030737.41246         0.00041  21366886.92646  21366884.93549
  -2500671.70849  -1948574.45346         0.00041  21040525.75646  21040524.17549
  -6320759.35249  -4925264.64746         0.00041  21481240.37046  21481239.86449
  -4100345.50148  -3195069.94444         0.00041  24105934.60244  24105927.02948
   2673965.61649   2083608.70546         0.00041  21187840.80946  21187839.63849
  -3732406.40148  -2908367.18346         0.00041  21922301.80846  21922299.64048
  -1397030.79248  -1088594.18946         0.00041  22547082.11546  22547080.41348
 02 07 10 15 53 00.0000000  0  8 06 15 17 18 21 23 26 29
    227657.65249    177394.34747         0.00041  20336437.41647  20336436.91249
  -3932724.98049  -3064459.14246         0.00041  21358651.35846  21358650.02549
  -2526899.31449  -1969011.55546         0.00041  21035535.04946  21035533.53049
  -6389385.84049  -4978739.81646         0.00041  21468181.26446  21468180.89649
  -4187189.25748  -3262740.30244         0.00041  24089407.70344  24089401.14948
   2725309.51749   2123616.91546         0.00041  21197611.24446  21197610.01249
  -3759376.98948  -2929383.21146         0.00041  21917169.23346  21917167.58048
  -1401395.81948  -1091995.50846         0.00041  22546251.78246  22546250.09748
 02 07 10 15 53 30.0000000  0  8 06 15 17 18 21 23 26 29
    249496.82849    194411.86447         0.00041  20340593.59547  20340592.78449
  -3976039.71549  -3098210.87246         0.00041  21350409.19246  21350407.68849
  -2553186.44949  -1989495.04046         0.00041  21030532.40846  21030530.86849
  -6457830.20349  -5032073.06146         0.00041  21455157.04246  21455156.46149
  -4274044.25848  -3330419.44144         0.00041  24072880.31444  24072874.28848
   2776790.24049   2163731.74646         0.00041  21207407.40046  21207406.32549
  -3785961.24048  -2950098.16846         0.00041  21912111.27346  21912108.75048
  -1405436.27648  -1095143.91146         0.00041  22545482.28246  22545481.76948
 02 07 10 15 54 00.0000000  0  8 06 15 17 18 21 23 26 29
    271782.79749    211777.53247         0.00041  20344834.48447  20344833.50149
  -4019224.55549  -3131861.38446         0.00041  21342191.36546  21342188.95649
  -2579365.18349  -2009894.05646         0.00041  21025550.36346  21025548.94449
  -6525923.36149  -5085132.63746         0.00041  21442198.90246  21442198.46349
  -4360741.74148  -3397975.83944         0.00041  24056381.20144  24056376.47748
   2828573.82449   2204082.57646         0.00041  21217261.45346  21217260.31249
  -3811989.26048  -2970379.74146         0.00041  21907158.56846  21907155.38248
  -1408983.36648  -1097907.86146         0.00041  22544807.27646  22544806.65548
 02 07 10 15 54 30.0000000  0  8 06 15 17 18 21 23 26 29
    294584.25549    229544.88047         0.00041  20349173.30147  20349172.26949
  -4062211.27449  -3165357.51446         0.00041  21334011.44846  21334009.02849
  -2605366.93849  -2030155.16546         0.00041  21020602.43246  21020601.27749
  -6593595.80749  -5137864.38846         0.00041  21429321.40846  21429320.89049
  -4447212.39648  -3465355.53544         0.00041  24039926.11344  24039921.34848
   2880726.50449   2244721.01146         0.00041  21227185.70646  21227184.68949
  -3837390.94348  -2990173.26546         0.00041  21902324.74846  21902322.58748
  -1411968.27548  -1100233.76846         0.00041  22544239.31546  22544237.90048
 02 07 10 15 55 00.0000000  0  8 06 15 17 18 21 23 26 29
    317865.62749    247686.18847         0.00041  20353603.66847  20353602.93249
  -4105035.49049  -3198727.01346         0.00041  21325862.45846  21325860.28349
  -2631227.68149  -2050306.39746         0.00041  21015681.32146  21015679.99049
  -6660882.55349  -5190295.59146         0.00041  21416517.54646  21416516.30549
  -4533490.38248  -3532585.01244         0.00041  24023508.79644  24023501.88648
   2933210.18049   2285617.36546         0.00041  21237173.23846  21237172.16849
  -3862200.40348  -3009505.29746         0.00041  21897603.48346  21897601.26448
  -1414425.94748  -1102148.84646         0.00041  22543772.34546  22543769.93648
 02 07 10 15 55 30.0000000  0  8 06 15 17 18 21 23 26 29
    341644.03749    266214.79647         0.00041  20358128.42847  20358127.73949
  -4147680.21449  -3231956.66846         0.00041  21317746.90046  21317745.34749
  -2656930.35649  -2070334.45746         0.00041  21010790.18346  21010789.03149
  -6727765.47449  -5242412.13246         0.00041  21403789.55946  21403789.14949
  -4619557.77948  -3599650.45344         0.00041  24007130.35544  24007124.30548
   2986039.57149   2326783.10346         0.00041  21247226.54946  21247225.17849
  -3886399.11948  -3028361.42946         0.00041  21892997.47946  21892996.07548
  -1416338.87948  -1103639.45946         0.00041  22543407.60346  22543406.98648
 02 07 10 15 56 00.0000000  0  8 06 15 17 18 21 23 26 29
    365900.33649    285115.78147         0.00041  20362744.66547  20362743.60049
  -4190164.83449  -3265061.54246         0.00041  21309662.49146  21309660.87549
  -2682494.46149  -2090254.54446         0.00041  21005925.57046  21005923.98749
  -6794263.07649  -5294228.41646         0.00041  21391135.71046  21391134.98849
  -4705433.06048  -3666566.14044         0.00041  23990792.04444  23990782.36448
   3039193.04249   2368201.37346         0.00041  21257341.51546  21257339.95949
  -3910004.74948  -3046755.41246         0.00041  21888505.80446  21888503.55148
  -1417726.21248  -1104720.51446         0.00041  22543143.54846  22543142.61248
 02 07 10 15 56 30.0000000  0  8 06 15 17 18 21 23 26 29
    390656.22249    304406.06347         0.00041  20367455.41247  20367454.86649
  -4232467.96049  -3298025.01246         0.00041  21301612.11546  21301610.62049
  -2707898.40049  -2110049.82346         0.00041  21001091.21846  21001090.02149
  -6860352.62449  -5345726.72746         0.00041  21378559.16746  21378558.57249
  -4791092.92848  -3733314.03144         0.00041  23974486.31344  23974482.49048
   3092690.03349   2409887.32046         0.00041  21267521.44346  21267520.12549
  -3932994.37248  -3064669.38346         0.00041  21884131.61846  21884129.48348
  -1418565.56148  -1105374.55846         0.00041  22542984.13046  22542982.45948
 02 07 10 15 57 00.0000000  0  8 06 15 17 18 21 23 26 29
    415923.89549    324095.13847         0.00041  20372263.26447  20372262.69349
  -4274577.53649  -3330837.65146         0.00041  21293598.74146  21293597.84049
  -2733130.42249  -2129711.14446         0.00041  20996289.98446  20996288.36549
  -6926021.25649  -5396897.06346         0.00041  21366062.79746  21366062.15549
  -4876524.65348  -3799884.16544         0.00041  23958231.52544  23958226.12548
   3146540.09649   2451848.39046         0.00041  21277768.25346  21277767.05049
  -3955354.40848  -3082092.77446         0.00041  21879875.50646  21879874.87848
  -1418844.75448  -1105592.11246         0.00041  22542930.69146  22542929.81848
 02 07 10 15 57 30.0000000  0  8 06 15 17 18 21 23 26 29
    441674.33249    344160.38647         0.00041  20377163.81847  20377162.93349
  -4316522.55549  -3363522.08546         0.00041  21285616.93946  21285615.13949
  -2758219.75049  -2149261.26946         0.00041  20991515.81746  20991514.56549
  -6991297.39749  -5447761.56346         0.00041  21353640.65746  21353640.40349
  -4961756.29548  -3866298.35944         0.00041  23942010.23444  23942006.29348
   3200711.80249   2494060.08246         0.00041  21288076.71446  21288075.64349
  -3977112.72948  -3099047.29346         0.00041  21875735.81646  21875733.84748
  -1418592.58048  -1105395.62146         0.00041  22542979.38546  22542978.03348
 02 07 10 15 58 00.0000000  0  8 06 15 17 18 21 23 26 29
    467916.84849    364609.08147         0.00041  20382157.81747  20382156.88549
  -4358294.13249  -3396071.34646         0.00041  21277667.70046  21277666.53049
  -2783157.25849  -2168693.09246         0.00041  20986770.15146  20986768.71249
  -7056170.90249  -5498312.32046         0.00041  21341295.93246  21341295.47049
  -5046778.21648  -3932549.13644         0.00041  23925830.91644  23925825.41048
   3255212.12349   2536527.84146         0.00041  21298447.98046  21298447.05249
  -3998258.60448  -3115524.58046         0.00041  21871711.76846  21871709.39248
  -1417799.37148  -1104777.54546         0.00041  22543130.28346  22543128.04548
 02 07 10 15 58 30.0000000  0  8 06 15 17 18 21 23 26 29
    494653.19149    385442.57447         0.00041  20387245.36247  20387244.54749
  -4399890.32649  -3428483.96946         0.00041  21269753.04346  21269751.30649
  -2807941.01249  -2188005.10846         0.00041  20982054.04546  20982052.81349
  -7120639.18649  -5548547.31546         0.00041  21329027.83746  21329027.31949
  -5131586.88648  -3998633.71944         0.00041  23909694.81744  23909688.00348
   3310040.74749   2579251.41746         0.00041  21308881.40646  21308880.61749
  -4018788.90648  -3131522.20146         0.00041  21867805.34546  21867803.22048
  -1416463.04548  -1103736.25345         0.00041  22543384.21245  22543382.77448
 02 07 10 15 59 00.0000000  0  8 06 15 17 18 21 23 26 29
    521872.55749    406652.44647         0.00041  20392424.81347  20392424.24649
  -4441322.09149  -3460768.46046         0.00041  21261868.77146  21261867.18549
  -2832582.11949  -2207205.96846         0.00041  20977364.91746  20977363.31549
  -7184712.32849  -5598474.41446         0.00041  21316835.69246  21316834.63749
  -5216192.14648  -4064559.80544         0.00041  23893593.93444  23893588.04748
   3365184.34949   2622220.42646         0.00041  21319374.90746  21319374.02349
  -4038713.18648  -3147047.59146         0.00041  21864014.43146  21864011.88048
  -1414594.11448  -1102279.95145         0.00041  22543739.33045  22543738.48648
 02 07 10 15 59 30.0000000  0  8 06 15 17 18 21 23 26 29
    549592.48349    428252.36847         0.00041  20397699.91747  20397699.35949
  -4482572.03249  -3492911.27546         0.00041  21254018.88946  21254017.83349
  -2857063.18649  -2226282.12346         0.00041  20972706.49146  20972704.94449
  -7248372.15849  -5648079.44546         0.00041  21304721.15246  21304720.64149
  -5300576.03748  -4130313.40844         0.00041  23877536.11644  23877530.93848
   3420657.94149   2665446.57546         0.00041  21329931.80946  21329930.49849
  -4058012.68848  -3162086.14946         0.00041  21860342.06746  21860338.84348
  -1412174.89148  -1100394.84345         0.00041  22544199.45745  22544198.09348
 02 07 10 16 00 00.0000000  0  8 06 15 17 18 21 23 26 29
    577795.95849    450229.08447         0.00041  20403066.95347  20403066.19249
  -4523657.36049  -3524925.80346         0.00041  21246200.96046  21246199.10649
  -2881401.36849  -2245246.93346         0.00041  20968075.09246  20968073.81349
  -7311634.80949  -5697374.98646         0.00041  21292682.34946  21292682.54649
  -5384754.32448  -4195906.82845         0.00041  23861516.37545  23861513.30648
   3476442.30949   2708914.88946         0.00041  21340547.51946  21340546.15149
  -4076703.06248  -3176650.07346         0.00041  21856783.95146  21856782.35848
  -1409222.04848  -1098093.93046         0.00041  22544761.27046  22544760.80548
 02 07 10 16 00 30.0000000  0  8 06 15 17 18 21 23 26 29
    606488.96749    472587.24847         0.00041  20408527.18847  20408526.25349
  -4564571.93948  -3556807.30846         0.00041  21238415.69646  21238412.90148
  -2905590.39549  -2264095.52746         0.00041  20963471.86846  20963470.31249
  -7374493.30849  -5746355.60246         0.00041  21280721.57646  21280721.17649
  -5468720.05448  -4261334.59445         0.00041  23845540.68645  23845535.14448
   3532541.35149   2752628.40046         0.00041  21351222.77746  21351221.23549
  -4094776.98648  -3190733.64346         0.00041  21853344.27846  21853343.07848
  -1405729.20148  -1095372.24746         0.00041  22545427.53046  22545425.66848
 02 07 10 16 01 00.0000000  0  8 06 15 17 18 21 23 26 29
    635681.80149    495334.89347         0.00041  20414082.27847  20414081.54049
  -4605305.09849  -3588547.43146         0.00041  21230663.21046  21230661.86849
  -2929620.06149  -2282819.94046         0.00041  20958899.33046  20958897.96449
  -7436936.78349  -5795012.82646         0.00041  21268838.86346  21268838.55749
  -5552462.14148  -4326588.08845         0.00041  23829602.62445  23829598.42148
   3588963.00849   2796593.30646         0.00041  21361959.14946  21361957.53249
  -4112222.88148  -3204327.84146         0.00041  21850025.10646  21850023.38748
  -1401685.87048  -1092221.59846         0.00041  22546196.67246  22546194.33348
 02 07 10 16 01 30.0000000  0  8 06 15 17 18 21 23 26 29
    665352.09349    518454.57246         0.00041  20419727.97546  20419727.22549
  -4645879.27949  -3620163.66946         0.00041  21222943.10546  21222941.11449
  -2953512.77549  -2301437.64046         0.00041  20954352.86246  20954351.26449
  -7498986.65049  -5843363.34046         0.00041  21257031.12246  21257030.47049
  -5636001.60548  -4391683.70744         0.00041  23813705.56144  23813700.95548
   3645682.52149   2840790.30246         0.00041  21372752.61746  21372751.25549
  -4129061.79848  -3217449.07546         0.00041  21846821.09346  21846818.97348
  -1397114.07748  -1088659.14746         0.00041  22547066.12346  22547064.64948
 02 07 10 16 02 00.0000000  0  8 06 15 17 18 21 23 26 29
    695548.06949    541983.88447         0.00041  20425474.46847  20425473.56749
  -4686246.15549  -3651618.38346         0.00041  21215260.99446  21215259.11049
  -2977220.07349  -2319910.85946         0.00041  20949841.19746  20949839.89149
  -7560593.54149  -5891368.67846         0.00041  21245307.22646  21245306.63949
  -5719288.99548  -4456582.87545         0.00041  23797856.33145  23797852.08148
   3702746.15949   2885255.44846         0.00041  21383611.34746  21383610.16149
  -4145244.08148  -3230058.64846         0.00041  21843740.82546  21843739.53748
  -1391965.39648  -1084647.20846         0.00041  22548045.26546  22548044.87848
 02 07 10 16 02 30.0000000  0  8 06 15 17 18 21 23 26 29
    726284.48149    565934.31747         0.00041  20431323.57747  20431322.32549
  -4726390.96449  -3682900.05246         0.00041  21207622.13046  21207620.37349
  -3000727.14249  -2338228.05446         0.00041  20945368.03546  20945366.60749
  -7621742.15349  -5939016.91646         0.00041  21233670.76946  21233670.09249
  -5802308.27948  -4521273.14545         0.00041  23782059.92645  23782054.97048
   3760166.51249   2929998.55446         0.00041  21394538.18546  21394536.77449
  -4160753.83548  -3242144.15746         0.00041  21840789.20746  21840788.22748
  -1386224.66048  -1080173.90646         0.00041  22549137.53246  22549137.08648
 02 07 10 16 03 00.0000000  0  8 06 15 17 18 21 23 26 29
    757423.58949    590198.53047         0.00041  20437248.74347  20437248.18949
  -4766451.45349  -3714116.01746         0.00041  21199998.09046  21199996.58349
  -3024171.84949  -2356496.66446         0.00041  20940906.61146  20940905.34049
  -7682569.49149  -5986414.81346         0.00041  21222095.95646  21222095.50349
  -5885196.45848  -4585861.26045         0.00041  23766288.45345  23766282.02248
   3817803.45049   2974910.43046         0.00041  21405506.35246  21405504.80749
  -4175727.59748  -3253812.00946         0.00041  21837940.21546  21837938.80848
  -1380029.64148  -1075346.62046         0.00041  22550317.08946  22550316.34448
 02 07 10 16 03 30.0000000  0  8 06 15 17 18 21 23 26 29
    789046.53849    614839.76347         0.00041  20443266.75347  20443265.96349
  -4806346.14549  -3745202.78646         0.00041  21192407.25446  21192405.05149
  -3047472.73249  -2374653.20046         0.00041  20936472.20746  20936471.17649
  -7742993.53049  -6033498.45346         0.00041  21210597.68346  21210597.13449
  -5967871.76248  -4650283.51445         0.00041  23750554.08045  23750549.24448
   3875735.94149   3020052.61046         0.00041  21416530.91646  21416529.00349
  -4190083.23648  -3264998.21546         0.00041  21835208.72246  21835207.01348
  -1373298.79948  -1070101.81746         0.00041  22551598.07246  22551597.07748
 02 07 10 16 04 00.0000000  0  8 06 15 17 18 21 23 26 29
    821170.93549    639871.73947         0.00041  20449380.03747  20449379.00249
  -4846057.40349  -3776146.62646         0.00041  21184850.33946  21184848.45949
  -3070612.19149  -2392683.94946         0.00041  20932069.35946  20932067.81549
  -7802995.98149  -6080253.57346         0.00041  21199179.54846  21199178.78849
  -6050315.28848  -4714525.14245         0.00041  23734863.67745  23734858.83748
   3933979.51849   3065437.19546         0.00041  21427614.17446  21427612.26549
  -4203801.82548  -3275688.03346         0.00041  21832598.31146  21832596.44348
  -1366014.49048  -1064425.73946         0.00041  22552983.81446  22552983.32948
 02 07 10 16 04 30.0000000  0  8 06 15 17 18 21 23 26 29
    853777.48349    665279.41047         0.00041  20455584.84947  20455583.85049
  -4885604.52949  -3806962.56246         0.00041  21177324.78146  21177322.44149
  -3093609.42349  -2410603.88246         0.00041  20927693.60046  20927691.72949
  -7862595.12649  -6126694.43446         0.00041  21187838.15346  21187837.54449
  -6132544.95948  -4778600.12845         0.00041  23719216.77845  23719212.54748
   3992512.58849   3111047.34946         0.00041  21438752.53046  21438750.87849
  -4216901.48848  -3285895.56846         0.00041  21830105.22546  21830103.62648
  -1358195.84748  -1058333.29746         0.00041  22554471.65646  22554471.59048
 02 07 10 16 05 00.0000000  0  8 06 15 17 18 21 23 26 29
    886855.89849    691054.76947         0.00041  20461879.36047  20461878.61949
  -4924997.31949  -3837658.24546         0.00041  21169828.93546  21169826.50749
  -3116474.36149  -2428420.72546         0.00041  20923342.29546  20923340.80649
  -7921800.47849  -6172828.44246         0.00041  21176571.75846  21176571.84349
  -6214570.22448  -4842515.84045         0.00041  23703608.48745  23703603.84448
   4051322.79649   3156873.45046         0.00041  21449943.39346  21449942.20449
  -4229391.21948  -3295627.80946         0.00041  21827728.41346  21827726.56648
  -1349852.70748  -1051832.14646         0.00041  22556058.77946  22556058.66348
 02 07 10 16 05 30.0000000  0  8 06 15 17 18 21 23 26 29
    920454.24649    717235.27647         0.00041  20468273.10847  20468272.22349
  -4964187.56649  -3868196.09146         0.00041  21162370.76146  21162368.89049
  -3139158.74949  -2446096.88246         0.00041  20919025.63046  20919023.90049
  -7980563.08749  -6218617.46246         0.00041  21165389.86746  21165389.35549
  -6296341.99548  -4906234.03245         0.00041  23688048.94845  23688042.14248
   4110456.01549   3202951.25446         0.00041  21461195.68646  21461195.02549
  -4241221.76248  -3304846.40646         0.00041  21825477.16246  21825475.13448
  -1340936.90448  -1044884.75146         0.00041  22557756.07046  22557754.92748
 02 07 10 16 06 00.0000000  0  8 06 15 17 18 21 23 26 29
    954560.93549    743811.88747         0.00041  20474763.40247  20474762.80949
  -5003186.51449  -3898584.87746         0.00041  21154950.30446  21154947.29449
  -3161674.02849  -2463641.26146         0.00041  20914740.75646  20914739.59549
  -8038893.80349  -6264069.93746         0.00041  21154289.71846  21154289.56249
  -6377871.11248  -4969763.16045         0.00041  23672532.27345  23672527.70648
   4169898.57649   3249270.10546         0.00041  21472507.51046  21472506.52949
  -4252403.77648  -3313559.66146         0.00041  21823349.51546  21823347.55848
  -1331459.73848  -1037499.95346         0.00041  22559559.86246  22559558.10748
 02 07 10 16 06 30.0000000  0  8 06 15 17 18 21 23 26 29
    989180.01649    770787.77247         0.00041  20481351.07047  20481350.55249
  -5041989.83949  -3928821.23546         0.00041  21147564.78546  21147563.56049
  -3184015.75549  -2481050.40146         0.00041  20910489.08346  20910487.96049
  -8096787.86149  -6309182.16246         0.00041  21143272.45746  21143271.99349
  -6459152.26048  -5033099.05845         0.00041  23657064.66545  23657061.45348
   4229652.48149   3295831.56046         0.00041  21483878.39446  21483877.13349
  -4262931.74348  -3321763.26946         0.00041  21821345.87246  21821344.76948
  -1321417.08248  -1029674.52146         0.00041  22561471.56246  22561469.25348
 02 07 10 16 07 00.0000000  0  8 06 15 17 18 21 23 26 29
   1024309.51949    798161.38247         0.00041  20488036.01047  20488035.45549
  -5080599.17949  -3958906.42146         0.00041  21140218.16846  21140216.61349
  -3206185.64449  -2498325.63946         0.00041  20906270.52146  20906268.99549
  -8154246.04649  -6353954.74146         0.00041  21132339.22846  21132338.87749
  -6540186.10048  -5096242.20345         0.00041  23641644.34245  23641641.17948
   4289713.74249   3342632.51146         0.00041  21495307.88546  21495306.55549
  -4272806.58648  -3329457.95346         0.00041  21819466.89546  21819465.13448
  -1310810.59448  -1021409.72246         0.00041  22563490.40546  22563487.45148
 02 07 10 16 07 30.0000000  0  8 06 15 17 18 21 23 26 29
   1059859.38349    825862.54047         0.00041  20494800.90747  20494800.36549
  -5119103.98249  -3988910.16446         0.00041  21132891.22046  21132889.70549
  -3228273.17549  -2515536.70546         0.00041  20902067.50446  20902065.94249
  -8211357.38949  -6398457.05546         0.00041  21121470.29146  21121470.35649
  -6621060.68648  -5159261.30645         0.00041  23626255.30545  23626250.84548
   4349990.61449   3389601.47246         0.00041  21506777.83746  21506776.60949
  -4282117.04048  -3336712.85146         0.00041  21817695.06346  21817692.84748
  -1299729.90748  -1012775.40946         0.00041  22565597.33946  22565596.73748
 02 07 10 16 08 00.0000000  0  8 06 15 17 18 21 23 26 29
   1095887.10149    853936.05647         0.00041  20501656.54647  20501655.98749
  -5157446.67849  -4018787.57746         0.00041  21125594.57946  21125592.86749
  -3250220.77449  -2532638.72846         0.00041  20897891.06646  20897889.44549
  -8268063.81249  -6442643.86046         0.00041  21110679.78846  21110680.06949
  -6701718.23648  -5222111.26245         0.00041  23610906.87845  23610901.37348
   4410538.24849   3436781.42546         0.00041  21518299.71946  21518298.59449
  -4290804.60848  -3343482.39746         0.00041  21816041.70746  21816039.81148
  -1288117.46548  -1003726.76846         0.00041  22567807.04246  22567805.86948
 02 07 10 16 08 30.0000000  0  8 06 15 17 18 21 23 26 29
   1132405.11549    882391.62447         0.00041  20508606.15147  20508605.22249
  -5195614.54749  -4048528.77346         0.00041  21118332.04946  21118329.89149
  -3272015.66749  -2549621.76346         0.00041  20893743.61346  20893742.58649
  -8324352.04649  -6486504.79146         0.00041  21099968.46946  21099968.29849
  -6782145.00248  -5284781.41145         0.00041  23595600.86245  23595597.10348
   4471366.95849   3484180.40646         0.00041  21529875.55246  21529874.11549
  -4298855.97548  -3349756.18846         0.00041  21814509.96446  21814508.59748
  -1275960.82148   -994254.05446         0.00041  22570121.13946  22570119.17048
 02 07 10 16 09 00.0000000  0  8 06 15 17 18 21 23 26 29
   1169423.52449    911237.10547         0.00041  20515650.34447  20515649.40249
  -5233597.12249  -4078125.57946         0.00041  21111103.63346  21111102.26549
  -3293647.35949  -2566477.61946         0.00041  20889627.30446  20889625.90049
  -8380211.00349  -6530031.21746         0.00041  21089338.93946  21089338.37849
  -6862329.68848  -5347262.91945         0.00041  23580341.84445  23580338.41548
   4532485.07149   3531804.88846         0.00041  21541505.92946  21541504.08049
  -4306259.80148  -3355525.40946         0.00041  21813100.83546  21813099.33348
  -1263249.79648   -984349.36846         0.00041  22572539.43746  22572538.44148
 02 07 10 16 09 30.0000000  0  8 06 15 17 18 21 23 26 29
   1206936.41949    940467.90447         0.00041  20522789.03847  20522788.06149
  -5271399.69649  -4107582.11846         0.00041  21103910.22446  21103908.96449
  -3315121.30249  -2583210.56046         0.00041  20885540.85346  20885539.69149
  -8435645.77249  -6573227.11446         0.00041  21078790.05746  21078789.41249
  -6942277.02348  -5409559.47045         0.00041  23565129.78045  23565124.40548
   4593884.59149   3579648.64846         0.00041  21553190.17346  21553188.59149
  -4313020.93548  -3360793.81646         0.00041  21811815.05046  21811812.26948
  -1249989.91348   -974017.00546         0.00041  22575063.00646  22575062.30948
 02 07 10 16 10 00.0000000  0  8 06 15 17 18 21 23 26 29
   1244944.37049    970084.46147         0.00041  20530021.89947  20530020.84249
  -5309021.41349  -4136897.73446         0.00041  21096750.90146  21096749.14449
  -3336436.49249  -2599819.79546         0.00041  20881484.60646  20881483.47049
  -8490655.14249  -6616091.53146         0.00041  21068322.46146  21068322.14249
  -7021985.33248  -5471669.78845         0.00041  23549960.68145  23549955.55748
   4655564.07849   3627710.56146         0.00041  21564927.15046  21564925.77149
  -4319137.67448  -3365560.10046         0.00041  21810650.01646  21810648.66648
  -1236180.43448   -963256.38146         0.00041  22577691.08546  22577690.25048
 02 07 10 16 10 30.0000000  0  8 06 15 17 18 21 23 26 29
   1283437.78149   1000079.29847         0.00041  20537346.95347  20537345.85349
  -5346471.22649  -4166079.39546         0.00041  21089624.19346  21089622.41849
  -3357601.83449  -2616312.26646         0.00041  20877457.01746  20877455.27749
  -8545247.47849  -6658630.98046         0.00041  21057933.30246  21057933.70649
  -7101462.56148  -5533600.01745         0.00041  23534837.67945  23534833.40848
   4717512.07249   3675981.69546         0.00041  21576715.22046  21576714.08049
  -4324618.44748  -3369830.82146         0.00041  21809607.76046  21809606.70848
  -1221830.86448   -952074.90646         0.00041  22580421.43446  22580420.70548
 02 07 10 16 11 00.0000000  0  8 06 15 17 18 21 23 26 29
   1322409.63249   1030446.95047         0.00041  20544762.96847  20544761.83649
  -5383755.79049  -4195132.29546         0.00041  21082530.05746  21082528.24649
  -3378623.91649  -2632693.11146         0.00041  20873457.09146  20873455.28249
  -8599429.06649  -6700850.37146         0.00041  21047623.03846  21047622.70649
  -7180714.66748  -5595354.85445         0.00041  23519756.87745  23519752.51648
   4779719.73349   3724455.16946         0.00041  21588552.63646  21588551.61449
  -4329469.22148  -3373610.63346         0.00041  21808684.28346  21808682.78448
  -1206947.90648   -940477.79346         0.00041  22583253.52446  22583252.34748
 02 07 10 16 11 30.0000000  0  8 06 15 17 18 21 23 26 29
   1361884.13049   1061206.27247         0.00041  20552274.41847  20552273.84849
  -5420850.12149  -4224036.95846         0.00041  21075470.45146  21075469.10549
  -3399478.19349  -2648943.19346         0.00041  20869488.30946  20869486.81149
  -8653174.52949  -6742729.92346         0.00041  21037395.36046  21037394.89749
  -7259716.29348  -5656914.47845         0.00041  23504721.80245  23504718.27948
   4842209.66949   3773148.59646         0.00041  21600444.00146  21600442.99649
  -4333664.69348  -3376879.83246         0.00041  21807886.01646  21807884.01948
  -1191507.14848   -928446.04246         0.00041  22586191.73346  22586190.62548
 02 07 10 16 12 00.0000000  0  8 06 15 17 18 21 23 26 29
   1401816.83249   1092322.63546         0.00041  20559873.62546  20559872.69249
  -5457798.18349  -4252827.64446         0.00041  21068439.21146  21068438.07649
  -3420208.23349  -2665096.47346         0.00041  20865543.60646  20865541.56949
  -8706527.64349  -6784303.74946         0.00041  21027242.31746  21027241.98149
  -7338510.91948  -5718312.82645         0.00041  23489729.10645  23489723.92648
   4904935.21149   3822025.61346         0.00041  21612380.73546  21612379.64549
  -4337248.49748  -3379672.40846         0.00041  21807203.95446  21807202.68748
  -1175552.95548   -916014.20246         0.00041  22589228.54546  22589226.94448
 02 07 10 16 12 30.0000000  0  8 06 15 17 18 21 23 26 29
   1442277.28349   1123850.22746         0.00041  20567572.88946  20567571.93449
  -5494530.13249  -4281449.93646         0.00041  21061449.62146  21061448.07649
  -3440744.26849  -2681098.58246         0.00041  20861635.86846  20861634.50749
  -8759418.16249  -6825517.10946         0.00041  21017177.84946  21017177.75249
  -7417028.05348  -5779494.94245         0.00041  23474785.73045  23474782.00848
   4967964.06249   3871138.97246         0.00041  21624374.76346  21624373.61349
  -4340149.98848  -3381933.30046         0.00041  21806652.40546  21806651.02548
  -1159015.96548   -903128.23746         0.00041  22592375.63346  22592373.83248
 02 07 10 16 13 00.0000000  0  8 06 15 17 18 21 23 26 29
   1483251.36249   1155778.05346         0.00041  20575370.10946  20575368.96549
  -5531059.58249  -4309914.44046         0.00041  21054498.31446  21054496.72749
  -3461099.68149  -2696959.94546         0.00041  20857762.26346  20857760.69949
  -8811859.16349  -6866380.19946         0.00041  21007198.85346  21007198.57449
  -7495280.09448  -5840470.50445         0.00041  23459895.60245  23459891.11348
   5031280.15549   3920476.16246         0.00041  21636423.55446  21636421.89849
  -4342382.29348  -3383672.74446         0.00041  21806226.89246  21806225.85448
  -1141909.80348   -889798.77846         0.00041  22595631.92046  22595629.17648
 02 07 10 16 13 30.0000000  0  8 06 15 17 18 21 23 26 29
   1524698.49249   1188074.48946         0.00041  20583257.08446  20583256.31049
  -5567426.27349  -4338252.11646         0.00041  21047578.09346  21047576.55349
  -3481314.53949  -2712711.78146         0.00041  20853915.08646  20853913.50849
  -8863890.29949  -6906923.91646         0.00041  20997297.37346  20997297.43149
  -7573306.51548  -5901270.25145         0.00041  23445048.64545  23445043.54148
   5094841.16749   3970004.19646         0.00041  21648518.75446  21648517.05849
  -4343985.03148  -3384921.62046         0.00041  21805921.76746  21805920.04648
  -1124275.16648   -876057.52346         0.00041  22598986.25746  22598984.15948
 02 07 10 16 14 00.0000000  0  8 06 15 17 18 21 23 26 29
   1566603.85649   1220727.98946         0.00041  20591231.58946  20591230.51949
  -5603644.44249  -4366474.06746         0.00041  21040685.58146  21040684.12249
  -3501403.01449  -2728365.14246         0.00041  20850093.02446  20850091.25449
  -8915525.40949  -6947159.04146         0.00041  20987471.47046  20987471.33549
  -7651121.08548  -5961904.91545         0.00041  23430240.84145  23430235.63948
   5158630.66249   4019710.27246         0.00041  21660657.79546  21660656.33749
  -4344972.06248  -3385690.73746         0.00041  21805733.98046  21805732.81748
  -1106126.55948   -861915.77246         0.00041  22602438.36246  22602438.50348
 02 07 10 16 14 30.0000000  0  8 06 15 17 18 21 23 26 29
   1609002.36249   1253765.75747         0.00041  20599300.08547  20599298.76749
  -5639678.35349  -4394552.42746         0.00041  21033828.60346  21033827.66949
  -3521329.55449  -2743892.32346         0.00041  20846301.17246  20846299.42249
  -8966728.98649  -6987057.90446         0.00041  20977728.00346  20977727.57549
  -7728687.59448  -6022346.29645         0.00041  23415479.58145  23415475.57948
   5222681.65949   4069620.11446         0.00041  21672846.19746  21672844.22649
  -4345307.53848  -3385952.15646         0.00041  21805669.66846  21805668.93548
  -1087429.06848   -847346.32846         0.00041  22605998.17146  22605996.97048
 02 07 10 16 15 00.0000000  0  8 06 15 17 18 21 23 26 29
   1651876.63549   1287174.25246         0.00041  20607458.74146  20607457.80349
  -5675544.65549  -4422500.19446         0.00041  21027004.07946  21027002.22149
  -3541110.55149  -2759306.08846         0.00041  20842536.11046  20842535.22849
  -9017516.97549  -7026632.93046         0.00041  20968062.91446  20968062.60749
  -7806021.85048  -6082606.67845         0.00041  23400762.24945  23400758.14548
   5286975.10649   4119718.87546         0.00041  21685080.88046  21685079.21249
  -4345007.78448  -3385718.59246         0.00041  21805726.38946  21805725.71548
  -1068199.86248   -832362.53646         0.00041  22609656.73346  22609656.49848
 02 07 10 16 15 30.0000000  0  8 06 15 17 18 21 23 26 29
   1695211.66549   1320941.78146         0.00041  20615704.76746  20615704.00249
  -5711257.79949  -4450328.61446         0.00041  21020208.06046  21020206.29649
  -3560760.52649  -2774617.75946         0.00041  20838797.31146  20838796.22049
  -9067903.86449  -7065895.41946         0.00041  20958475.05646  20958474.68849
  -7883137.90148  -6142697.03245         0.00041  23386088.65145  23386082.48248
   5351494.35349   4169993.59046         0.00041  21697358.39346  21697356.86649
  -4344086.78248  -3385000.92646         0.00041  21805902.20146  21805901.13448
  -1048453.76948   -816975.98946         0.00041  22613414.72146  22613413.81848
 02 07 10 16 16 00.0000000  0  8 06 15 17 18 21 23 26 29
   1739038.28449   1355092.36646         0.00041  20624044.84446  20624043.88049
  -5746786.09349  -4478012.99446         0.00041  21013446.31546  21013445.31349
  -3580247.71849  -2789802.58846         0.00041  20835088.70546  20835087.76849
  -9117857.72249  -7104820.47446         0.00041  20948969.13246  20948968.74949
  -7960003.04848  -6202591.89745         0.00041  23371460.41945  23371456.60248
   5416268.55049   4220466.96346         0.00041  21709685.22746  21709683.19949
  -4342512.78048  -3383774.44146         0.00041  21806202.16046  21806200.96148
  -1028159.73348   -801162.46746         0.00041  22617276.62146  22617274.57748
 02 07 10 16 16 30.0000000  0  8 06 15 17 18 21 23 26 29
   1783371.17149   1389637.45546         0.00041  20632481.53346  20632480.25449
  -5782114.23549  -4505541.40946         0.00041  21006724.17646  21006723.01049
  -3599556.76349  -2804848.59746         0.00041  20831414.62146  20831413.37149
  -9167363.08949  -7143396.06246         0.00041  20939548.63446  20939548.30149
  -8036601.57348  -6262278.98045         0.00041  23356884.46145  23356881.17048
   5481310.59449   4271149.04746         0.00041  21722062.11046  21722060.49549
  -4340270.19948  -3382026.96946         0.00041  21806628.15046  21806627.34948
  -1007303.26848   -784910.67546         0.00041  22621245.18046  22621243.49848
 02 07 10 16 17 00.0000000  0  8 06 15 17 18 21 23 26 29
   1828166.83349   1424543.13046         0.00041  20641005.52546  20641004.43049
  -5817284.86549  -4532947.09746         0.00041  21000030.61146  21000029.95749
  -3618730.40749  -2819789.10446         0.00041  20827766.04946  20827764.85649
  -9216462.39849  -7181655.24046         0.00041  20930205.05146  20930204.70949
  -8112975.35648  -6321790.96345         0.00041  23342351.69145  23342347.71648
   5546575.48649   4322004.77546         0.00041  21734481.11246  21734479.56949
  -4337401.67148  -3379791.75546         0.00041  21807174.62246  21807173.06748
   -985927.42148   -768254.17246         0.00041  22625312.14546  22625311.73748
 02 07 10 16 17 30.0000000  0  8 06 15 17 18 21 23 26 29
   1873452.50849   1459830.63046         0.00041  20649623.23146  20649622.15249
  -5852269.97149  -4560208.20946         0.00041  20993373.52946  20993372.55149
  -3637740.49849  -2834602.16546         0.00041  20824148.70046  20824146.82149
  -9265127.23649  -7219575.86746         0.00041  20920944.11046  20920944.36349
  -8189096.08948  -6381105.72145         0.00041  23327867.32645  23327862.23848
   5612088.84749   4373054.11746         0.00041  21746947.31446  21746946.60549
  -4333878.97948  -3377046.79746         0.00041  21807845.09146  21807843.17048
   -964005.07148   -751171.83446         0.00041  22629484.69246  22629483.73648
 02 07 10 16 18 00.0000000  0  8 06 15 17 18 21 23 26 29
   1919241.02049   1495509.95346         0.00041  20658336.82146  20658335.64449
  -5887055.85149  -4587314.08746         0.00041  20986754.53246  20986753.08949
  -3656573.29649  -2849277.07546         0.00041  20820564.70546  20820563.28149
  -9313344.21349  -7257147.51246         0.00041  20911769.15746  20911768.87349
  -8264949.88548  -6440212.50845         0.00041  23313432.00445  23313427.45548
   5677861.79149   4424305.72946         0.00041  21759463.60746  21759462.71149
  -4329688.40048  -3373781.40646         0.00041  21808642.56946  21808640.70848
   -941523.06748   -733653.39746         0.00041  22633762.86746  22633762.00248
 02 07 10 16 18 30.0000000  0  8 06 15 17 18 21 23 26 29
   1965502.79449   1531558.05446         0.00041  20667139.95046  20667138.91249
  -5921671.11849  -4614287.02146         0.00041  20980167.64846  20980166.20749
  -3675257.57549  -2863836.25246         0.00041  20817009.33146  20817007.35149
  -9361141.73749  -7294392.31146         0.00041  20902673.45146  20902673.39749
  -8340564.81748  -6499133.18945         0.00041  23299041.99545  23299038.80848
   5743863.26049   4475735.41546         0.00041  21772023.59446  21772022.63649
  -4324858.56648  -3370017.89346         0.00041  21809560.70746  21809560.33548
   -918511.04948   -715721.97846         0.00041  22638142.32546  22638140.69848
 02 07 10 16 19 00.0000000  0  8 06 15 17 18 21 23 26 29
   2012236.69649   1567974.05046         0.00041  20676032.87346  20676032.06749
  -5956116.11049  -4641127.27046         0.00041  20973612.62246  20973611.13849
  -3693793.62849  -2878279.93146         0.00041  20813481.70646  20813479.94949
  -9408520.07949  -7331310.47546         0.00041  20893657.77046  20893657.19249
  -8415940.34148  -6557867.29145         0.00041  23284697.41145  23284695.07348
   5810090.39849   4527340.95046         0.00041  21784626.25746  21784625.29549
  -4319390.02248  -3365756.70346         0.00041  21810601.43146  21810600.88948
   -894970.15248   -697378.43846         0.00041  22642621.42246  22642620.37948
 02 07 10 16 19 30.0000000  0  8 06 15 17 18 21 23 26 29
   2059444.63549   1604759.43146         0.00041  20685016.29746  20685015.45649
  -5990388.11949  -4667832.72546         0.00041  20967091.30046  20967089.36349
  -3712178.61149  -2892605.88846         0.00041  20809983.58146  20809982.00649
  -9455476.46749  -7367899.84046         0.00041  20884722.29446  20884721.97649
  -8491073.52748  -6616412.56245         0.00041  23270399.78145  23270397.07048
   5876543.38649   4579122.47146         0.00041  21797271.83346  21797270.77249
  -4313279.87648  -3360995.56346         0.00041  21811764.30446  21811763.87548
   -870898.27848   -678621.15446         0.00041  22647202.64046  22647201.02848
 02 07 10 16 20 00.0000000  0  8 06 15 17 18 21 23 26 29
   2107137.08549   1641922.34446         0.00041  20694092.04946  20694090.86149
  -6024475.74749  -4694394.51346         0.00041  20960604.32746  20960602.83549
  -3730401.29449  -2906805.38246         0.00041  20806516.00146  20806514.27149
  -9501999.40249  -7404151.45746         0.00041  20875869.46246  20875869.01849
  -8565952.49948  -6674759.76045         0.00041  23256151.56245  23256148.37848
   5943231.24249   4631087.01546         0.00041  21809962.56546  21809961.04049
  -4306516.92248  -3355725.74946         0.00041  21813051.26646  21813050.62348
   -846285.14648   -659442.09346         0.00041  22651886.06546  22651884.54548
 02 07 10 16 20 30.0000000  0  8 06 15 17 18 21 23 26 29
   2155306.89749   1679457.22746         0.00041  20703258.91046  20703257.35649
  -6058385.08349  -4720817.36846         0.00041  20954151.52146  20954149.79149
  -3748467.68449  -2920883.08946         0.00041  20803077.89346  20803076.51049
  -9548095.20349  -7440070.23846         0.00041  20867097.39646  20867097.07649
  -8640583.07148  -6732913.38745         0.00041  23241949.54345  23241945.66248
   6010145.39049   4683227.89246         0.00041  21822696.32246  21822694.60249
  -4299107.52048  -3349952.20046         0.00041  21814460.96746  21814460.48748
   -821137.75948   -639846.73746         0.00041  22656671.01446  22656669.67548
 02 07 10 16 21 00.0000000  0  8 06 15 17 18 21 23 26 29
   2203963.89849   1717371.73946         0.00041  20712517.66646  20712516.53649
  -6092105.30549  -4747092.85646         0.00041  20947734.95346  20947733.21549
  -3766366.75249  -2934830.41346         0.00041  20799671.93146  20799670.51149
  -9593753.10949  -7475647.80646         0.00041  20858409.24946  20858408.92049
  -8714954.03048  -6790864.72545         0.00041  23227798.70945  23227793.33748
   6077294.15349   4735551.57946         0.00041  21835473.94446  21835472.09049
  -4291040.84448  -3343666.47346         0.00041  21815995.54846  21815995.53548
   -795445.92948   -619827.15046         0.00041  22661560.37346  22661558.65748
 02 07 10 16 21 30.0000000  0  8 06 15 17 18 21 23 26 29
   2253098.27949   1755658.23646         0.00041  20721867.69146  20721866.51549
  -6125645.32149  -4773227.93446         0.00041  20941352.84846  20941350.79349
  -3784107.51949  -2948654.38446         0.00041  20796295.97546  20796294.39649
  -9638981.69849  -7510890.84046         0.00041  20849802.53946  20849802.30249
  -8789073.76448  -6848620.28445         0.00041  23213693.25045  23213688.57748
   6144666.31749   4788049.34546         0.00041  21848294.87846  21848293.19449
  -4282325.93248  -3336875.63846         0.00041  21817655.55746  21817654.21548
   -769219.45248   -599390.94946         0.00041  22666550.51446  22666549.69748
 02 07 10 16 22 00.0000000  0  8 06 15 17 18 21 23 26 29
   2302710.97449   1794317.44246         0.00041  20731308.88846  20731307.51849
  -6159002.91949  -4799220.86046         0.00041  20935004.55346  20935003.21849
  -3801687.89949  -2962353.38346         0.00041  20792950.54946  20792949.14949
  -9683778.98649  -7545797.79446         0.00041  20841277.57946  20841277.39249
  -8862939.51448  -6906177.93645         0.00041  23199636.25545  23199632.73048
   6212261.62649   4840720.98746         0.00041  21861157.46746  21861155.97049
  -4272961.00748  -3329578.29346         0.00041  21819437.10146  21819435.84148
   -742457.17248   -578537.23946         0.00041  22671644.91346  22671642.23548
 02 07 10 16 22 30.0000000  0  8 06 15 17 18 21 23 26 29
   2352801.73249   1833349.16546         0.00041  20740840.86346  20740839.43049
  -6192177.45949  -4825071.14446         0.00041  20928691.96946  20928690.02149
  -3819106.94249  -2975926.66446         0.00041  20789636.03846  20789634.39949
  -9728144.48749  -7580368.29446         0.00041  20832835.31146  20832835.02549
  -8936550.51448  -6963537.09645         0.00041  23185629.62845  23185625.72848
   6280078.25949   4893565.08946         0.00041  21874062.64946  21874061.16949
  -4262945.54648  -3321774.03446         0.00041  21821342.54146  21821342.00748
   -715159.52248   -557266.35946         0.00041  22676839.06946  22676836.35848
 02 07 10 16 23 00.0000000  0  8 06 15 17 18 21 23 26 29
   2403354.93149   1872741.22846         0.00041  20750460.65146  20750459.80549
  -6225183.58749  -4850790.20446         0.00041  20922410.98046  20922408.90549
  -3836379.36349  -2989385.69646         0.00041  20786348.68146  20786347.35949
  -9772092.93949  -7614613.81246         0.00041  20824471.66446  20824471.81349
  -9009921.10548  -7020708.92045         0.00041  23171667.21645  23171663.12148
   6348099.05449   4946568.27746         0.00041  21887006.66846  21887004.81349
  -4252294.58648  -3313474.59046         0.00041  21823368.65046  21823368.63848
   -687342.16748   -535590.51046         0.00041  22682132.05646  22682130.29648
 02 07 10 16 23 30.0000000  0  8 06 15 17 18 21 23 26 29
   2454363.42249   1912488.06646         0.00041  20760167.18246  20760166.27749
  -6258027.27749  -4876382.68146         0.00041  20916161.02446  20916159.05949
  -3853511.14549  -3002735.13846         0.00041  20783088.82746  20783087.18849
  -9815630.52749  -7648539.18346         0.00041  20816186.85246  20816186.94349
  -9083057.16548  -7077698.00745         0.00041  23157750.25845  23157745.78348
   6416315.49048   4999723.91546         0.00041  21899987.64146  21899985.55348
  -4241014.47848  -3304684.89046         0.00041  21825515.95546  21825515.39648
   -659011.98048   -513515.06846         0.00041  22687524.18646  22687520.93448
 02 07 10 16 24 00.0000000  0  8 06 15 17 18 21 23 26 29
   2505900.68449   1952646.93846         0.00041  20769974.54646  20769973.58649
  -6290634.08949  -4901790.57246         0.00041  20909956.18646  20909954.51249
  -3870427.54549  -3015916.75346         0.00041  20779869.77846  20779868.32249
  -9858682.83049  -7682086.41346         0.00041  20807994.19846  20807994.28049
  -9155883.43448  -7134445.67145         0.00041  23143891.37445  23143888.36448
   6484799.60149   5053088.12146         0.00041  21913019.84446  21913018.09649
  -4229030.97748  -3295347.09846         0.00041  21827796.38146  21827795.90248
   -630095.36148   -490982.65246         0.00041  22693026.42446  22693023.69948
 02 07 10 16 24 30.0000000  0  8 06 15 17 18 21 23 26 29
   2557906.23049   1993170.70546         0.00041  20779871.21046  20779870.09449
  -6323063.22849  -4927060.02046         0.00041  20903785.12246  20903783.83049
  -3887187.95749  -3028976.82546         0.00041  20776680.30246  20776678.76949
  -9901309.02349  -7715301.61146         0.00041  20799882.52946  20799882.81849
  -9228458.76748  -7190997.81045         0.00041  23130081.16145  23130078.42048
   6553489.86349   5106612.96446         0.00041  21926091.04646  21926089.79949
  -4216403.67248  -3285507.64846         0.00041  21830199.45946  21830198.28348
   -600652.78248   -468040.42046         0.00041  22698628.23346  22698627.10948
 02 07 10 16 25 00.0000000  0  8 06 15 17 18 21 23 26 29
   2610334.72649   2034024.03746         0.00041  20789847.58446  20789846.52549
  -6355358.91249  -4952225.47646         0.00041  20897639.20246  20897637.36749
  -3903836.68649  -3041949.86546         0.00041  20773511.94046  20773510.90749
  -9943553.51649  -7748219.37846         0.00041  20791844.07346  20791844.20449
  -9300827.37048  -7247388.87145         0.00041  23116309.38645  23116306.76148
   6622339.44849   5160261.96246         0.00041  21939192.46646  21939191.39649
  -4203177.40148  -3275201.45246         0.00041  21832716.64046  21832715.64348
   -570729.88448   -444723.89046         0.00041  22704322.81646  22704320.63448
 02 07 10 16 25 30.0000000  0  8 06 15 17 18 21 23 26 29
   2663243.04249   2075251.25746         0.00041  20799916.00946  20799914.60749
  -6387463.04449  -4977241.67846         0.00041  20891530.07446  20891528.54049
  -3920315.40449  -3054790.43346         0.00041  20770376.35246  20770374.93649
  -9985358.44249  -7780794.62446         0.00041  20783888.47446  20783888.50049
  -9372930.56448  -7303573.12645         0.00041  23102588.55145  23102585.45048
   6691404.05749   5214078.50446         0.00041  21952335.22746  21952334.03449
  -4189294.48448  -3264383.59146         0.00041  21835358.66146  21835357.75548
   -540269.47748   -420988.52046         0.00041  22710120.16246  22710117.11448
 02 07 10 16 26 00.0000000  0  8 06 15 17 18 21 23 26 29
   2716627.65749   2116849.61846         0.00041  20810074.69346  20810073.28649
  -6419377.95149  -5002110.42246         0.00041  20885456.91446  20885455.63349
  -3936626.42049  -3067500.31946         0.00041  20767272.55546  20767270.90149
 -10026726.57349  -7813029.51246         0.00041  20776016.63546  20776016.73549
  -9444770.32848  -7359552.10545         0.00041  23088917.54745  23088915.36248
   6760678.86249   5268058.83646         0.00041  21965517.95346  21965516.70549
  -4174757.82948  -3253056.33046         0.00041  21838123.95446  21838123.34248
   -509275.00448   -396837.00846         0.00041  22716017.59546  22716015.15148
 02 07 10 16 26 30.0000000  0  8 06 15 17 18 21 23 26 29
   2770481.88349   2158813.92146         0.00041  20820322.85446  20820321.47349
  -6451109.21849  -5026836.07946         0.00041  20879418.83446  20879417.03849
  -3952775.28749  -3080083.85346         0.00041  20764199.18846  20764198.01449
 -10067663.49849  -7844928.40046         0.00041  20768227.04246  20768226.80049
  -9516352.26948  -7415330.19545         0.00041  23075295.80745  23075293.73648
   6830155.81649   5322196.69146         0.00041  21978738.83846  21978737.20449
  -4159573.49548  -3241224.36646         0.00041  21841014.37046  21841013.27248
   -477753.32848   -372274.67946         0.00041  22722015.95246  22722013.14148
 02 07 10 16 27 00.0000000  0  8 06 15 17 18 21 23 26 29
   2824804.29249   2201143.03946         0.00041  20830660.36546  20830658.81649
  -6482656.67649  -5051418.50346         0.00041  20873415.24746  20873413.62049
  -3968762.03949  -3092541.05446         0.00041  20761157.60146  20761155.99949
 -10108169.69549  -7876491.65446         0.00041  20760518.56246  20760518.74349
  -9587676.48848  -7470907.44845         0.00041  23061723.03245  23061720.48048
   6899832.09949   5376489.87046         0.00041  21991998.21146  21991996.49949
  -4143742.24148  -3228888.33346         0.00041  21844027.13046  21844025.92648
   -445705.75548   -347302.57346         0.00041  22728114.27346  22728112.26448
 02 07 10 16 27 30.0000000  0  7 06 15 17 18 21 23 26
   2879591.05849   2243833.99146         0.00041  20841086.09246  20841084.46949
  -6514022.64049  -5075859.50246         0.00041  20867446.48646  20867444.67849
  -3984588.95849  -3104873.71446         0.00041  20758145.69746  20758144.07249
 -10148247.80649  -7907721.33046         0.00041  20752892.21546  20752891.72149
  -9658745.06748  -7526285.49245         0.00041  23048200.49845  23048196.87648
   6969703.06549   5430934.75746         0.00041  22005293.89046  22005292.35549
  -4127267.09248  -3216050.54446         0.00041  21847162.58146  21847160.20848
 02 07 10 16 28 00.0000000  0  7 06 15 17 18 21 23 26
   2934851.08849   2286893.71646         0.00041  20851601.44946  20851599.96349
  -6545197.22549  -5100151.37546         0.00041  20861514.16646  20861512.57349
  -4000245.88249  -3117073.91246         0.00041  20755166.38046  20755164.70549
 -10187887.90349  -7938609.70046         0.00041  20745348.70746  20745348.42449
  -9729547.18248  -7581455.92245         0.00041  23034726.23245  23034723.03448
   7039776.45849   5485537.38346         0.00041  22018628.77046  22018626.92149
  -4110138.49448  -3202703.60546         0.00041  21850421.67246  21850419.96848
 02 07 10 16 28 30.0000000  0  7 06 15 17 18 21 23 26
   2990578.56549   2330317.68546         0.00041  20862206.10746  20862204.58349
  -6576184.90449  -5124297.60946         0.00041  20855617.54246  20855615.99249
  -4015737.42249  -3129145.24346         0.00041  20752217.97346  20752216.61349
 -10227095.05849  -7969160.71546         0.00041  20737887.81846  20737887.90249
  -9800087.54848  -7636422.39545         0.00041  23021302.94845  23021299.06748
   7110045.30149   5540292.30346         0.00041  22032000.60846  22031999.12249
  -4092361.71548  -3188851.58046         0.00041  21853804.15546  21853802.75548
 02 07 10 16 29 00.0000000  0  7 06 15 17 18 21 23 26
   3046775.76749   2374107.67546         0.00041  20872899.68746  20872898.86549
  -6606982.12649  -5148295.43646         0.00041  20849756.92046  20849755.34349
  -4031059.88549  -3141084.82546         0.00041  20749302.31746  20749301.01449
 -10265865.70449  -7999371.58346         0.00041  20730510.01546  20730509.66549
  -9870362.35748  -7691181.92445         0.00041  23007930.27445  23007925.89348
   7180510.70349   5595200.38046         0.00041  22045409.30046  22045408.15349
  -4073933.99248  -3174492.32346         0.00041  21857310.83146  21857309.36948
 02 07 10 16 29 30.0000000  0  7 06 15 17 18 21 23 26
   3103432.27149   2418255.56846         0.00041  20883681.45046  20883680.26649
  -6637597.74149  -5172151.74846         0.00041  20843930.57846  20843929.52949
  -4046222.15649  -3152899.58746         0.00041  20746417.36046  20746415.80849
 -10304209.30349  -8029249.69746         0.00041  20723213.28046  20723213.39549
  -9940380.25248  -7745741.25846         0.00041  22994607.14746  22994601.81648
   7251161.12349   5650252.62346         0.00041  22058854.42946  22058852.84549
  -4054865.13748  -3159633.47746         0.00041  21860939.43746  21860937.94648
 02 07 10 16 30 00.0000000  0  7 06 15 17 18 21 23 26
   3160548.99549   2462762.07246         0.00041  20894550.63046  20894548.93149
  -6668029.79249  -5195865.02646         0.00041  20838140.01446  20838138.57149
  -4061221.93449  -3164587.73046         0.00041  20743562.40446  20743561.19949
 -10342124.08349  -8058793.66746         0.00041  20715998.47946  20715997.90249
 -10010139.05948  -7800098.71446         0.00041  22981332.24946  22981327.50148
   7321996.14249   5705448.71346         0.00041  22072333.06546  22072332.02149
  -4035153.54548  -3144273.79046         0.00041  21864690.24546  21864689.38548
 02 07 10 16 30 30.0000000  0  7 06 15 17 18 21 23 26
   3218130.53149   2507630.75546         0.00041  20905507.86046  20905506.77849
  -6698272.02249  -5219430.39746         0.00041  20832385.26646  20832383.33249
  -4076053.15349  -3176144.52546         0.00041  20740740.22646  20740739.03449
 -10379604.35149  -8087999.05746         0.00041  20708866.11446  20708866.18349
 -10079633.09348  -7854249.86146         0.00041  22968106.57846  22968103.01648
   7393019.35349   5760791.43646         0.00041  22085848.40646  22085847.22649
  -4014793.99848  -3128409.21346         0.00041  21868565.14446  21868563.74348
 02 07 10 16 31 00.0000000  0  7 06 15 17 18 21 23 26
   3276197.71149   2552877.86546         0.00041  20916558.04346  20916556.63549
  -6728302.06149  -5242830.41946         0.00041  20826670.30046  20826668.84049
  -4090693.52649  -3187552.60446         0.00041  20737954.46046  20737953.00849
 -10416628.37649  -8116848.93846         0.00041  20701820.67746  20701820.56349
 -10148839.43348  -7908176.80845         0.00041  22954937.84445  22954933.59448
   7464250.75449   5816296.37846         0.00041  22099403.29046  22099402.01449
  -3993765.16548  -3112023.11246         0.00041  21872566.85846  21872565.17548
 02 07 10 16 31 30.0000000  0  7 06 15 17 18 21 23 26
   3334754.02249   2598506.11646         0.00041  20927700.79346  20927699.02749
  -6758115.11849  -5266061.36546         0.00041  20820997.04346  20820995.85249
  -4105138.10149  -3198808.11546         0.00041  20735205.76646  20735204.40549
 -10453191.73149  -8145339.84746         0.00041  20694862.83246  20694862.66349
 -10217752.90548  -7961875.53245         0.00041  22941823.04345  22941819.89848
   7535692.58648   5871965.30446         0.00041  22112997.62346  22112996.65048
  -3972063.25648  -3095112.54146         0.00041  21876696.04446  21876694.78748
 02 07 10 16 32 00.0000000  0  7 06 15 17 18 21 23 26
   3393709.28449   2644445.24146         0.00041  20938919.71746  20938918.29949
  -6787799.77949  -5289192.26146         0.00041  20815348.42746  20815346.92949
  -4119475.48049  -3209980.09346         0.00041  20732477.68346  20732476.23649
 -10489383.17949  -8173540.96346         0.00041  20687975.90746  20687975.72549
 -10286462.20148  -8015415.18946         0.00041  22928749.64646  22928745.83048
   7607253.61848   5927727.11946         0.00041  22126615.83546  22126614.07548
  -3949777.62448  -3077747.11946         0.00041  21880936.69446  21880935.44648
 02 07 10 16 32 30.0000000  0  7 06 15 17 18 21 23 26
   3453108.15249   2690730.03446         0.00041  20950223.00146  20950221.40649
  -6817309.88249  -5312187.14246         0.00041  20809732.46746  20809730.98349
  -4133659.34949  -3221032.45746         0.00041  20729778.59046  20729776.94649
 -10525157.25549  -8201416.85246         0.00041  20681168.00946  20681168.27349
 -10354921.08148  -8068759.73646         0.00041  22915722.16446  22915719.16648
   7678977.67748   5983615.97146         0.00041  22140264.85946  22140262.84848
  -3926863.18348  -3059891.73046         0.00041  21885297.76046  21885295.93148
 02 07 10 16 33 00.0000000  0  7 06 15 17 18 21 23 26
   3512969.19349   2737374.95946         0.00041  20961614.01946  20961612.64849
  -6846625.48049  -5335030.45846         0.00041  20804153.93746  20804152.67349
  -4147669.60349  -3231949.54346         0.00041  20727112.35146  20727110.83649
 -10560494.26649  -8228952.17846         0.00041  20674443.45246  20674443.82149
 -10423109.36348  -8121893.41746         0.00041  22902745.63946  22902742.11748
   7750882.55948   6039645.72446         0.00041  22153948.07046  22153945.56748
  -3903300.77048  -3041531.41146         0.00041  21889781.21046  21889779.88748
 02 07 10 16 33 30.0000000  0  7 06 15 17 18 21 23 26
   3573282.56149   2784372.35046         0.00041  20973091.73846  20973090.10449
  -6875754.73949  -5357728.57346         0.00041  20798610.76546  20798609.57749
  -4161514.49849  -3242737.77346         0.00041  20724477.63246  20724476.27749
 -10595403.24649  -8256153.97246         0.00041  20667800.88646  20667801.32149
 -10491035.24548  -8174822.60746         0.00041  22889819.89346  22889816.53248
   7822957.29748   6095807.83146         0.00041  22167663.70046  22167661.48948
  -3879099.90948  -3022673.60546         0.00041  21894386.91446  21894384.75848
 02 07 10 16 34 00.0000000  0  7 06 15 17 18 21 23 26
   3634057.02249   2831729.03546         0.00041  20984656.45246  20984654.98149
  -6904687.03749  -5380273.21346         0.00041  20793105.49946  20793104.19549
  -4175183.51149  -3253388.95646         0.00041  20721876.45846  20721875.14949
 -10629874.37049  -8283014.57646         0.00041  20661240.92246  20661241.42449
 -10558688.65748  -8227539.49446         0.00041  22876946.13646  22876942.21048
   7895209.95049   6152108.57246         0.00041  22181412.94646  22181411.08249
  -3854251.18848  -3003310.97046         0.00041  21899115.67446  21899113.40148
 02 07 10 16 34 30.0000000  0  7 06 15 17 18 21 23 26
   3695290.99249   2879443.77646         0.00041  20996308.71246  20996307.54449
  -6933422.57549  -5402664.53646         0.00041  20787637.40846  20787635.86049
  -4188676.85149  -3263903.24646         0.00041  20719308.85646  20719307.59849
 -10663907.96449  -8309534.24646         0.00041  20654764.72146  20654765.05449
 -10626069.45148  -8280043.95946         0.00041  22864124.39046  22864120.79348
   7967637.91349   6208545.91046         0.00041  22195195.74946  22195193.69749
  -3828755.83948  -2983444.49046         0.00041  21903967.64646  21903965.34548
 02 07 10 16 35 00.0000000  0  7 06 15 17 18 21 23 26
   3756968.99449   2927504.51046         0.00041  21008045.74946  21008044.67849
  -6961975.40349  -5424913.48846         0.00041  20782204.18246  20782202.56149
  -4202008.32149  -3274291.41546         0.00041  20716772.06146  20716770.49649
 -10697518.75749  -8335724.45346         0.00041  20648369.02846  20648369.10149
 -10693191.76748  -8332347.01446         0.00041  22851350.84446  22851347.67948
   8040224.75548   6265107.05146         0.00041  22209007.80646  22209006.31648
  -3802628.92348  -2963085.85646         0.00041  21908939.29646  21908936.94448
 02 07 10 16 35 30.0000000  0  7 06 15 17 18 21 23 26
   3819095.91449   2975915.05746         0.00041  21019868.23946  21019866.84049
  -6990338.78849  -5447014.82646         0.00041  20776806.91146  20776805.07249
  -4215171.08349  -3284548.11546         0.00041  20714267.11646  20714265.66649
 -10730700.46649  -8361580.32246         0.00041  20642054.33746  20642054.66849
 -10760049.25948  -8384443.71946         0.00041  22838626.36546  22838624.79848
   8112974.59348   6321795.19446         0.00041  22222851.82746  22222849.99348
  -3775865.07748  -2942230.92446         0.00041  21914032.27946  21914030.49448
 02 07 10 16 36 00.0000000  0  7 06 15 17 18 21 23 26
   3881677.24649   3024679.69446         0.00041  21031776.69046  21031775.68149
  -7018505.70249  -5468963.06846         0.00041  20771446.37146  20771445.34849
  -4228158.07549  -3294667.84746         0.00041  20711795.87246  20711794.60949
 -10763446.68549  -8387096.84646         0.00041  20635823.11746  20635823.45849
 -10826634.52648  -8436328.30146         0.00041  22825956.78446  22825954.19348
   8185892.18948   6378614.06746         0.00041  22236727.08346  22236725.37848
  -3748458.29948  -2920874.99346         0.00041  21919246.30846  21919245.18848
 02 07 10 16 36 30.0000000  0  7 06 15 17 18 21 23 26
   3944697.92049   3073786.67446         0.00041  21043769.86246  21043768.35849
  -7046489.35149  -5490768.50846         0.00041  20766121.35546  20766120.07149
  -4240982.53649  -3304660.93246         0.00041  20709355.42546  20709353.87149
 -10795771.59649  -8412285.07446         0.00041  20629671.68846  20629671.92649
 -10892960.50248  -8488010.83446         0.00041  22813335.85946  22813332.05648
   8258961.70348   6435551.31846         0.00041  22250632.51546  22250630.51648
  -3720423.32348  -2899029.55746         0.00041  21924581.97246  21924580.34848
 02 07 10 16 37 00.0000000  0  7 06 15 17 18 21 23 26
   4008174.22349   3123248.68046         0.00041  21055849.24146  21055847.41849
  -7074271.55249  -5512416.97646         0.00041  20760834.72446  20760833.14749
  -4253626.33749  -3314513.23746         0.00041  20706949.65946  20706948.05549
 -10827657.67949  -8437131.35846         0.00041  20623603.98246  20623604.13649
 -10959009.26248  -8539477.35546         0.00041  22800768.32146  22800763.57848
   8332198.78648   6492619.13946         0.00041  22264568.57346  22264566.61248
  -3691743.29148  -2876681.49646         0.00041  21930039.41446  21930037.46748
 02 07 10 16 37 30.0000000  0  7 06 15 17 18 21 23 26
   4072100.40549   3173061.23946         0.00041  21068013.92346  21068012.25549
  -7101856.48949  -5533911.73346         0.00041  20755585.41346  20755583.81349
  -4266093.35549  -3324227.78546         0.00041  20704577.08646  20704575.50549
 -10859109.46049  -8461639.22946         0.00041  20617619.29446  20617619.01749
 -11024785.59748  -8590731.57946         0.00041  22788251.00346  22788246.83848
   8405596.80948   6549812.37546         0.00041  22278536.51046  22278534.14048
  -3662423.55948  -2853834.96146         0.00041  21935619.27846  21935616.21248
 02 07 10 16 38 00.0000000  0  7 06 15 17 18 21 23 26
   4136481.38449   3223228.18646         0.00041  21080265.20846  21080263.60049
  -7129237.41149  -5555247.51846         0.00041  20750375.08646  20750373.87149
  -4278376.76349  -3333799.26646         0.00041  20702239.54446  20702238.27249
 -10890121.26249  -8485804.26446         0.00041  20611717.79246  20611718.29949
 -11090282.56848  -8641768.12146         0.00041  22775785.53546  22775783.15048
   8479160.00348   6607134.30946         0.00041  22292535.51146  22292533.05848
  -3632458.71748  -2830485.75046         0.00041  21941321.42446  21941319.17948
 02 07 10 16 38 30.0000000  0  7 06 15 17 18 21 23 26
   4201286.15249   3273725.36146         0.00041  21092597.20046  21092595.42449
  -7156443.49549  -5576447.06746         0.00041  20745197.83046  20745196.47449
  -4290505.88849  -3343250.53146         0.00041  20699931.42946  20699930.00549
 -10920722.78549  -8509649.59346         0.00041  20605894.45546  20605894.65749
 -11155529.63848  -8692609.95546         0.00041  22763370.25146  22763367.03648
   8552856.64248   6664560.22746         0.00041  22306559.60246  22306557.24648
  -3601879.52048  -2806657.82746         0.00041  21947140.16446  21947138.15548
 02 07 10 16 39 00.0000000  0  7 06 15 17 18 21 23 26
   4266526.09249   3324561.63646         0.00041  21105012.04246  21105010.07549
  -7183461.68749  -5597500.20946         0.00041  20740056.20046  20740054.83349
  -4302467.53849  -3352571.29946         0.00041  20697655.00546  20697653.64749
 -10950901.83649  -8533165.72046         0.00041  20600151.23846  20600151.76949
 -11220513.87448  -8743246.98946         0.00041  22751004.83646  22751000.79748
   8626697.30048   6722098.36946         0.00041  22320611.48646  22320608.86748
  -3570674.37548  -2782342.13846         0.00041  21953078.42846  21953076.92848
 02 07 10 16 39 30.0000000  0  7 06 15 17 18 21 23 26
   4332216.86649   3375749.20746         0.00041  21117512.62446  21117510.87249
  -7210274.48749  -5618393.29846         0.00041  20734954.14146  20734952.65949
  -4314244.27249  -3361747.97946         0.00041  20695414.08346  20695412.94249
 -10980641.75849  -8556339.67146         0.00041  20594492.20246  20594491.85949
 -11285218.22348  -8793665.91846         0.00041  22738689.75046  22738687.20848
   8700697.00348   6779760.44546         0.00041  22334692.47546  22334690.37848
  -3538827.27748  -2757526.23346         0.00041  21959138.37646  21959137.12648
 02 07 10 16 40 00.0000000  0  7 06 15 17 18 21 23 26
   4398356.98649   3427286.91946         0.00041  21130098.85746  21130096.83449
  -7236881.67249  -5639126.16846         0.00041  20729891.30846  20729889.65049
  -4325835.73449  -3370780.29546         0.00041  20693208.61946  20693206.95849
 -11009942.80949  -8579171.64846         0.00041  20588916.36246  20588916.42449
 -11349641.87948  -8843866.13246         0.00041  22726430.62646  22726427.87848
   8774853.60548   6837544.76846         0.00041  22348803.88046  22348801.74948
  -3506339.37748  -2732210.99146         0.00041  21965320.54346  21965319.65548
 02 07 10 16 40 30.0000000  0  7 06 15 17 18 21 23 26
   4464928.43649   3479160.72046         0.00041  21142766.89546  21142764.99949
  -7263299.01349  -5659711.10746         0.00041  20724863.60246  20724862.23649
  -4337257.65749  -3379680.50046         0.00041  20691035.16346  20691033.41949
 -11038821.79449  -8601674.75146         0.00041  20583420.98146  20583421.12549
 -11413801.36848  -8893860.49846         0.00041  22714222.07746  22714218.89648
   8849148.57548   6895436.90946         0.00041  22362941.60246  22362939.59348
  -3473228.19848  -2706410.07946         0.00041  21971621.85646  21971619.98148
 02 07 10 16 41 00.0000000  0  7 06 15 17 18 21 23 26
   4531942.74549   3531379.60946         0.00041  21155519.51746  21155517.51549
  -7289513.12649  -5680137.68446         0.00041  20719875.47546  20719873.96549
  -4348496.65049  -3388438.16046         0.00041  20688896.42046  20688894.85349
 -11067266.24449  -8623839.25046         0.00041  20578008.33546  20578008.72049
 -11477683.76448  -8943638.95246         0.00041  22702066.05346  22702062.79048
   8923592.96248   6953445.48746         0.00041  22377107.58346  22377105.76248
  -3439481.88848  -2680114.24646         0.00041  21978043.70846  21978040.92348
 02 07 10 16 41 30.0000000  0  7 06 15 17 18 21 23 26
   4599393.06849   3583938.25646         0.00041  21168354.63946  21168352.89049
  -7315529.37749  -5700410.08446         0.00041  20714925.02146  20714923.33449
  -4359557.75849  -3397057.20846         0.00041  20686791.33246  20686789.94049
 -11095282.07549  -8645669.75746         0.00041  20572676.87146  20572677.33949
 -11541293.79248  -8993205.17946         0.00041  22689961.40546  22689958.55348
   8998179.15448   7011564.56846         0.00041  22391301.01046  22391298.59848
  -3405107.21848  -2653328.80946         0.00041  21984584.46346  21984582.60448
 02 07 10 16 42 00.0000000  0  7 06 15 17 18 21 23 26
   4667268.77249   3636828.36446         0.00041  21181271.14546  21181269.24349
  -7341356.20349  -5720534.87446         0.00041  20710010.11946  20710008.93149
  -4370449.54449  -3405544.32446         0.00041  20684718.90446  20684717.51849
 -11122878.53649  -8667173.48546         0.00041  20567425.77346  20567425.86849
 -11604640.78948  -9042566.43746         0.00041  22677906.12746  22677903.61948
   9072896.05248   7069785.48746         0.00041  22405518.61446  22405517.12848
  -3370114.35948  -2626061.67446         0.00041  21991244.43346  21991242.24448
 02 07 10 16 42 30.0000000  0  7 06 15 17 18 21 23 26
   4735575.45349   3690054.30146         0.00041  21194269.53546  21194267.86349
  -7366986.16249  -5740506.27146         0.00041  20705133.07146  20705131.49149
  -4381164.39749  -3413893.56846         0.00041  20682679.83246  20682678.36749
 -11150049.24849  -8688345.46946         0.00041  20562254.90946  20562255.01849
 -11667717.39648  -9091716.98946         0.00041  22665903.64246  22665900.02548
   9147748.95048   7128112.37546         0.00041  22419762.99846  22419762.18048
  -3334497.48748  -2598308.28846         0.00041  21998021.41846  21998019.55148
 02 07 10 16 43 00.0000000  0  7 06 15 17 18 21 23 26
   4804324.92249   3743625.26946         0.00041  21207352.42346  21207350.44749
  -7392405.53149  -5760313.57046         0.00041  20700295.75046  20700294.46449
  -4391688.31749  -3422094.02946         0.00041  20680676.88146  20680675.60349
 -11176781.28149  -8709175.62546         0.00041  20557167.98946  20557168.25649
 -11730509.85548  -9140646.13046         0.00041  22653954.52146  22653951.55348
   9222748.94848   7186553.88646         0.00041  22434034.66546  22434033.55148
  -3298244.49348  -2570059.22446         0.00041  22004920.31846  22004918.73148
 02 07 10 16 43 30.0000000  0  7 06 15 17 18 21 23 26
   4873504.63849   3797531.49046         0.00041  21220516.65746  21220514.73949
  -7417624.81649  -5779964.96146         0.00041  20695496.62246  20695495.28149
  -4402031.93549  -3430153.99146         0.00041  20678708.56146  20678707.55949
 -11203086.11049  -8729672.88646         0.00041  20552162.40946  20552162.71449
 -11793028.91348  -9189362.23646         0.00041  22642057.71146  22642054.63948
   9297883.05648   7245099.89046         0.00041  22448333.22546  22448331.66648
  -3261367.63648  -2541324.00946         0.00041  22011938.01946  22011935.28048
 02 07 10 16 44 00.0000000  0  7 06 15 17 18 21 23 26
   4943106.56949   3851766.70946         0.00041  21233760.86246  21233759.25049
  -7442649.74549  -5799464.91046         0.00041  20690734.50046  20690732.91249
  -4412201.26149  -3438078.14446         0.00041  20676774.03046  20676772.24949
 -11228970.68049  -8749842.67046         0.00041  20547236.90446  20547236.88849
 -11855280.75448  -9237870.13346         0.00041  22630211.65046  22630208.29948
   9373142.83848   7303743.83346         0.00041  22462654.65146  22462653.04848
  -3223874.74448  -2512108.77146         0.00041  22019072.50046  22019069.96348
 02 07 10 16 44 30.0000000  0  7 06 15 17 18 21 23 26
   5013132.30549   3906332.16946         0.00041  21247086.97346  21247085.20149
  -7467476.80749  -5818810.67646         0.00041  20686010.30646  20686009.12449
  -4422192.41349  -3445863.46346         0.00041  20674872.47846  20674870.85849
 -11254432.24249  -8769682.84246         0.00041  20542391.81746  20542391.92649
 -11917262.35048  -9286167.44046         0.00041  22618416.47046  22618414.15248
   9448529.29748   7362486.49846         0.00041  22477000.19346  22476997.38048
  -3185764.02848  -2482412.13346         0.00041  22026325.16046  22026322.68548
 02 07 10 16 45 00.0000000  0  7 06 15 17 18 21 23 26
   5083587.59249   3961232.34146         0.00041  21260493.92146  21260492.39749
  -7492098.18649  -5837996.16246         0.00041  20681324.68146  20681323.08749
  -4431997.77749  -3453504.01146         0.00041  20673006.20446  20673005.35249
 -11279463.98149  -8789188.09346         0.00041  20537627.87046  20537628.23149
 -11978966.14248  -9334248.28846         0.00041  22606673.28146  22606672.35548
   9524047.68048   7421331.95846         0.00041  22491371.11446  22491369.31948
  -3147029.72448  -2452229.56946         0.00041  22033696.51646  22033693.46948
 02 07 10 16 45 30.0000000  0  7 06 15 17 18 21 23 26
   5154463.71449   4016460.43146         0.00041  21273981.33046  21273979.60049
  -7516520.53849  -5857026.56846         0.00041  20676677.27246  20676675.82349
  -4441623.79749  -3461004.81646         0.00041  20671175.10946  20671173.35449
 -11304073.70149  -8808364.49647         0.00041  20532945.57247  20532945.71449
 -12040399.53048  -9382118.42546         0.00041  22594983.79346  22594981.59548
   9599688.99848   7480273.20546         0.00041  22505765.01046  22505763.18448
  -3107680.25948  -2421567.66346         0.00041  22041184.44246  22041181.79248
 02 07 10 16 46 00.0000000  0  7 06 15 17 18 21 23 26
   5225763.16449   4072018.38846         0.00041  21287549.35446  21287547.55249
  -7540739.18749  -5875898.25646         0.00041  20672069.01746  20672067.38349
  -4451065.82249  -3468362.25346         0.00041  20669378.22246  20669376.58849
 -11328257.57949  -8827209.06246         0.00041  20528342.96646  20528342.94649
 -12101557.83248  -9429774.21746         0.00041  22583347.23046  22583343.80348
   9675455.66348   7539312.11846         0.00041  22520182.55046  22520181.14048
  -3067712.78648  -2390424.20146         0.00041  22048789.74946  22048787.17448
 02 07 10 16 46 30.0000000  0  7 06 15 17 18 21 23 26
   5297471.56849   4127895.01346         0.00041  21301194.82146  21301193.13449
  -7564766.32649  -5894620.69846         0.00041  20667496.50346  20667495.16149
  -4460335.78549  -3475585.61646         0.00041  20667613.91846  20667612.54549
 -11352028.70749  -8845732.01547         0.00041  20523819.75347  20523819.76849
 -12162453.87048  -9477225.62646         0.00041  22571758.41246  22571755.24748
   9751332.79048   7598437.09946         0.00041  22534621.69246  22534619.98348
  -3027141.32148  -2358810.08846         0.00041  22056509.62346  22056507.11148
 02 07 10 16 47 00.0000000  0  7 06 15 17 18 21 23 26
   5369602.22249   4184100.67046         0.00041  21314920.81746  21314919.15449
  -7588586.67049  -5913182.00746         0.00041  20662963.77946  20662962.42149
  -4469418.54849  -3482663.10946         0.00041  20665885.48746  20665884.10249
 -11375372.94649  -8863922.32147         0.00041  20519377.55847  20519377.34649
 -12223072.55448  -9524460.91046         0.00041  22560222.69546  22560219.36348
   9827333.11648   7657658.07846         0.00041  22549084.48746  22549082.67448
  -2985952.72348  -2326715.10346         0.00041  22064347.35146  22064345.31848
 02 07 10 16 47 30.0000000  0  7 06 15 17 18 21 23 26
   5442155.67849   4240635.78146         0.00041  21328727.54646  21328725.75649
  -7612197.50349  -5931580.06346         0.00041  20658470.92046  20658469.69049
  -4478311.05849  -3489592.35046         0.00041  20664193.78346  20664192.39649
 -11398289.02749  -8881779.00247         0.00041  20515016.35047  20515016.73449
 -12283411.42248  -9571478.17646         0.00041  22548740.26446  22548737.57048
   9903457.14548   7716975.45646         0.00041  22563569.91546  22563568.43048
  -2944146.22548  -2294138.62046         0.00041  22072303.15246  22072300.97548
 02 07 10 16 48 00.0000000  0  7 06 15 17 18 21 23 26
   5515121.63749   4297492.31746         0.00041  21342612.63546  21342610.77849
  -7635606.91149  -5949821.16446         0.00041  20654016.24646  20654014.77249
  -4487021.43949  -3496379.66746         0.00041  20662535.88646  20662534.59649
 -11420785.69749  -8899308.87246         0.00041  20510735.51846  20510735.72749
 -12343479.17648  -9618284.20146         0.00041  22537309.70146  22537307.30248
   9979694.40148   7776381.07046         0.00041  22578078.01346  22578076.37848
  -2901731.90348  -2261088.50746         0.00041  22080374.20146  22080372.32848
 02 07 10 16 48 30.0000000  0  7 06 15 17 18 21 23 26
   5588504.26349   4354673.52446         0.00041  21356576.98446  21356574.74849
  -7658808.52949  -5967900.34946         0.00041  20649601.00946  20649599.52949
  -4495543.33249  -3503020.11346         0.00041  20660913.91346  20660912.77049
 -11442857.64249  -8916507.77746         0.00041  20506535.46846  20506535.74049
 -12403270.22048  -9664874.58846         0.00041  22525932.16046  22525929.17548
  10056048.63048   7835877.83146         0.00041  22592607.81746  22592606.33548
  -2858705.46548  -2227561.42446         0.00041  22088560.70646  22088560.17848
 02 07 10 16 49 00.0000000  0  7 06 15 17 18 21 23 26
   5662299.37149   4412176.15146         0.00041  21370619.43846  21370618.14849
  -7681804.17449  -5985819.03146         0.00041  20645225.11846  20645223.62749
  -4503878.71749  -3509515.22046         0.00041  20659328.13946  20659326.83849
 -11464508.24249  -8933378.36347         0.00041  20502415.33447  20502415.20249
 -12462786.64848  -9711250.98146         0.00041  22514605.87646  22514602.71548
  10132515.33248   7895462.23446         0.00041  22607159.36946  22607157.19048
  -2815070.99948  -2193560.57346         0.00041  22096866.10346  22096863.25248
 02 07 10 16 49 30.0000000  0  7 06 15 17 18 21 23 26
   5736508.88649   4470001.68746         0.00041  21384741.19746  21384739.77549
  -7704589.80349  -6003574.06946         0.00041  20640888.66346  20640887.18349
  -4512023.10949  -3515861.50646         0.00041  20657778.63046  20657776.86749
 -11485734.40349  -8949918.21747         0.00041  20498376.15747  20498376.30249
 -12522024.75648  -9757410.51146         0.00041  22503333.52546  22503330.49148
  10209096.36348   7955135.72846         0.00041  22621732.02346  22621730.02248
  -2770826.40948  -2159084.29146         0.00041  22105285.14546  22105282.65148
 02 07 10 16 50 00.0000000  0  7 06 15 17 18 21 23 26
   5811141.79349   4528157.14546         0.00041  21398943.53446  21398941.52549
  -7727154.25349  -6021156.75246         0.00041  20636595.42946  20636593.74549
  -4519965.41649  -3522050.32546         0.00041  20656267.35846  20656265.65449
 -11506525.95749  -8966119.41947         0.00041  20494419.80747  20494419.87249
 -12580973.68848  -9803344.68546         0.00041  22492116.40346  22492113.71948
  10285800.60348   8014905.22546         0.00041  22636328.81046  22636326.39648
  -2725962.80648  -2124125.66446         0.00041  22113821.65246  22113820.90248
 02 07 10 16 50 30.0000000  0  7 06 15 17 18 21 23 26
   5886180.59649   4586628.88046         0.00041  21413223.33846  21413221.01749
  -7749512.56349  -6038578.80846         0.00041  20632340.83846  20632339.11949
  -4527720.81849  -3528093.50346         0.00041  20654791.48146  20654789.75849
 -11526899.45549  -8981994.86447         0.00041  20490542.85547  20490542.71449
 -12639649.52948  -9849066.07146         0.00041  22480950.97246  22480947.57248
  10362610.33948   8074756.92546         0.00041  22650944.71546  22650942.85648
  -2680497.44048  -2088698.13046         0.00041  22122472.41746  22122472.75948
 02 07 10 16 51 00.0000000  0  7 06 15 17 18 21 23 26
   5961622.05249   4645414.37646         0.00041  21427579.70146  21427577.10249
  -7771665.65949  -6055840.95946         0.00041  20628124.91346  20628123.39849
  -4535289.97349  -3533991.55446         0.00041  20653350.87846  20653349.58149
 -11546856.91549  -8997546.12447         0.00041  20486745.32747  20486745.17449
 -12698053.37648  -9894575.54146         0.00041  22469836.62446  22469833.55248
  10439522.29048   8134688.26446         0.00041  22665580.70746  22665579.29048
  -2634433.42348  -2052804.12946         0.00041  22131237.91846  22131237.62048
 02 07 10 16 51 30.0000000  0  7 06 15 17 18 21 23 26
   6037452.10349   4704502.67546         0.00041  21442009.31046  21442006.80449
  -7793625.17949  -6072952.26946         0.00041  20623945.98746  20623945.00949
  -4542684.57149  -3539753.58746         0.00041  20651943.76046  20651942.43049
 -11566411.27749  -9012783.28547         0.00041  20483024.30047  20483024.14749
 -12756196.82948  -9939882.09246         0.00041  22458772.55646  22458769.47548
  10516522.22748   8194688.16946         0.00041  22680232.40246  22680231.74548
  -2587784.71148  -2016454.50746         0.00041  22140116.07946  22140114.64648
 02 07 10 16 52 00.0000000  0  7 06 15 17 18 21 23 26
   6113694.29049   4763912.11446         0.00041  21456517.71446  21456516.04149
  -7815365.61949  -6089892.86746         0.00041  20619809.05246  20619807.85549
  -4549878.70649  -3545359.41946         0.00041  20650575.09346  20650573.45849
 -11585538.01349  -9027687.22847         0.00041  20479384.34047  20479384.30549
 -12814055.25448  -9984966.51446         0.00041  22447762.57246  22447759.39248
  10593633.47548   8254774.81546         0.00041  22694907.08246  22694904.90048
  -2540527.64748  -1979630.85046         0.00041  22149109.52746  22149107.79548
 02 07 10 16 52 30.0000000  0  7 06 15 17 18 21 23 26
   6190356.33349   4823648.71546         0.00041  21471106.11346  21471104.06549
  -7836876.84949  -6106654.86246         0.00041  20615715.60446  20615714.42249
  -4556862.09549  -3550801.02846         0.00041  20649245.56446  20649244.38349
 -11604227.91549  -9042250.77947         0.00041  20475827.49447  20475827.71849
 -12871619.27448 -10029821.55146         0.00041  22436808.29146  22436805.43848
  10670863.83748   8314954.27146         0.00041  22709602.75146  22709600.68548
  -2492654.51648  -1942327.13646         0.00041  22158219.90946  22158218.20348
 02 07 10 16 53 00.0000000  0  7 06 15 17 18 21 23 26
   6267413.96249   4883693.57046         0.00041  21485769.80246  21485767.59849
  -7858180.62349  -6123255.20146         0.00041  20611661.91046  20611660.62249
  -4563656.79749  -3556095.60146         0.00041  20647952.59046  20647951.43249
 -11622504.33349  -9056492.13447         0.00041  20472350.07847  20472350.10349
 -12928911.30548 -10074464.67546         0.00041  22425905.90846  22425902.66148
  10748189.02848   8375207.62146         0.00041  22724317.24446  22724315.96848
  -2444189.60648  -1904562.28946         0.00041  22167441.90146  22167440.81748
 02 07 10 16 53 30.0000000  0  7 06 15 17 18 21 23 26
   6344860.30749   4944041.31646         0.00041  21500507.37646  21500505.66449
  -7879281.48449  -6139697.42546         0.00041  20607646.36546  20607644.82249
  -4570267.23449  -3561246.59546         0.00041  20646695.25146  20646693.29449
 -11640373.16949  -9070415.89347         0.00041  20468949.60447  20468949.46249
 -12985936.38048 -10118899.75346         0.00041  22415054.29946  22415051.12848
  10825601.98048   8435529.33046         0.00041  22739049.74246  22739047.51848
  -2395139.91948  -1866341.78646         0.00041  22176775.81746  22176773.98948
 02 07 10 16 54 00.0000000  0  7 06 15 17 18 21 23 26
   6422701.43849   5004696.68146         0.00041  21515319.98846  21515317.82149
  -7900170.99049  -6155974.96046         0.00041  20603671.29846  20603669.60949
  -4576684.76449  -3566247.27946         0.00041  20645473.51446  20645472.13749
 -11657827.00349  -9084016.27747         0.00041  20465628.23947  20465628.37749
 -13042686.42148 -10163120.52046         0.00041  22404255.50946  22404252.31248
  10903108.68748   8495924.14946         0.00041  22753798.66146  22753796.55648
  -2345499.18548  -1827660.71846         0.00041  22186222.29346  22186220.55448
 02 07 10 16 54 30.0000000  0  7 06 15 17 18 21 23 26
   6500924.83049   5065649.91246         0.00041  21530204.99846  21530203.31249
  -7920858.98749  -6172095.47546         0.00041  20599734.46746  20599732.87949
  -4582919.38749  -3571105.43446         0.00041  20644286.94646  20644285.97049
 -11674877.65849  -9097302.50147         0.00041  20462383.50947  20462383.64449
 -13099172.36248 -10207135.50746         0.00041  22393506.24246  22393503.02148
  10980696.82848   8556382.40646         0.00041  22768563.58746  22768560.54048
  -2295279.83748  -1788528.79446         0.00041  22195778.08246  22195777.22448
 02 07 10 16 55 00.0000000  0  7 06 15 17 18 21 23 26
   6579527.34649   5126898.57146         0.00041  21545162.71846  21545161.43949
  -7941346.08249  -6188059.44746         0.00041  20595835.95146  20595834.34749
  -4588971.70449  -3575821.53346         0.00041  20643135.59646  20643133.95049
 -11691526.91449  -9110275.95347         0.00041  20459214.86247  20459215.39049
 -13155395.32748 -10250945.56946         0.00041  22382807.49846  22382804.37848
  11058363.33148   8616901.72046         0.00041  22783343.57846  22783340.42748
  -2244485.18348  -1748948.55246         0.00041  22205444.04846  22205442.74948
 02 07 10 16 55 30.0000000  0  7 06 15 17 18 21 23 26
   6658527.21949   5188456.85146         0.00041  21560195.82846  21560194.23949
  -7961611.69849  -6203850.84246         0.00041  20591979.58446  20591977.86349
  -4594820.88149  -3580379.34346         0.00041  20642022.57746  20642020.90949
 -11707755.21749  -9122921.38747         0.00041  20456126.83247  20456127.06149
 -13211335.42348 -10294535.21546         0.00041  22372161.85046  22372159.68348
  11136126.39948   8677496.26246         0.00041  22798141.13546  22798138.22548
  -2193096.75848  -1708905.65746         0.00041  22215222.66146  22215221.84048
 02 07 10 16 56 00.0000000  0  7 06 15 17 18 21 23 26
   6737922.85449   5250323.52446         0.00041  21575304.91946  21575303.19949
  -7981654.89249  -6219468.92046         0.00041  20588165.07046  20588163.92549
  -4600465.96949  -3584778.11846         0.00041  20640948.48146  20640946.93349
 -11723563.41449  -9135239.45847         0.00041  20453118.76647  20453119.14049
 -13266992.43548 -10337904.27846         0.00041  22361569.83346  22361567.90348
  11213984.52848   8738164.88746         0.00041  22812955.78146  22812953.89948
  -2141116.40848  -1668401.52046         0.00041  22225114.81846  22225113.06548
 02 07 10 16 56 30.0000000  0  8 03 06 15 17 18 21 23 26
        -0.33558         0.71851         0.00051         0.00051  24163814.57358
   6817695.08449   5312483.63246         0.00041  21590484.72146  21590483.28949
  -8001492.54949  -6234926.83746         0.00041  20584390.34346  20584388.69549
  -4605923.78549  -3589030.96046         0.00041  20639909.89246  20639908.30549
 -11738969.46249  -9147244.15947         0.00041  20450186.89647  20450187.38149
 -13322383.42148 -10381066.05846         0.00041  22351029.63246  22351027.14948
  11291918.61148   8798892.69746         0.00041  22827786.13246  22827783.89748
  -2088563.29648  -1627451.05746         0.00041  22235115.18246  22235113.71548
 02 07 10 16 57 00.0000000  0  8 03 06 15 17 18 21 23 26
    -96902.26848    -75507.22944         0.00041  24145378.91644  24145374.38548
   6897870.49248   5374957.91346         0.00041  21605742.00846  21605739.20148
  -8021095.49249  -6250201.86046         0.00041  20580659.86646  20580658.85149
  -4611164.97049  -3593115.00946         0.00041  20638912.61046  20638910.87549
 -11753945.54149  -9158913.82047         0.00041  20447336.88547  20447337.40249
 -13377480.11948 -10423998.50346         0.00041  22340545.41346  22340542.43848
  11369955.37548   8859700.51646         0.00041  22842636.24046  22842634.02948
  -2035410.94348  -1586033.68846         0.00041  22245229.60146  22245228.89848
 02 07 10 16 57 30.0000000  0  8 03 06 15 17 18 21 23 26
   -193620.40948   -150871.95944         0.00041  24126974.51044  24126970.07048
   6978424.35948   5437727.10446         0.00041  21621070.86746  21621068.42748
  -8040485.70949  -6265311.11146         0.00041  20576970.42746  20576968.98749
  -4616211.68749  -3597047.52946         0.00041  20637952.24246  20637950.82849
 -11768515.20249  -9170266.80047         0.00041  20444564.57847  20444564.56849
 -13432305.41448 -10466719.48046         0.00041  22330112.30546  22330109.23648
  11448070.23048   8920569.18446         0.00041  22857500.62846  22857499.11248
  -1981683.79948  -1544168.41546         0.00041  22255453.27546  22255452.16348
 02 07 10 16 58 00.0000000  0  8 03 06 15 17 18 21 23 26
   -290157.78948   -226095.80044         0.00041  24108601.69944  24108598.56848
   7059349.50548   5500785.58846         0.00041  21636469.97546  21636468.79848
  -8059668.14849  -6280258.45746         0.00041  20573319.85646  20573318.21149
  -4621068.40249  -3600831.98646         0.00041  20637027.70446  20637026.32549
 -11782684.58949  -9181307.88847         0.00041  20441868.59847  20441868.45749
 -13486864.81148 -10509233.26546         0.00041  22319729.81346  22319727.40448
  11526256.19848   8981493.26746         0.00041  22872379.22646  22872378.35548
  -1927389.33948  -1501861.07146         0.00041  22265786.11146  22265783.56048
 02 07 10 16 58 30.0000000  0  8 03 06 15 17 18 21 23 26
   -386509.66448   -301175.11844         0.00041  24090266.48444  24090262.31748
   7140646.42748   5564133.77746         0.00041  21651941.26546  21651938.61448
  -8078639.66649  -6295041.45046         0.00041  20569709.86846  20569708.24949
  -4625732.08849  -3604466.02646         0.00041  20636140.41746  20636138.72649
 -11796452.15149  -9192035.86247         0.00041  20439248.56247  20439248.51949
 -13541155.92248 -10551537.97346         0.00041  22309399.55746  22309396.61848
  11604513.83948   9042473.21146         0.00041  22887271.44446  22887270.52348
  -1872527.12148  -1459111.33846         0.00041  22276225.67746  22276224.27948
 02 07 10 16 59 00.0000000  0  8 03 06 15 17 18 21 23 26
   -482677.52848   -376111.05144         0.00041  24071966.82444  24071962.32048
   7222309.28548   5627767.11246         0.00041  21667481.36546  21667478.52248
  -8097403.34049  -6309662.48646         0.00041  20566139.26746  20566137.73049
  -4630205.94049  -3607952.14246         0.00041  20635289.20246  20635287.65549
 -11809822.43849  -9202454.26947         0.00041  20436704.35047  20436704.68849
 -13595182.56848 -10593636.61546         0.00041  22299117.95246  22299115.54448
  11682837.62648   9103504.69746         0.00041  22902176.71946  22902174.53048
  -1817103.08048  -1415923.80946         0.00041  22286772.77146  22286771.80048
 02 07 10 16 59 30.0000000  0  8 03 06 15 17 18 21 23 26
   -578637.48948   -450884.99744         0.00041  24053703.30544  24053701.67448
   7304357.48949   5691700.71146         0.00041  21683094.25346  21683092.26649
  -8115937.16649  -6324104.43246         0.00041  20562612.49146  20562610.85149
  -4634467.59449  -3611272.91346         0.00041  20634478.32546  20634476.59649
 -11822774.84149  -9212547.04947         0.00041  20434239.42047  20434239.99949
 -13648923.42848 -10635512.57046         0.00041  22288891.72946  22288888.54148
  11761247.32748   9164603.11646         0.00041  22917097.63346  22917094.57548
  -1761097.89948  -1372283.43146         0.00041  22297430.36846  22297428.71848
 02 07 10 17 00 00.0000000  0  8 03 06 15 17 18 21 23 26
   -674392.16748   -525498.93444         0.00041  24035483.05544  24035479.49048
   7386784.29649   5755929.33346         0.00041  21698779.48446  21698777.58049
  -8134245.25149  -6338370.48246         0.00041  20559128.30446  20559126.92749
  -4638521.44649  -3614431.76846         0.00041  20633706.73146  20633705.24349
 -11835315.18449  -9222318.73647         0.00041  20431853.11647  20431853.74049
 -13702383.40948 -10677169.66046         0.00041  22278718.48846  22278715.31348
  11839736.36648   9225763.35846         0.00041  22932033.78246  22932030.53948
  -1704518.36248  -1328195.50146         0.00041  22308197.35046  22308195.58548
 02 07 10 17 00 30.0000000  0  8 03 06 15 17 18 21 23 26
   -769936.73348   -599949.16744         0.00041  24017304.25444  24017299.50648
   7469589.90348   5820453.12546         0.00041  21714537.29946  21714535.09948
  -8152324.74749  -6352458.40546         0.00041  20555687.88646  20555686.62549
  -4642364.69249  -3617426.51346         0.00041  20632975.00346  20632973.95749
 -11847442.34349  -9231768.46447         0.00041  20429544.91247  20429545.36749
 -13755560.84148 -10718606.58246         0.00041  22268599.15946  22268596.27748
  11918304.93048   9286985.57646         0.00041  22946985.05946  22946982.08648
  -1647364.44148  -1283660.02446         0.00041  22319072.25146  22319071.43548
 02 07 10 17 01 00.0000000  0  8 03 06 15 17 18 21 23 26
   -865268.24648   -674233.46944         0.00041  23999162.85744  23999159.25348
   7552773.02748   5885271.07546         0.00041  21730366.53046  21730364.73048
  -8170174.46849  -6366367.28146         0.00041  20552291.36046  20552289.99949
  -4645995.67349  -3620255.85946         0.00041  20632284.40346  20632282.91649
 -11859156.42049  -9240896.31147         0.00041  20427316.59347  20427316.60649
 -13808455.12548 -10759822.86746         0.00041  22258533.66146  22258530.54748
  11996951.98548   9348268.94746         0.00041  22961950.69446  22961948.14348
  -1589637.64748  -1238678.14046         0.00041  22330058.36446  22330055.97448
 02 07 10 17 01 30.0000000  0  8 03 06 15 17 18 21 23 26
   -960385.54548   -748350.77444         0.00041  23981062.33244  23981058.31248
   7636330.34448   5950380.60646         0.00041  21746267.28846  21746264.31948
  -8187795.01949  -6380097.57846         0.00041  20548938.29846  20548936.96649
  -4649415.00249  -3622920.28346         0.00041  20631633.92246  20631632.28849
 -11870459.33949  -9249703.78247         0.00041  20425165.34447  20425165.35849
 -13861067.24048 -10800819.28846         0.00041  22248522.02346  22248518.83048
  12075674.61248   9409611.19246         0.00041  22976930.83246  22976928.63548
  -1531341.28148  -1193252.45946         0.00041  22341152.03746  22341149.74748
 02 07 10 17 02 00.0000000  0  8 03 06 15 17 18 21 23 26
  -1055286.25648   -822299.35544         0.00041  23963001.37644  23963000.00648
   7720259.49648   6015779.87946         0.00041  21762237.76946  21762235.55148
  -8205185.91349  -6393648.92246         0.00041  20545628.74446  20545627.52849
  -4652622.21549  -3625419.42246         0.00041  20631023.21946  20631022.03449
 -11881352.31349  -9258191.81647         0.00041  20423092.66047  20423092.84849
 -13913397.88648 -10841596.37546         0.00041  22238563.55846  22238560.71848
  12154471.02348   9471010.93746         0.00041  22991924.93246  22991923.40748
  -1472477.77948  -1147384.82446         0.00041  22352353.03146  22352350.88348
 02 07 10 17 02 30.0000000  0  8 03 06 15 17 18 21 23 26
  -1149979.99748   -896086.60244         0.00041  23944980.72044  23944979.55448
   7804546.61748   6081458.08146         0.00041  21778277.42346  21778275.21548
  -8222358.52649  -6407030.17346         0.00041  20542361.05246  20542359.58549
  -4655628.45749  -3627761.94946         0.00041  20630451.45246  20630449.77549
 -11891848.42749  -9266370.60447         0.00041  20421095.26147  20421095.37649
 -13965459.40348 -10882163.74946         0.00041  22228656.56746  22228653.53148
  12233327.49448   9532457.47146         0.00041  23006931.29746  23006929.22748
  -1413061.17148  -1101086.20746         0.00041  22363659.85246  22363657.22348
 02 07 10 17 03 00.0000000  0  8 03 06 15 17 18 21 23 26
  -1244461.45548   -969708.48744         0.00041  23927003.73644  23927000.76748
   7889192.53048   6147415.86346         0.00041  21794385.40846  21794382.95048
  -8239309.28349  -6420238.55346         0.00041  20539135.31346  20539133.78349
  -4658430.05049  -3629945.01646         0.00041  20629918.26846  20629916.79249
 -11901945.56249  -9274238.49947         0.00041  20419173.89447  20419174.26749
 -14017248.68048 -10922518.99746         0.00041  22218801.09146  22218798.01048
  12312245.27148   9593951.79546         0.00041  23021949.96346  23021946.77648
  -1353090.92548  -1054356.18646         0.00041  22375072.22346  22375069.59548
 02 07 10 17 03 30.0000000  0  8 03 06 15 17 18 21 23 26
  -1338748.85248  -1043179.15044         0.00041  23909062.44744  23909058.02748
   7974174.65448   6213635.63746         0.00041  21810556.92546  21810554.22848
  -8256057.88549  -6433289.41646         0.00041  20535948.26046  20535947.06149
  -4661046.86349  -3631984.09346         0.00041  20629420.17446  20629418.73049
 -11911665.04249  -9281812.11447         0.00041  20417324.17447  20417324.49749
 -14068786.87048 -10962678.59146         0.00041  22208994.00646  22208991.08648
  12391202.10948   9655476.55946         0.00041  23036974.53146  23036971.62248
  -1292589.71548  -1007212.44046         0.00041  22386584.13646  22386583.21148
 02 07 10 17 04 00.0000000  0  8 03 06 15 17 18 21 23 26
  -1432801.32048  -1116466.78744         0.00041  23891163.15744  23891160.17448
   8059529.52548   6280145.85846         0.00041  21826799.46546  21826796.92248
  -8272565.11849  -6446152.20246         0.00041  20532806.70646  20532805.31349
  -4663439.61849  -3633848.58246         0.00041  20628964.58246  20628963.38549
 -11920969.49049  -9289062.32747         0.00041  20415553.78847  20415554.11549
 -14120035.21449 -11002612.32146         0.00041  22199241.08546  22199239.38649
  12470234.88048   9717060.50346         0.00041  23052013.84146  23052011.21448
  -1231521.06748   -959626.53746         0.00041  22398205.35346  22398203.69748
 02 07 10 17 04 30.0000000  0  8 03 06 15 17 18 21 23 26
  -1526602.40548  -1189558.47544         0.00041  23873313.26744  23873309.83048
   8145269.08048   6346955.82946         0.00041  21843115.14946  21843112.56448
  -8288816.34049  -6458815.49746         0.00041  20529714.06946  20529712.85649
  -4665593.41849  -3635526.88246         0.00041  20628555.08946  20628553.62849
 -11929845.73149  -9295978.87447         0.00041  20413864.65947  20413864.49649
 -14170979.93749 -11042309.47746         0.00041  22189546.70146  22189544.42249
  12549355.99748   9778713.28445         0.00041  23067069.61845  23067067.39248
  -1169873.25448   -911589.30046         0.00041  22409935.83546  22409934.88348
 02 07 10 17 05 00.0000000  0  8 03 06 15 17 18 21 23 26
  -1620194.73848  -1262487.47444         0.00041  23855504.11444  23855499.86548
   8231345.97448   6414028.66546         0.00041  21859494.60346  21859492.83348
  -8304855.98949  -6471313.92846         0.00041  20526662.47146  20526660.87949
  -4667552.68649  -3637053.59246         0.00041  20628182.16346  20628180.65549
 -11938339.69049  -9302597.54446         0.00041  20412248.15946  20412248.25349
 -14221666.23448 -11081805.25646         0.00041  22179901.76046  22179898.83648
  12628518.66448   9840398.41445         0.00041  23082132.79145  23082130.93448
  -1107693.89048   -863137.88346         0.00041  22421768.83746  22421767.47648
 02 07 10 17 05 30.0000000  0  8 03 06 15 17 18 21 23 26
  -1713577.46248  -1335253.17644         0.00041  23837733.52744  23837729.94548
   8317756.53848   6481361.50046         0.00041  21875937.95046  21875936.39948
  -8320684.97849  -6483648.20746         0.00041  20523650.18246  20523648.74349
  -4669318.46549  -3638429.53146         0.00041  20627846.40646  20627844.69949
 -11946454.19949  -9308920.53946         0.00041  20410703.83446  20410704.18249
 -14272096.05349 -11121101.19246         0.00041  22170304.95946  22170302.74449
  12707719.80648   9902113.53045         0.00041  23097203.73045  23097202.45848
  -1044986.75348   -814275.20246         0.00041  22433702.01246  22433700.62248
 02 07 10 17 06 00.0000000  0  8 03 06 15 17 18 21 23 26
  -1806749.42148  -1407854.68744         0.00041  23820005.22444  23820001.22748
   8404497.24448   6548951.57546         0.00041  21892445.38346  21892442.42048
  -8336304.14149  -6495818.98646         0.00041  20520677.94646  20520676.70149
  -4670891.15749  -3639655.01146         0.00041  20627547.17846  20627545.43649
 -11954191.57649  -9314949.66246         0.00041  20409231.47346  20409231.74749
 -14322271.22149 -11160198.68746         0.00041  22160757.16046  22160754.33849
  12786956.05648   9963856.01245         0.00041  23112283.03045  23112281.10848
   -981755.68348   -765004.28046         0.00041  22445734.59846  22445733.64348
 02 07 10 17 06 30.0000000  0  8 03 06 15 17 18 21 23 26
  -1899687.75748  -1480274.13444         0.00041  23802318.12244  23802315.98448
   8491586.53148   6616813.29846         0.00041  21909017.61046  21909015.06048
  -8351691.89449  -6507809.44546         0.00041  20517749.62046  20517748.16449
  -4672249.57049  -3640713.53046         0.00041  20627288.78246  20627287.45149
 -11961532.28449  -9320669.69147         0.00041  20407834.73347  20407834.83149
 -14372171.54949 -11199082.01746         0.00041  22151261.47346  22151258.75749
  12866246.54348  10025640.75845         0.00041  23127371.95245  23127370.01748
   -917982.30548   -715310.79746         0.00041  22457870.93346  22457868.96148
 02 07 10 17 07 00.0000000  0  8 03 06 15 17 18 21 23 26
  -1992386.07848  -1552506.51644         0.00041  23784679.58144  23784676.41748
   8579026.16848   6684948.00046         0.00041  21925656.89646  21925654.31948
  -8366843.73449  -6519616.07946         0.00041  20514866.41146  20514865.02149
  -4673388.77049  -3641601.23546         0.00041  20627071.28746  20627070.31649
 -11968473.30749  -9326078.27847         0.00041  20406514.15147  20406514.20549
 -14421793.13249 -11237748.15146         0.00041  22141818.52946  22141816.54349
  12945593.60748  10087469.57045         0.00041  23142471.59845  23142469.97848
   -853665.09148   -665193.53946         0.00041  22470109.74446  22470107.59148
 02 07 10 17 07 30.0000000  0  8 03 06 15 17 18 21 23 26
  -2084830.20248  -1624540.85044         0.00041  23767088.23044  23767084.94248
   8666825.81648   6753363.23446         0.00041  21942364.77346  21942361.72948
  -8381747.17749  -6531229.15846         0.00041  20512030.32846  20512029.00949
  -4674296.40349  -3642308.50446         0.00041  20626898.63646  20626897.80849
 -11975003.70249  -9331166.89747         0.00041  20405271.01347  20405271.12949
 -14471124.44549 -11276188.09746         0.00041  22132430.90446  22132428.57149
  13025007.49048  10149350.45145         0.00041  23157584.12245  23157581.15248
   -788794.53048   -614645.10245         0.00041  22482453.64845  22482451.88848
 02 07 10 17 08 00.0000000  0  8 03 06 15 17 18 21 23 26
  -2177023.67448  -1696379.86344         0.00041  23749542.53544  23749540.03948
   8754977.45948   6822052.74846         0.00041  21959139.73346  21959136.84948
  -8396407.70549  -6542652.94846         0.00041  20509240.54546  20509239.04749
  -4674977.71649  -3642839.42746         0.00041  20626769.23846  20626767.95249
 -11981130.78449  -9335941.24947         0.00041  20404105.10347  20404105.45349
 -14520171.45649 -11314406.51146         0.00041  22123097.85646  22123095.88949
  13104480.44948  10211277.37645         0.00041  23172707.46645  23172704.44848
   -723379.14748   -563672.10845         0.00041  22494901.89645  22494900.76248
 02 07 10 17 08 30.0000000  0  7 03 06 15 17 18 21 23
  -2268992.54248  -1768043.79444         0.00041  23732042.22044  23732038.16348
   8843450.29748   6890992.54446         0.00041  21975974.96646  21975972.99848
  -8410852.97049  -6553908.99446         0.00041  20506491.98646  20506490.46449
  -4675460.42549  -3643215.58246         0.00041  20626677.41346  20626675.94349
 -11986884.03049  -9340424.30047         0.00041  20403010.63147  20403010.62049
 -14568963.42448 -11352426.20346         0.00041  22113812.96446  22113810.12548
  13183982.29448  10273226.81446         0.00041  23187836.36246  23187833.40048
 02 07 10 17 09 00.0000000  0  7 03 06 15 17 18 21 23
  -2360718.54548  -1839518.52344         0.00041  23714586.61144  23714582.71348
   8932257.62248   6960192.97746         0.00041  21992874.16546  21992872.42048
  -8425066.62249  -6564984.57346         0.00041  20503787.10146  20503785.49249
  -4675728.10349  -3643424.16846         0.00041  20626627.05846  20626624.99449
 -11992248.96249  -9344604.76947         0.00041  20401989.99047  20401989.59649
 -14617485.25149 -11390235.38246         0.00041  22104579.66946  22104577.42749
  13263526.90948  10335209.58045         0.00041  23202972.93345  23202970.21948
 02 07 10 17 09 30.0000000  0  8 03 06 14 15 17 18 21 23
  -2452180.35948  -1910787.42544         0.00041  23697182.42444  23697177.91948
   9021416.38048   7029667.25846         0.00041  22009841.39546  22009838.98748
        -0.63058         0.72351         0.00051         0.00051  25267526.75258
  -8439028.63049  -6575864.06846         0.00041  20501129.67646  20501128.79049
  -4675760.73049  -3643449.60046         0.00041  20626620.30746  20626618.70649
 -11997207.08249  -9348468.24247         0.00041  20401046.50347  20401046.32649
 -14665717.45449 -11427818.89146         0.00041  22095401.49746  22095399.25649
  13343132.29648  10397239.68145         0.00041  23218121.22945  23218119.00848
 02 07 10 17 10 00.0000000  0  8 03 06 14 15 17 18 21 23
  -2543388.14548  -1981858.41844         0.00041  23679825.06744  23679821.95748
   9110911.77248   7099403.84546         0.00041  22026871.71346  22026869.46748
   -113075.22748    -88109.32744         0.00041  25246015.37344  25246009.32548
  -8452751.01449  -6586556.83346         0.00041  20498518.65946  20498517.41449
  -4675570.14949  -3643301.10446         0.00041  20626657.01546  20626655.19349
 -12001772.44449  -9352025.67147         0.00041  20400177.55347  20400177.47649
 -14713673.02848 -11465186.82446         0.00041  22086276.05646  22086272.84848
  13422784.16548  10459306.03245         0.00041  23233277.58145  23233275.22848
 02 07 10 17 10 30.0000000  0  8 03 06 14 15 17 18 21 23
  -2634347.04548  -2052735.45644         0.00041  23662516.12644  23662513.15048
   9200734.44648   7169395.46546         0.00041  22043963.90946  22043961.40048
   -226217.96148   -176272.42341         0.00041         0.00041  25224478.93548
  -8466240.48849  -6597068.11846         0.00041  20495952.26146  20495950.33749
  -4675162.84949  -3642983.73946         0.00041  20626734.48346  20626732.93449
 -12005953.23149  -9355283.42847         0.00041  20399381.99247  20399382.08549
 -14761359.42948 -11502345.02046         0.00041  22077201.33846  22077198.14448
  13502473.78548  10521401.79845         0.00041  23248442.52545  23248439.50048
 02 07 10 17 11 00.0000000  0  8 03 06 14 15 17 18 21 23
  -2725046.37648  -2123410.16245         0.00041  23645256.94145  23645254.80348
   9290890.16948   7239646.61246         0.00041  22061120.57546  22061117.38048
   -339418.56648   -264480.59944         0.00041  25202943.87644  25202937.76348
  -8479488.18649  -6607391.00046         0.00041  20493430.77246  20493429.30849
  -4674530.13449  -3642490.73046         0.00041  20626854.59546  20626853.29849
 -12009742.63349  -9358236.21147         0.00041  20398660.82347  20398661.02049
 -14808769.65348 -11539288.02246         0.00041  22068179.19246  22068176.24748
  13582207.44548  10583531.85245         0.00041  23263614.93545  23263612.59548
 02 07 10 17 11 30.0000000  0  8 03 06 14 15 17 18 21 23
  -2815508.07148  -2193899.69945         0.00041  23628043.27445  23628040.00948
   9381352.14148   7310136.36946         0.00041  22078335.23746  22078332.49948
   -452699.06048   -352751.03844         0.00041  25181386.40044  25181381.50048
  -8492517.82049  -6617543.95846         0.00041  20490951.30646  20490949.92849
  -4673695.63349  -3641840.48346         0.00041  20627013.52946  20627011.90849
 -12013166.18149  -9360903.91047         0.00041  20398009.44847  20398009.58949
 -14855928.33848 -11576035.01746         0.00041  22059205.42046  22059202.33448
  13661959.15548  10645675.97345         0.00041  23278791.76945  23278790.27948
 02 07 10 17 12 00.0000000  0  8 03 06 14 15 17 18 21 23
  -2905707.94248  -2264185.26345         0.00041  23610876.83945  23610875.89248
   9472140.01348   7380880.07846         0.00041  22095612.15446  22095609.04048
   -566035.45448   -441064.97044         0.00041  25159818.62344  25159814.51448
  -8505306.96549  -6627509.52246         0.00041  20488517.86246  20488516.41849
  -4672636.60849  -3641015.27646         0.00041  20627215.12646  20627213.48849
 -12016203.12249  -9363270.35646         0.00041  20397431.50846  20397431.42849
 -14902813.81548 -11612569.10446         0.00041  22050283.31946  22050280.29248
  13741749.21248  10707849.97245         0.00041  23293975.19645  23293972.95448
 02 07 10 17 12 30.0000000  0  8 03 06 14 15 17 18 21 23
  -2995645.43348  -2334266.42644         0.00041  23593765.11844  23593761.63948
   9563249.60248   7451874.49246         0.00041  22112949.06446  22112945.85948
   -679427.07448   -529421.95041         0.00041         0.00041  25138236.89248
  -8517856.82649  -6637288.64346         0.00041  20486129.42346  20486128.15349
  -4671354.47949  -3640016.23146         0.00041  20627459.04846  20627457.53049
 -12018856.53349  -9365337.95046         0.00041  20396926.53846  20396926.37749
 -14949428.57448 -11648892.26146         0.00041  22041412.22146  22041410.08848
  13821574.09548  10770051.12845         0.00041  23309165.18945  23309162.01148
 02 07 10 17 13 00.0000000  0  8 03 06 14 15 17 18 21 23
  -3085303.07148  -2404129.48344         0.00041  23576703.35144  23576699.40948
   9654693.79548   7523129.62946         0.00041  22130350.42446  22130347.25548
   -792856.75248   -617808.61044         0.00041  25116660.95444  25116651.52248
  -8530151.38749  -6646868.82446         0.00041  20483789.73146  20483788.79949
  -4669833.14049  -3638830.78646         0.00041  20627748.39146  20627747.36049
 -12021112.27249  -9367095.66747         0.00041  20396497.22547  20396497.25649
 -14995757.12449 -11684992.41346         0.00041  22032595.85446  22032594.05749
  13901447.46948  10832290.07645         0.00041  23324365.96045  23324363.04448
 02 07 10 17 13 30.0000000  0  8 03 06 14 15 17 18 21 23
  -3174688.20948  -2473780.17744         0.00041  23559692.00444  23559690.01948
   9746460.39848   7594635.98946         0.00041  22147812.82946  22147810.37348
   -906331.70148   -706230.49944         0.00041  25095063.89944  25095056.88948
  -8542199.80149  -6656257.20246         0.00041  20481497.05846  20481495.64149
  -4668081.72749  -3637466.07446         0.00041  20628081.67346  20628080.45749
 -12022981.84849  -9368552.47746         0.00041  20396141.14546  20396141.28449
 -15041810.24249 -11720877.93146         0.00041  22023833.16946  22023830.96649
  13981357.99648  10894557.96745         0.00041  23339571.40945  23339569.18548
 02 07 10 17 14 00.0000000  0  8 03 06 14 15 17 18 21 23
  -3263791.99048  -2543211.63945         0.00041  23542738.23045  23542733.61648
   9838553.65748   7666396.88746         0.00041  22165337.91246  22165334.80248
  -1019842.95247         0.00041         0.00041         0.00041  25073455.12347
  -8553994.82649  -6665448.13246         0.00041  20479252.82146  20479251.47349
  -4666092.74749  -3635916.23746         0.00041  20628460.24046  20628459.05249
 -12024459.45349  -9369703.85646         0.00041  20395859.91046  20395860.03449
 -15087581.71149 -11756543.97346         0.00041  22015122.49346  22015120.56549
  14061310.68248  10956858.68545         0.00041  23354786.28245  23354783.68148
 02 07 10 17 14 30.0000000  0  8 03 06 14 15 17 18 21 23
  -3352634.63248  -2612439.59845         0.00041  23525830.56745  23525827.22048
   9930948.69848   7738392.94846         0.00041  22182920.87646  22182917.69948
  -1133410.70647         0.00041         0.00041         0.00041  25051843.72447
  -8565558.24349  -6674458.57946         0.00041  20477052.35746  20477050.80349
  -4663887.98849  -3634198.25046         0.00041  20628879.64446  20628878.33249
 -12025568.67249  -9370568.18647         0.00041  20395649.32247  20395649.36349
 -15133094.34949 -11792008.33946         0.00041  22006461.58446  22006459.80749
  14141281.61248  11019173.63645         0.00041  23370004.61145  23370002.35248
 02 07 10 17 15 00.0000000  0  8 03 06 14 15 17 18 21 23
  -3441236.81748  -2681480.23444         0.00041  23508970.37444  23508966.35848
  10023620.23748   7810604.46046         0.00041  22200554.90446  22200552.56348
  -1247055.53547         0.00041         0.00041         0.00041  25030218.90847
  -8576912.22049  -6683305.82946         0.00041  20474892.00846  20474890.25549
  -4661489.68849  -3632329.44746         0.00041  20629335.98046  20629334.75349
 -12026333.83649  -9371164.42047         0.00041  20395503.85447  20395503.86549
 -15178371.96049 -11827289.56646         0.00041  21997846.30046  21997843.57649
  14221246.03448  11081483.51445         0.00041  23385221.45345  23385219.20448
 02 07 10 17 15 30.0000000  0  8 03 06 14 15 17 18 21 23
  -3529556.14548  -2750300.42944         0.00041  23492166.04944  23492159.77848
  10116605.73448   7883060.61046         0.00041  22218249.78246  22218247.09848
  -1360735.65247         0.00041         0.00041         0.00041  25008584.29147
  -8588016.63449  -6691958.61146         0.00041  20472778.65146  20472777.12349
  -4658857.46449  -3630278.37146         0.00041  20629837.07546  20629835.34649
 -12026716.46949  -9371462.57647         0.00041  20395430.65047  20395431.06349
 -15223374.94749 -11862356.79246         0.00041  21989282.46446  21989279.54249
  14301242.19348  11143818.12345         0.00041  23400444.56645  23400441.53648
 02 07 10 17 16 00.0000000  0  8 03 06 14 15 17 18 21 23
  -3617566.75548  -2818880.11544         0.00041  23475415.65044  23475411.89148
  10209926.56748   7955778.07146         0.00041  22236008.56446  22236005.54948
  -1474424.83447         0.00041         0.00041         0.00041  24986951.07047
  -8598846.81149  -6700397.71146         0.00041  20470717.71546  20470716.29149
  -4655966.73249  -3628025.86046         0.00041  20630387.38046  20630385.62849
 -12026693.81749  -9371444.92947         0.00041  20395434.94647  20395435.10249
 -15268080.23349 -11897192.04646         0.00041  21980775.27946  21980772.64149
  14381292.42148  11206194.84345         0.00041  23415677.98445  23415674.22748
 02 07 10 17 16 30.0000000  0  8 03 06 14 15 17 18 21 23
  -3705306.52448  -2887248.73344         0.00041  23458717.63244  23458715.92748
  10303539.79448   8028723.36746         0.00041  22253822.72246  22253819.60248
  -1588161.07147         0.00041         0.00041         0.00041  24965307.08147
  -8609442.58149  -6708654.15746         0.00041  20468701.43546  20468700.18849
  -4652856.95349  -3625602.66246         0.00041  20630979.18546  20630977.26449
 -12026307.88349  -9371144.20247         0.00041  20395508.71247  20395508.49449
 -15312528.33749 -11931826.90346         0.00041  21972317.13146  21972313.85449
  14461354.65748  11268580.93545         0.00041  23430913.84045  23430909.82648
 02 07 10 17 17 00.0000000  0  8 03 06 14 15 17 18 21 23
  -3792759.79348  -2955394.07244         0.00041  23442078.35844  23442074.42248
  10397456.19748   8101904.89946         0.00041  22271693.59146  22271691.25248
  -1701928.70847         0.00041         0.00041         0.00041  24943655.78847
  -8619790.00649  -6716717.08846         0.00041  20466732.23246  20466730.94449
  -4649514.38249  -3622998.08246         0.00041  20631615.37846  20631613.90749
 -12025546.56749  -9370550.97047         0.00041  20395653.36847  20395653.71849
 -15356706.31149 -11966251.26046         0.00041  21963910.57746  21963906.96549
  14541440.70448  11330985.57845         0.00041  23446153.09345  23446149.91148
 02 07 10 17 17 30.0000000  0  8 03 06 14 15 17 18 21 23
  -3879919.86248  -3023310.93144         0.00041  23425491.28744  23425488.01648
  10491677.97848   8175324.37746         0.00041  22289624.01646  22289621.50248
  -1815720.99047         0.00041         0.00041         0.00041  24922002.50247
  -8629883.77149  -6724582.36246         0.00041  20464811.78846  20464810.12049
  -4645933.59849  -3620207.88246         0.00041  20632296.75946  20632295.58049
 -12024406.55849  -9369662.65247         0.00041  20395870.17147  20395870.57949
 -15400610.55849 -12000462.32946         0.00041  21955555.62446  21955552.69849
  14621553.66648  11393411.19445         0.00041  23461398.28645  23461394.99548
 02 07 10 17 18 00.0000000  0  8 03 06 14 15 17 18 21 23
  -3966799.10048  -3091008.93644         0.00041  23408957.76344  23408954.55548
  10586187.85048   8248968.36046         0.00041  22307608.70746  22307605.96848
  -1929550.32148  -1503542.07241         0.00041         0.00041  24900342.57948
  -8639737.88349  -6732260.89146         0.00041  20462936.58246  20462935.05049
  -4642128.86449  -3617243.17346         0.00041  20633020.67346  20633019.16849
 -12022903.95949  -9368491.79847         0.00041  20396156.49047  20396156.54149
 -15444256.56649 -12034472.17146         0.00041  21947249.91146  21947246.84749
  14701677.22548  11455845.05745         0.00041  23476644.45145  23476642.26248
 02 07 10 17 18 30.0000000  0  8 03 06 14 15 17 18 21 23
  -4053407.29248  -3158495.79644         0.00041  23392478.99244  23392473.79048
  10680971.36648   8322825.55346         0.00041  22325645.23546  22325642.58248
  -2043426.67148  -1592276.68241         0.00041         0.00041  24878672.99948
  -8649363.90649  -6739761.68946         0.00041  20461104.82846  20461103.17649
  -4638111.43249  -3614112.71146         0.00041  20633785.10946  20633783.52649
 -12021052.10949  -9367048.79847         0.00041  20396508.91547  20396508.71649
 -15487657.33449 -12068290.91646         0.00041  21938990.87846  21938988.63549
  14781797.75548  11518276.58545         0.00041  23491889.56445  23491888.33348
 02 07 10 17 19 00.0000000  0  7 03 14 15 17 18 21 23
  -4139731.54148  -3225761.43444         0.00041  23376049.22344  23376048.01648
  -2157337.09448  -1681037.89144         0.00041  24857004.08644  24856995.89548
  -8658750.70149  -6747076.07846         0.00041  20459318.56946  20459317.01749
  -4633869.90449  -3610807.61846         0.00041  20634592.28946  20634590.60949
 -12018841.77149  -9365326.45747         0.00041  20396929.34147  20396929.39249
 -15530802.03749 -12101910.14246         0.00041  21930780.78446  21930778.25849
  14861924.33948  11580712.81945         0.00041  23507138.55645  23507136.28248
 02 07 10 17 19 30.0000000  0  7 03 14 15 17 18 21 23
  -4225730.14948  -3292773.28545         0.00041  23359686.21645  23359683.14548
  -2271239.60448  -1769792.91844         0.00041  24835329.52044  24835319.84048
  -8667858.07949  -6754172.74646         0.00041  20457585.21646  20457583.83949
  -4629364.16049  -3607296.66246         0.00041  20635449.61046  20635448.25149
 -12016234.94049  -9363295.15847         0.00041  20397425.30947  20397425.42249
 -15573652.13449 -12135299.79346         0.00041  21922626.16646  21922623.89749
  14942094.90648  11643183.32345         0.00041  23522394.37645  23522391.32348
 02 07 10 17 20 00.0000000  0  7 03 14 15 17 18 21 23
  -4311417.47248  -3359542.59145         0.00041  23343378.75145  23343377.67548
  -2385148.85948         0.00041         0.00041         0.00041  24813643.73248
  -8676702.06449  -6761064.18146         0.00041  20455902.32546  20455900.92349
  -4624610.16849  -3603592.25246         0.00041  20636354.54346  20636352.97149
 -12013249.66249  -9360968.96847         0.00041  20397993.50847  20397993.48849
 -15616224.79149 -12168473.26846         0.00041  21914525.01346  21914523.26049
  15022291.25048  11705673.92845         0.00041  23537655.15745  23537651.88248
 02 07 10 17 20 30.0000000  0  7 03 14 15 17 18 21 23
  -4396800.59248  -3426074.81145         0.00041  23327131.48345  23327128.30848
  -2499072.00848         0.00041         0.00041         0.00041  24791964.76348
  -8685291.59349  -6767757.32046         0.00041  20454267.58646  20454266.62649
  -4619616.78349  -3599701.33346         0.00041  20637304.58246  20637302.78949
 -12009896.68749  -9358356.25847         0.00041  20398631.27747  20398631.25649
 -15658529.97449 -12201438.31546         0.00041  21906474.96146  21906472.26949
  15102502.25748  11768175.94845         0.00041  23552919.40645  23552915.43448
 02 07 10 17 21 00.0000000  0  7 03 14 15 17 18 21 23
  -4481879.65948  -3492370.17045         0.00041  23310941.95545  23310938.87148
  -2613009.01648         0.00041         0.00041         0.00041  24770284.60948
  -8693628.41349  -6774253.55146         0.00041  20452681.48046  20452679.77749
  -4614385.70249  -3595625.16746         0.00041  20638300.18846  20638298.56549
 -12006179.91449  -9355460.06547         0.00041  20399338.81147  20399338.93549
 -15700571.00549 -12234197.52546         0.00041  21898474.72646  21898472.46149
  15182724.02748  11830686.35945         0.00041  23568185.09845  23568182.24548
 02 07 10 17 21 30.0000000  0  7 03 14 15 17 18 21 23
  -4566643.29048  -3558419.76145         0.00041  23294812.78245  23294809.17348
  -2726948.29548  -2124889.75341         0.00041         0.00041  24748602.78048
  -8701702.53849  -6780545.07946         0.00041  20451144.99246  20451143.58349
  -4608906.80949  -3591355.90946         0.00041  20639342.37146  20639340.78149
 -12002091.26749  -9352274.10347         0.00041  20400116.92547  20400116.77949
 -15742338.78249 -12266743.81046         0.00041  21890526.39146  21890523.18149
  15262964.52748  11893211.33145         0.00041  23583455.07845  23583452.62848
 02 07 10 17 22 00.0000000  0  7 03 14 15 17 18 21 23
  -4651113.96748  -3624241.00545         0.00041  23278738.34945  23278734.35348
  -2840912.35648         0.00041         0.00041         0.00041  24726914.87048
  -8709538.25349  -6786650.83046         0.00041  20449653.84146  20449652.08349
  -4603204.35249  -3586912.45446         0.00041  20640427.61846  20640426.19449
 -11997657.20949  -9348818.99147         0.00041  20400960.40847  20400960.39849
 -15783859.41149 -12299097.50846         0.00041  21882625.06446  21882623.09949
  15343197.28748  11955730.29945         0.00041  23598722.97345  23598719.99548
 02 07 10 17 22 30.0000000  0  7 03 14 15 17 18 21 23
  -4735267.86248  -3689815.39745         0.00041  23262724.28045  23262720.70448
  -2954877.18548  -2302496.21041         0.00041         0.00041  24705228.11848
  -8717113.00949  -6792553.23746         0.00041  20448212.33246  20448210.88449
  -4597255.90649  -3582277.31446         0.00041  20641559.58346  20641558.33249
 -11992857.39649  -9345078.87747         0.00041  20401873.65647  20401873.83849
 -15825111.51349 -12331241.97546         0.00041  21874775.23746  21874772.86649
  15423442.48848  12018258.99945         0.00041  23613993.79945  23613989.27748
 02 07 10 17 23 00.0000000  0  8 03 09 14 15 17 18 21 23
  -4819090.30848  -3755131.54745         0.00041  23246773.49045  23246770.22248
        -0.89957         0.00051         0.00051         0.00051  25064115.14157
  -3068828.14148  -2391288.95241         0.00041         0.00041  24683545.54848
  -8724413.98949  -6798242.31047         0.00041  20446823.37147  20446821.73849
  -4591048.52249  -3577440.40246         0.00041  20642741.07446  20642739.35149
 -11987680.97949  -9341045.30547         0.00041  20402858.85247  20402859.03549
 -15866083.56549 -12363168.22346         0.00041  21866978.52946  21866976.76749
  15503710.95448  12080805.76745         0.00041  23629267.61845  23629264.52048
 02 07 10 17 23 30.0000000  0  8 03 09 14 15 17 18 21 23
  -4902608.78048  -3820210.89845         0.00041  23230879.76045  23230876.84848
    -73095.73547         0.00041         0.00041         0.00041  25050207.03047
  -3182792.76448  -2480092.31241         0.00041         0.00041  24661859.81848
  -8731470.18049  -6803740.64747         0.00041  20445480.32047  20445478.91949
  -4584611.29449  -3572424.39446         0.00041  20643966.23846  20643964.45749
 -11982158.84149  -9336742.34147         0.00041  20403909.47147  20403909.76749
 -15906805.63249 -12394899.67146         0.00041  21859229.90046  21859226.83549
  15583971.55148  12143346.43545         0.00041  23644540.21745  23644538.05048
 02 07 10 17 24 00.0000000  0  8 03 09 14 15 17 18 21 23
  -4985824.06448  -3885053.92545         0.00041  23215044.70845  23215042.02748
   -146160.34647         0.00041         0.00041         0.00041  25036302.88547
  -3296771.65048  -2568906.74741         0.00041         0.00041  24640170.02748
  -8738284.08049  -6809050.18247         0.00041  20444183.81247  20444182.77749
  -4577946.42749  -3567231.00346         0.00041  20645234.18846  20645232.75549
 -11976295.69249  -9332173.65447         0.00041  20405025.36347  20405025.89549
 -15947282.08249 -12426439.72446         0.00041  21851526.93046  21851524.64049
  15664219.82948  12205877.49245         0.00041  23659811.32045  23659808.10548
 02 07 10 17 24 30.0000000  0  8 03 09 14 15 17 18 21 23
  -5068703.49948  -3949635.22445         0.00041  23199273.55845  23199269.93748
   -219161.23448         0.00041         0.00041         0.00041  25022412.44848
  -3410732.04248  -2657706.81841         0.00041         0.00041  24618482.88848
  -8744824.26949  -6814146.44047         0.00041  20442939.32147  20442937.63949
  -4571022.61849  -3561835.84246         0.00041  20646552.00046  20646550.09149
 -11970062.32249  -9327316.48647         0.00041  20406211.27947  20406211.59449
 -15987482.19949 -12457764.45846         0.00041  21843877.03246  21843874.85249
  15744484.94048  12268421.67545         0.00041  23675085.06945  23675082.02948
 02 07 10 17 25 00.0000000  0  8 03 09 14 15 17 18 21 23
  -5151272.30248  -4013974.50445         0.00041  23183560.23145  23183557.50548
   -292123.32348         0.00041         0.00041         0.00041  25008527.04148
  -3524699.06248  -2746511.94841         0.00041         0.00041  24596794.48148
  -8751117.85749  -6819050.54746         0.00041  20441741.46946  20441740.18149
  -4563866.80749  -3556259.89546         0.00041  20647913.73046  20647912.08949
 -11963487.88949  -9322193.55547         0.00041  20407462.90147  20407462.92949
 -16027434.75249 -12488896.28246         0.00041  21836274.27746  21836272.18049
  15824737.80448  12330956.31545         0.00041  23690358.24245  23690354.91048
 02 07 10 17 25 30.0000000  0  8 03 09 14 15 17 18 21 23
  -5233503.42748  -4078050.67745         0.00041  23167911.17145  23167909.62348
   -365019.09448         0.00041         0.00041         0.00041  24994656.32848
  -3638645.69648  -2835301.32641         0.00041         0.00041  24575111.17248
  -8757139.59549  -6823742.81746         0.00041  20440595.66946  20440594.35649
  -4556453.54549  -3550483.33446         0.00041  20649324.50246  20649322.52149
 -11956548.99949  -9316786.63647         0.00041  20408783.34547  20408783.68249
 -16067115.46349 -12519816.28546         0.00041  21828723.61346  21828720.87049
  15905001.53448  12393499.42545         0.00041  23705630.34145  23705628.60448
 02 07 10 17 26 00.0000000  0  8 03 09 14 15 17 18 21 23
  -5315401.36748  -4141867.20345         0.00041  23152328.32045  23152325.37848
   -437852.32848         0.00041         0.00041         0.00041  24980796.08248
  -3752576.29648  -2924078.13441         0.00041         0.00041  24553431.08348
  -8762895.49549  -6828227.94046         0.00041  20439500.45146  20439499.07749
  -4548789.02149  -3544510.98346         0.00041  20650783.20846  20650781.00949
 -11949253.83049  -9311102.09447         0.00041  20410171.29647  20410171.56349
 -16106532.11349 -12550530.52346         0.00041  21821222.62646  21821220.38749
  15985268.22748  12456044.83345         0.00041  23720904.07845  23720902.54548
 02 07 10 17 26 30.0000000  0  8 03 09 14 15 17 18 21 23
  -5396981.98348  -4205436.50645         0.00041  23136802.90745  23136800.93648
   -510638.20248         0.00041         0.00041         0.00041  24966944.49048
  -3866506.75448  -3012854.84944         0.00041  24531754.26644  24531748.86648
  -8768403.00049  -6832519.51046         0.00041  20438452.13646  20438450.65549
  -4540890.51149  -3538356.30546         0.00041  20652285.82846  20652284.22149
 -11941622.16249  -9305155.34047         0.00041  20411623.72247  20411624.04849
 -16145703.51649 -12581053.66446         0.00041  21813768.51646  21813765.63049
  16065518.25948  12518577.28744         0.00041  23736174.61944  23736172.43748
 02 07 10 17 27 00.0000000  0  8 03 09 14 15 17 18 21 23
  -5478226.29448  -4268743.68645         0.00041  23121342.57145  23121339.29948
   -583356.59448         0.00041         0.00041         0.00041  24953106.30548
  -3980417.51048  -3101616.20344         0.00041  24510078.72744  24510071.26348
  -8773644.25349  -6836603.60846         0.00041  20437454.93446  20437453.54649
  -4532740.19149  -3532005.40546         0.00041  20653836.85846  20653835.03949
 -11933638.09249  -9298933.99647         0.00041  20413142.98347  20413143.23449
 -16184613.20749 -12611372.87746         0.00041  21806364.34846  21806361.57149
  16145767.47748  12581109.11144         0.00041  23751445.47044  23751443.92948
 02 07 10 17 27 30.0000000  0  8 03 09 14 15 17 18 21 23
  -5559126.60648  -4331782.81145         0.00041  23105948.33545  23105945.12748
   -655999.86648         0.00041         0.00041         0.00041  24939282.34048
  -4094301.32248  -3190356.59344         0.00041  24488409.61544  24488400.43148
  -8778613.57349  -6840475.80146         0.00041  20436509.15746  20436507.54749
  -4524332.18949  -3525453.77946         0.00041  20655436.50246  20655435.10749
 -11925298.06949  -9292435.26647         0.00041  20414730.46847  20414730.29249
 -16223256.75049 -12641484.69746         0.00041  21799010.60846  21799008.08049
  16226019.37248  12643642.95945         0.00041  23766718.48745  23766715.30048
 02 07 10 17 28 00.0000000  0  8 03 09 14 15 17 18 21 23
  -5639681.05348  -4394552.48045         0.00041  23090617.03445  23090616.25948
   -728565.16547         0.00041         0.00041         0.00041  24925473.35947
  -4208155.66248  -3279074.03644         0.00041  24466746.05444  24466734.38848
  -8783310.27349  -6844135.57346         0.00041  20435615.71046  20435614.09649
  -4515666.07849  -3518700.98546         0.00041  20657085.84646  20657084.71449
 -11916603.77549  -9285660.50447         0.00041  20416384.30747  20416384.84549
 -16261634.92749 -12671389.74046         0.00041  21791706.56546  21791705.45149
  16306272.56548  12706177.84345         0.00041  23781992.33345  23781987.61748
 02 07 10 17 28 30.0000000  0  7 03 14 15 17 18 21 23
  -5719905.87148  -4457065.32645         0.00041  23075353.61145  23075350.99048
  -4321996.70748  -3367781.10544         0.00041  24445077.57044  24445070.56548
  -8787752.11849  -6847596.76146         0.00041  20434770.38146  20434768.97449
  -4506759.46449  -3511760.75346         0.00041  20658780.73146  20658779.07649
 -11907575.07349  -9278625.16647         0.00041  20418102.59947  20418102.97349
 -16299767.01849 -12701103.03346         0.00041  21784450.66146  21784448.40749
  16386507.28248  12768698.33345         0.00041  23797258.49345  23797254.89448
 02 07 10 17 29 00.0000000  0  7 03 14 15 17 18 21 23
  -5799802.06048  -4519322.03945         0.00041  23060149.22845  23060146.46448
  -4435825.38948  -3456478.53344         0.00041  24423419.77144  24423411.08448
  -8791941.90049  -6850861.53447         0.00041  20433972.71747  20433971.54749
  -4497614.94149  -3504635.17246         0.00041  20660520.97946  20660519.51649
 -11898216.71849  -9271332.94947         0.00041  20419883.63447  20419883.79749
 -16337657.01049 -12730627.67546         0.00041  21777240.28646  21777238.68349
  16466718.81948  12831200.76044         0.00041  23812522.05944  23812517.85948
 02 07 10 17 29 30.0000000  0  7 03 14 15 17 18 21 23
  -5879338.42848  -4581298.37945         0.00041  23045013.66345  23045010.48248
  -4549610.27948  -3545141.85244         0.00041  24401764.91244  24401759.13148
  -8795849.80249  -6853906.65646         0.00041  20433229.58546  20433228.02749
  -4488202.67649  -3497300.95046         0.00041  20662311.43246  20662310.60449
 -11888501.16649  -9263762.39747         0.00041  20421732.58447  20421732.83249
 -16375276.58149 -12759941.60846         0.00041  21770081.66746  21770078.95049
  16546934.78948  12893706.64545         0.00041  23827787.00745  23827783.82548
 02 07 10 17 30 00.0000000  0  8 03 09 14 15 17 18 21 23
  -5958499.55948  -4642982.36745         0.00041  23029949.13645  23029946.25548
        -0.50858         0.00051         0.00051         0.00051  24870377.19058
  -4663335.85148  -3633758.94044         0.00041  24380121.62044  24380116.54348
  -8799461.92849  -6856721.30547         0.00041  20432542.32647  20432540.70649
  -4478508.91749  -3489747.39046         0.00041  20664156.58846  20664155.17149
 -11878416.67249  -9255904.35747         0.00041  20423651.03547  20423651.33749
 -16412613.22449 -12789035.06446         0.00041  21762977.14346  21762975.32249
  16627167.07348  12956225.23045         0.00041  23843056.49645  23843051.83548
 02 07 10 17 30 30.0000000  0  8 03 09 14 15 17 18 21 23
  -6037311.74148  -4704394.38445         0.00041  23014952.60645  23014949.52848
    -72151.94747         0.00041         0.00041         0.00041  24856646.31047
  -4777028.58348  -3722350.45044         0.00041  24358488.57344  24358479.88548
  -8802806.16449  -6859327.21047         0.00041  20431905.42747  20431904.47149
  -4468561.54949  -3481996.21746         0.00041  20666049.95046  20666048.33649
 -11867993.20149  -9247782.17747         0.00041  20425634.69847  20425635.05449
 -16449696.14249 -12817930.82646         0.00041  21755919.66646  21755918.09849
  16707385.75448  13018733.22145         0.00041  23858319.26745  23858315.72748
 02 07 10 17 31 00.0000000  0  8 03 09 14 15 17 18 21 23
  -6115765.27848  -4765526.99245         0.00041  23000023.04745  23000020.10748
   -144208.52547         0.00041         0.00041         0.00041  24842935.36647
  -4890678.33248  -3810908.46844         0.00041  24336859.07344  24336854.16848
  -8805874.78849  -6861718.35447         0.00041  20431321.82047  20431320.17249
  -4458352.31249  -3474040.98246         0.00041  20667992.56846  20667990.69349
 -11857225.14349  -9239391.48946         0.00041  20427683.86746  20427684.13749
 -16486518.14049 -12846623.26246         0.00041  21748913.10846  21748910.96449
  16787596.86048  13081235.32345         0.00041  23873584.54745  23873579.72648
 02 07 10 17 31 30.0000000  0  7 03 14 15 17 18 21 23
  -6193871.02548  -4826388.57845         0.00041  22985159.96645  22985155.95148
  -5004295.62948  -3899441.25344         0.00041  24315238.33044  24315234.51248
  -8808679.72349  -6863904.02447         0.00041  20430788.04547  20430786.53049
  -4447893.31449  -3465891.11946         0.00041  20669982.87446  20669981.04149
 -11846126.81349  -9230743.44147         0.00041  20429795.73947  20429796.11849
 -16523093.60149 -12875123.59746         0.00041  21741952.60046  21741950.88349
  16867786.42248  13143720.60645         0.00041  23888842.11845  23888840.56548
 02 07 10 17 32 00.0000000  0  7 03 14 15 17 18 21 23
  -6271638.98248  -4886986.90845         0.00041  22970360.57345  22970356.80448
  -5117890.15548  -3987956.22844         0.00041  24293624.31844  24293618.42548
  -8811232.17749  -6865892.95546         0.00041  20430302.34946  20430300.89449
  -4437195.82849  -3457555.41746         0.00041  20672018.36846  20672016.67849
 -11834711.54549  -9221848.43147         0.00041  20431968.27847  20431968.17349
 -16559435.29549 -12903441.77246         0.00041  21735038.03246  21735035.13349
  16947940.98948  13206178.62945         0.00041  23904095.99045  23904093.87548
 02 07 10 17 32 30.0000000  0  7 03 14 15 17 18 21 23
  -6349035.53648  -4947295.89945         0.00041  22955631.66845  22955629.29148
  -5231428.32648  -4076427.30644         0.00041  24272018.18644  24272011.69148
  -8813500.49949  -6867660.48246         0.00041  20429870.62446  20429869.13849
  -4426228.24149  -3449009.25946         0.00041  20674105.73946  20674103.97249
 -11822949.86149  -9212683.48847         0.00041  20434206.41147  20434206.61649
 -16595512.85549 -12931554.12646         0.00041  21728172.08446  21728170.15649
  17028090.26148  13268632.50745         0.00041  23919348.06245  23919344.93748
 02 07 10 17 33 00.0000000  0  7 03 14 15 17 18 21 23
  -6426073.61948  -5007325.52645         0.00041  22940972.39445  22940969.97748
  -5344922.77548  -4164864.34144         0.00041  24250422.21344  24250414.92848
  -8815498.88049  -6869217.66746         0.00041  20429490.42746  20429488.85149
  -4415004.63649  -3440263.60346         0.00041  20676241.43946  20676239.79949
 -11810858.19749  -9203261.41747         0.00041  20436507.39847  20436507.49649
 -16631341.61849 -12959472.62846         0.00041  21721354.66446  21721351.45149
  17108218.21548  13331069.78745         0.00041  23934595.99445  23934592.89148
 02 07 10 17 33 30.0000000  0  8 03 09 14 15 17 18 21 23
  -6502760.99148  -5067081.87345         0.00041  22926379.41945  22926376.30448
        -0.60157         0.00051         0.00051         0.00051  24774633.51357
  -5458380.97948  -4253273.09644         0.00041  24228831.41144  24228824.04148
  -8817236.57149  -6870571.71546         0.00041  20429159.68646  20429158.20449
  -4403534.26749  -3431325.66246         0.00041  20678424.52046  20678422.59049
 -11798447.83849  -9193591.00947         0.00041  20438869.02647  20438869.05449
 -16666933.05949 -12987206.17846         0.00041  21714581.42046  21714579.39149
  17188313.64948  13393481.76245         0.00041  23949837.41745  23949834.71848
 02 07 10 17 34 00.0000000  0  8 03 09 14 15 17 18 21 23
  -6579034.73748  -5126515.90545         0.00041  22911864.60345  22911861.19248
    -71441.86847         0.00041         0.00041         0.00041  24761039.14147
  -5571739.68748  -4341604.33044         0.00041  24207256.03244  24207251.20148
  -8818652.46849  -6871675.01246         0.00041  20428890.36146  20428888.71649
  -4391755.53949  -3422147.45146         0.00041  20680665.55446  20680663.80449
 -11785659.72249  -9183626.24347         0.00041  20441302.21547  20441302.48349
 -16702226.85449 -13014707.81946         0.00041  21707865.00546  21707862.78949
  17268435.89848  13455914.61145         0.00041  23965084.92845  23965081.83548
 02 07 10 17 34 30.0000000  0  8 03 09 14 15 17 18 21 23
  -6654902.84148  -5185633.85845         0.00041  22897427.96645  22897424.08948
   -142735.90847         0.00041         0.00041         0.00041  24747472.17147
  -5685007.03148  -4429864.41044         0.00041  24185702.15344  24185696.42548
  -8819756.14449  -6872535.03046         0.00041  20428680.40146  20428678.99549
  -4379678.22549  -3412736.57346         0.00041  20682963.94546  20682962.55049
 -11772505.73049  -9173376.37947         0.00041  20443805.68647  20443805.58049
 -16737234.21549 -13041986.25546         0.00041  21701203.37646  21701201.07749
  17348573.29648  13518359.25045         0.00041  23980335.00945  23980331.70248
 02 07 10 17 35 00.0000000  0  8 03 09 14 15 17 18 21 23
  -6730446.66448  -5244499.13245         0.00041  22883052.65445  22883049.46148
   -213962.91047         0.00041         0.00041         0.00041  24733917.19047
  -5798263.95148  -4518116.33744         0.00041  24164151.35344  24164145.20148
  -8820630.15049  -6873216.07846         0.00041  20428514.11746  20428512.59449
  -4367384.90349  -3403157.37246         0.00041  20685303.05746  20685301.34949
 -11759070.72349  -9162907.54647         0.00041  20446362.42547  20446362.11149
 -16772038.83349 -13069106.71346         0.00041  21694580.36146  21694577.98349
  17428641.43148  13580749.93344         0.00041  23995571.96644  23995567.70648
 02 07 10 17 35 30.0000000  0  8 03 09 14 15 17 18 21 23
  -6805612.95548  -5303070.23845         0.00041  22868748.45545  22868745.28648
   -285068.90047         0.00041         0.00041         0.00041  24720387.45647
  -5911457.05048  -4606318.54644         0.00041  24142607.84944  24142605.46848
  -8821222.85449  -6873677.93046         0.00041  20428400.96846  20428399.50549
  -4354823.96949  -3393369.64446         0.00041  20687693.52246  20687691.41349
 -11745305.39949  -9152181.32747         0.00041  20448981.43347  20448981.61549
 -16806591.10149 -13096030.54946         0.00041  21688005.62146  21688002.50249
  17508690.00448  13643125.37244         0.00041  24010801.58444  24010800.62348
 02 07 10 17 36 00.0000000  0  8 03 09 14 15 17 18 21 23
  -6880419.68448  -5361361.12245         0.00041  22854514.21045  22854510.99148
   -356070.83648         0.00041         0.00041         0.00041  24706875.22948
  -6024604.01348  -4694484.79744         0.00041  24121082.27544  24121074.73848
  -8821553.44649  -6873935.55446         0.00041  20428338.34846  20428336.77749
  -4342014.49649  -3383388.25546         0.00041  20690130.87546  20690129.61649
 -11731231.06149  -9141214.31247         0.00041  20451659.88947  20451660.32249
 -16840911.45649 -13122773.65546         0.00041  21681474.60246  21681472.45149
  17588697.72648  13705468.95344         0.00041  24026028.88044  24026025.46448
 02 07 10 17 36 30.0000000  0  8 03 09 14 15 17 18 21 23
  -6954861.02948  -5419367.35145         0.00041  22840347.54745  22840345.16748
   -426961.89448         0.00041         0.00041         0.00041  24693384.12848
  -6137698.44748  -4782610.12844         0.00041  24099557.13144  24099552.30748
  -8821617.33449  -6873985.34846         0.00041  20428326.18146  20428324.92149
  -4328951.92149  -3373209.64946         0.00041  20692616.54646  20692615.51549
 -11716845.26149  -9130004.59747         0.00041  20454397.47747  20454397.97949
 -16874996.75649 -13149333.60646         0.00041  21674988.83646  21674985.93949
  17668667.48048  13767782.99044         0.00041  24041247.97844  24041243.11048
 02 07 10 17 37 00.0000000  0  8 03 09 14 15 17 18 21 23
  -7028919.21148  -5477074.98045         0.00041  22826255.98245  22826252.82848
   -497723.77048   -387834.88141         0.00041         0.00041  24679917.46848
  -6250722.31748  -4870680.47944         0.00041  24078051.11244  24078044.89848
  -8821398.45449  -6873814.80147         0.00041  20428367.58447  20428366.31749
  -4315620.04049  -3362821.18646         0.00041  20695153.00646  20695152.05649
 -11702134.30249  -9118541.51947         0.00041  20457196.84847  20457197.30149
 -16908832.81349 -13175699.34646         0.00041  21668549.04346  21668547.12949
  17748613.47548  13830078.48544         0.00041  24056461.77944  24056457.11248
 02 07 10 17 37 30.0000000  0  8 03 09 14 15 17 18 21 23
  -7102572.44448  -5534467.03845         0.00041  22812239.85545  22812236.87648
   -568333.99148   -442855.69041         0.00041         0.00041  24666480.53648
  -6363653.76048  -4958678.78544         0.00041  24056559.96944  24056554.11648
  -8820876.56449  -6873408.13347         0.00041  20428467.17147  20428465.79949
  -4301998.71749  -3352207.17946         0.00041  20697745.40246  20697744.12449
 -11687080.16649  -9106811.02947         0.00041  20460061.62947  20460061.90149
 -16942400.49449 -13201855.96146         0.00041  21662161.26746  21662158.82249
  17828553.95848  13892369.68444         0.00041  24071670.86644  24071669.57248
 02 07 10 17 38 00.0000000  0  8 03 09 14 15 17 18 21 23
  -7175827.91448  -5591549.18845         0.00041  22798298.83645  22798297.40248
   -638798.84648   -497763.28341         0.00041         0.00041  24653071.62948
  -6476499.61448  -5046610.42144         0.00041  24035085.96644  24035080.31148
  -8820060.21749  -6872772.02046         0.00041  20428622.58946  20428620.98949
  -4288096.44049  -3341374.26146         0.00041  20700390.96846  20700389.57849
 -11671693.35749  -9094821.31247         0.00041  20462989.40147  20462989.86149
 -16975709.97249 -13227811.37646         0.00041  21655822.83846  21655820.77949
  17908478.44548  13954648.44844         0.00041  24086881.70744  24086878.84148
 02 07 10 17 38 30.0000000  0  8 03 09 14 15 17 18 21 23
  -7248706.69048  -5648337.82845         0.00041  22784429.43745  22784428.26748
   -709138.07648   -552572.91144         0.00041  24639693.61144  24639685.89448
  -6589280.39248  -5134491.33444         0.00041  24013622.57344  24013619.40248
  -8818971.52949  -6871923.69047         0.00041  20428829.51947  20428828.01149
  -4273935.26449  -3330339.59646         0.00041  20703086.16046  20703084.25049
 -11655998.57149  -9082591.61846         0.00041  20465975.76846  20465976.24249
 -17008784.78449 -13253583.93846         0.00041  21649528.61746  21649526.66849
  17988363.06648  14016896.16344         0.00041  24102082.27344  24102078.83148
 02 07 10 17 39 00.0000000  0  8 03 09 14 15 17 18 21 23
  -7321195.76848  -5704822.76745         0.00041  22770637.54345  22770633.51648
   -779337.84748   -607273.95044         0.00041  24626333.83744  24626327.24948
  -6701982.74248  -5222311.16145         0.00041  23992178.10045  23992174.02548
  -8817598.91249  -6870854.12146         0.00041  20429091.04946  20429089.46549
  -4259503.91949  -3319094.39946         0.00041  20705832.47446  20705830.34249
 -11639986.57749  -9070114.74446         0.00041  20469023.31846  20469023.44249
 -17041615.03949 -13279165.93546         0.00041  21643281.54946  21643278.71049
  18068217.23948  14079120.13544         0.00041  24117279.60244  24117276.09348
 02 07 10 17 39 30.0000000  0  8 03 09 14 15 17 18 21 23
  -7393283.75848  -5760995.14546         0.00041  22756919.79146  22756916.83948
   -849386.20748   -661856.98344         0.00041  24613002.91544  24612998.04148
  -6814595.28248  -5310060.98244         0.00041  23970747.20844  23970744.12248
  -8815932.59049  -6869555.69446         0.00041  20429407.85246  20429406.33849
  -4244792.31349  -3307630.81746         0.00041  20708632.03446  20708629.88749
 -11623649.65849  -9057384.68546         0.00041  20472131.97646  20472132.17149
 -17074192.29649 -13304550.79846         0.00041  21637082.30446  21637079.65349
  18148049.14648  14141326.73844         0.00041  24132469.00344  24132467.77448
 02 07 10 17 40 00.0000000  0  8 03 09 14 15 17 18 21 23
  -7464965.98248  -5816851.36945         0.00041  22743278.60645  22743276.14348
   -919277.75147         0.00041         0.00041         0.00041  24599697.14447
  -6927113.17748  -5397737.06744         0.00041  23949337.29844  23949332.22648
  -8813969.79749  -6868026.25246         0.00041  20429781.69346  20429780.33149
  -4229797.43849  -3295946.52346         0.00041  20711485.34346  20711483.81949
 -11606987.39949  -9044401.11346         0.00041  20475302.73546  20475302.93549
 -17106515.31049 -13329737.54946         0.00041  21630931.39046  21630929.39249
  18227859.93548  14203516.87644         0.00041  24147657.69944  24147654.83548
 02 07 10 17 40 30.0000000  0  8 03 09 14 15 17 18 21 23
  -7536265.99148  -5872409.82345         0.00041  22729709.34345  22729707.01148
   -989034.84547         0.00041         0.00041         0.00041  24586424.35147
  -7039559.30648  -5485357.26944         0.00041  23927938.73544  23927933.68848
  -8811735.05949  -6866284.90546         0.00041  20430206.76846  20430205.21749
  -4214543.98849  -3284060.74046         0.00041  20714388.28146  20714386.60349
 -11590026.28849  -9031184.66746         0.00041  20478530.63246  20478530.56449
 -17138610.08649 -13354746.44746         0.00041  21624824.79446  21624821.95449
  18307623.04448  14265669.85444         0.00041  24162836.03044  24162832.43148
 02 07 10 17 41 00.0000000  0  8 03 09 14 15 17 18 21 23
  -7607168.06548  -5927658.14845         0.00041  22716217.13945  22716214.49448
  -1058640.57147         0.00041         0.00041         0.00041  24573178.07147
  -7151917.51748  -5572908.94844         0.00041  23906556.85244  23906552.19048
  -8809214.07449  -6864320.50846         0.00041  20430686.31146  20430684.93249
  -4199017.48449  -3271962.18246         0.00041  20717342.72646  20717340.90049
 -11572754.18249  -9017725.88546         0.00041  20481817.21246  20481817.27249
 -17170463.89549 -13379567.57546         0.00041  21618762.35046  21618760.06849
  18387351.20948  14327795.59344         0.00041  24178009.02544  24178005.73048
 02 07 10 17 41 30.0000000  0  8 03 09 14 15 17 18 21 23
  -7677661.03448  -5982587.68446         0.00041  22702802.38946  22702800.96348
  -1128083.09147         0.00041         0.00041         0.00041  24559962.56447
  -7264176.39248  -5660383.20744         0.00041  23885193.55744  23885189.86348
  -8806397.02049  -6862125.41046         0.00041  20431222.65846  20431221.02549
  -4183208.08149  -3259643.18146         0.00041  20720351.31846  20720349.56049
 -11555163.56749  -9004018.91746         0.00041  20485164.58446  20485164.25649
 -17202068.50849 -13404194.52446         0.00041  21612748.05046  21612746.09749
  18467052.42148  14389900.33845         0.00041  24193174.19645  24193172.53448
 02 07 10 17 42 00.0000000  0  8 03 09 14 15 17 18 21 23
  -7747741.56748  -6037195.86846         0.00041  22689466.48846  22689465.96348
  -1197358.20448         0.00041         0.00041         0.00041  24546781.32848
  -7376332.03348  -5747777.00744         0.00041  23863852.89444  23863845.59248
  -8803281.91749  -6859698.06646         0.00041  20431815.29646  20431813.91149
  -4167113.84649  -3247102.24646         0.00041  20723414.02946  20723412.12649
 -11537254.89549  -8990064.11246         0.00041  20488572.44146  20488572.40149
 -17233423.64149 -13428627.07546         0.00041  21606781.22146  21606779.39349
  18546726.81148  14451984.20645         0.00041  24208337.72545  24208333.22248
 02 07 10 17 42 30.0000000  0  8 03 09 14 15 17 18 21 23
  -7817407.06348  -6091480.62345         0.00041  22676209.48245  22676208.11248
  -1266462.08048   -986850.54041         0.00041         0.00041  24533632.04148
  -7488381.57048  -5835088.15444         0.00041  23842529.15844  23842523.36048
  -8799867.42749  -6857037.43546         0.00041  20432464.93446  20432463.51449
  -4150733.34549  -3234338.24046         0.00041  20726530.71246  20726529.53949
 -11519028.90049  -8975862.03946         0.00041  20492040.57946  20492040.68549
 -17264529.32649 -13452865.23946         0.00041  21600862.28146  21600860.54249
  18626373.81448  14514046.75245         0.00041  24223493.76945  24223488.79048
 02 07 10 17 43 00.0000000  0  8 03 09 14 15 17 18 21 23
  -7886656.83648  -6145441.43946         0.00041  22663032.91246  22663029.81848
  -1335393.13748  -1040562.97744         0.00041  24520520.99544  24520514.27648
  -7600323.76348  -5922315.70844         0.00041  23821224.00844  23821223.79548
  -8796154.37149  -6854144.15346         0.00041  20433171.59746  20433170.26249
  -4134067.49049  -3221351.87946         0.00041  20729702.07546  20729700.73349
 -11500488.81649  -8961415.22347         0.00041  20495568.86347  20495568.84549
 -17295387.76249 -13476910.75346         0.00041  21594989.50046  21594988.34849
  18705991.00948  14576086.04245         0.00041  24238645.52345  24238640.33248
 02 07 10 17 43 30.0000000  0  8 03 09 14 15 17 18 21 23
  -7955519.80548  -6199100.85345         0.00041  22649927.77345  22649925.92948
  -1404179.69948         0.00041         0.00041         0.00041  24507425.04948
  -7712187.44148  -6009482.01444         0.00041  23799942.76044  23799935.13548
  -8792173.01949  -6851041.81746         0.00041  20433929.53946  20433928.22149
  -4117146.47449  -3208166.70346         0.00041  20732922.36546  20732920.88449
 -11481667.15549  -8946749.00347         0.00041  20499150.55647  20499150.59049
 -17326030.86049 -13500788.46046         0.00041  21589158.69546  21589156.57949
  18785546.20448  14638077.00945         0.00041  24253782.49045  24253779.29648
 02 07 10 17 44 00.0000000  0  8 03 09 14 15 17 18 21 23
  -8023959.21048  -6252430.23745         0.00041  22636903.80845  22636902.28648
  -1472784.13848  -1147620.76444         0.00041  24494379.03944  24494369.85548
  -7823935.67448  -6096558.39244         0.00041  23778672.99844  23778669.97248
  -8787887.96349  -6847702.82446         0.00041  20434744.79446  20434743.36249
  -4099935.18949  -3194755.34346         0.00041  20736197.51046  20736195.76449
 -11462530.73149  -8931837.51047         0.00041  20502791.95947  20502792.43649
 -17356425.13449 -13524472.28746         0.00041  21583374.62946  21583372.34549
  18865073.02248  14700045.87045         0.00041  24268917.22945  24268912.38148
 02 07 10 17 44 30.0000000  0  8 03 09 14 15 17 18 21 23
  -8091961.67848  -6305419.14845         0.00041  22623964.20745  22623961.43148
  -1541191.55348  -1200925.08041         0.00041         0.00041  24481351.56348
  -7935554.23448  -6183533.76544         0.00041  23757435.92644  23757429.82948
  -8783286.96449  -6844117.63746         0.00041  20435620.72146  20435619.12249
  -4082421.01249  -3181107.95146         0.00041  20739530.32346  20739528.46449
 -11443069.67849  -8916673.06147         0.00041  20506495.65547  20506495.87549
 -17386559.86549 -13547953.86446         0.00041  21577640.21346  21577638.08849
  18944581.94448  14762000.78345         0.00041  24284048.06445  24284042.41348
 02 07 10 17 45 00.0000000  0  8 03 09 14 15 17 18 21 23
  -8159528.07148  -6358068.25946         0.00041  22611106.10646  22611104.86848
  -1609401.76248  -1254075.72444         0.00041  24468377.86644  24468371.49948
  -8047043.36348  -6270408.28644         0.00041  23736220.64844  23736214.04648
  -8778372.21049  -6840287.97346         0.00041  20436555.89846  20436554.02949
  -4064606.18749  -3167226.28846         0.00041  20742920.48046  20742918.86149
 -11423288.25549  -8901258.96546         0.00041  20510259.67846  20510259.73549
 -17416438.41749 -13571235.81946         0.00041  21571955.03946  21571953.03049
  19024069.20448  14823938.81945         0.00041  24299174.67745  24299169.60248
 02 07 10 17 45 30.0000000  0  8 03 09 14 15 17 18 21 23
  -8226706.19048  -6410414.82745         0.00041  22598321.12045  22598320.53548
  -1677461.84648         0.00041         0.00041         0.00041  24455418.89648
  -8158450.63948  -6357219.02744         0.00041  23715015.35544  23715012.12948
  -8773192.98549  -6836252.23146         0.00041  20437541.22746  20437539.68249
  -4046540.00449  -3153148.76746         0.00041  20746358.25846  20746356.93549
 -11403238.17649  -8885635.53246         0.00041  20514075.07146  20514075.40349
 -17446111.94249 -13594358.01946         0.00041  21566307.62946  21566305.82549
  19103483.81748  14885820.25045         0.00041  24314286.29945  24314281.11348
 02 07 10 17 46 00.0000000  0  8 03 09 14 15 17 18 21 23
  -8293492.74848  -6462456.25946         0.00041  22585613.63946  22585611.64948
  -1745367.30948  -1360022.71741         0.00041         0.00041  24442496.87548
  -8269772.25748  -6443963.02944         0.00041  23693833.91744  23693828.56948
  -8767747.05549  -6832008.65446         0.00041  20438577.45046  20438575.62149
  -4028220.22049  -3138873.64046         0.00041  20749844.70946  20749842.91949
 -11382919.51049  -8869802.80646         0.00041  20517941.61646  20517941.45749
 -17475579.81749 -13617319.98746         0.00041  21560699.99046  21560698.54149
  19182826.10048  14947645.32844         0.00041  24329383.65044  24329378.18248
 02 07 10 17 46 30.0000000  0  8 03 09 14 15 17 18 21 23
  -8359859.54748  -6514170.61346         0.00041  22572984.83846  22572982.69848
  -1813088.87448         0.00041         0.00041         0.00041  24429610.16748
  -8380979.51948  -6530617.87644         0.00041  23672672.27844  23672667.99948
  -8762007.97249  -6827536.64646         0.00041  20439669.79346  20439668.29649
  -4009620.12649  -3124380.09246         0.00041  20753383.94646  20753382.00149
 -11362307.40449  -8853741.42846         0.00041  20521863.63946  20521863.73849
 -17504816.33849 -13640101.66946         0.00041  21555136.59346  21555134.54049
  19262121.30648  15009433.73644         0.00041  24344471.53944  24344468.33948
 02 07 10 17 47 00.0000000  0  8 03 09 14 15 17 18 21 23
  -8425787.97448  -6565543.40145         0.00041  22560437.80745  22560436.22148
  -1880606.73148  -1465403.84641         0.00041         0.00041  24416761.00648
  -8492053.31948  -6617168.77044         0.00041  23651535.08344  23651531.33248
  -8755958.07649  -6822822.44246         0.00041  20440821.18846  20440819.50349
  -3990722.19449  -3109654.45846         0.00041  20756979.73246  20756978.21149
 -11341387.04249  -8837439.85246         0.00041  20525845.04346  20525845.08649
 -17533805.92249 -13662690.93946         0.00041  21549620.36146  21549618.24749
  19341385.05548  15071197.59244         0.00041  24359556.69344  24359552.11348
 02 07 10 17 47 30.0000000  0  8 03 09 14 15 17 18 21 23
  -8491267.07348  -6616566.06845         0.00041  22547976.75545  22547975.10648
  -1947909.23448  -1517847.28041         0.00041         0.00041  24403953.49148
  -8602982.13948  -6703606.67444         0.00041  23630426.06944  23630422.47948
  -8749587.53149  -6817858.38746         0.00041  20442033.25346  20442031.69449
  -3971516.59749  -3094689.07946         0.00041  20760634.51846  20760633.18249
 -11320150.57149  -8820891.95446         0.00041  20529885.96746  20529885.96149
 -17562540.11949 -13685081.19946         0.00041  21544152.49646  21544150.49149
  19420625.51848  15132943.30044         0.00041  24374638.00444  24374632.19548
 02 07 10 17 48 00.0000000  0  8 03 09 14 15 17 18 21 23
  -8556308.36148  -6667247.54845         0.00041  22535600.95445  22535599.29948
  -2015006.68848  -1570130.95644         0.00041  24391190.23344  24391186.88048
  -8713777.07148  -6789940.28245         0.00041  23609343.68645  23609338.64748
  -8742909.25849  -6812654.54046         0.00041  20443303.96246  20443302.42149
  -3952016.33449  -3079494.09546         0.00041  20764346.08546  20764343.98149
 -11298613.43949  -8804109.77946         0.00041  20533984.71146  20533984.54649
 -17591034.03649 -13707284.22446         0.00041  21538730.04146  21538728.01149
  19499827.96648  15194659.44544         0.00041  24389703.33744  24389702.69148
 02 07 10 17 48 30.0000000  0  8 03 09 14 15 17 18 21 23
  -8620916.32348  -6717591.36446         0.00041  22523307.98146  22523305.86748
  -2081902.74648  -1622257.66641         0.00041         0.00041  24378457.27948
  -8824442.14148  -6876172.67244         0.00041  23588282.81944  23588279.89148
  -8735928.93649  -6807215.33047         0.00041  20444632.25447  20444630.77349
  -3932227.23649  -3064074.04646         0.00041  20768111.98246  20768110.02949
 -11276783.42649  -8787099.38746         0.00041  20538138.52546  20538138.73549
 -17619294.73349 -13729305.53046         0.00041  21533352.43146  21533350.36549
  19578985.10148  15256340.20244         0.00041  24404769.32144  24404766.78348
 02 07 10 17 49 00.0000000  0  8 03 09 14 15 17 18 21 23
  -8685103.52148  -6767607.34445         0.00041  22511092.31045  22511090.01348
  -2148608.90648  -1674236.34944         0.00041  24365768.44744  24365763.13748
  -8934989.35748  -6962313.23445         0.00041  23567247.47045  23567243.04248
  -8728660.50449  -6801551.61547         0.00041  20446015.76847  20446013.71849
  -3912162.80949  -3048439.44146         0.00041  20771929.47346  20771927.99649
 -11254676.70449  -8769873.37846         0.00041  20542345.12246  20542345.35849
 -17647337.87649 -13751157.30846         0.00041  21528015.79846  21528013.48349
  19658081.45048  15317973.66344         0.00041  24419821.87944  24419818.44548
 02 07 10 17 49 30.0000000  0  8 03 09 14 15 17 18 21 23
  -8748837.39848  -6817270.07145         0.00041  22498964.21545  22498960.45248
  -2215091.53948  -1726040.89244         0.00041  24353119.47044  24353111.73948
  -9045385.70248  -7048336.24944         0.00041  23546238.56544  23546234.66848
  -8721072.50649  -6795638.89746         0.00041  20447459.47046  20447457.67749
  -3891791.98349  -3032566.09346         0.00041  20775806.59546  20775804.28749
 -11232264.22949  -8752409.11846         0.00041  20546609.94946  20546610.25549
 -17675133.50949 -13772816.22146         0.00041  21522726.23846  21522724.57449
  19737146.62248  15379582.80541         0.00041         0.00041  24434863.22248
 02 07 10 17 50 00.0000000  0  8 03 09 14 15 17 18 21 23
  -8812132.03048  -6866590.52646         0.00041  22486920.33246  22486917.16948
  -2281363.41548  -1777681.17344         0.00041  24340505.22044  24340500.15048
  -9155644.41848  -7134252.00344         0.00041  23525258.55944  23525253.81348
  -8713180.30349  -6789489.13946         0.00041  20448961.31646  20448960.11949
  -3871129.84149  -3016465.75546         0.00041  20779738.18146  20779736.24949
 -11209563.30349  -8734720.09046         0.00041  20550929.95846  20550930.14349
 -17702698.34749 -13794295.29846         0.00041  21517481.18046  21517478.45549
  19816163.89448  15441154.59244         0.00041  24449906.99544  24449899.72748
 02 07 10 17 50 30.0000000  0  8 03 09 14 15 17 18 21 23
  -8874962.38248  -6915549.20345         0.00041  22474963.51745  22474960.17648
  -2347398.32148  -1829136.82344         0.00041  24327939.13744  24327933.95648
  -9265740.37148  -7220040.92044         0.00041  23504305.45544  23504302.29648
  -8704960.15749  -6783083.84446         0.00041  20450525.25846  20450523.84749
  -3850152.80349  -3000120.04046         0.00041  20783729.67246  20783728.19649
 -11186552.78749  -8716789.82846         0.00041  20555308.83946  20555309.21249
 -17730010.26249 -13815577.29346         0.00041  21512283.77546  21512281.93349
  19895155.19748  15502706.16944         0.00041  24464935.20744  24464931.30848
 02 07 10 17 51 00.0000000  0  8 03 09 14 15 17 18 21 23
  -8937355.90848  -6964167.46445         0.00041  22463090.22245  22463087.54648
  -2413222.31948  -1880428.06541         0.00041         0.00041  24315407.01248
  -9375699.97348  -7305723.58644         0.00041  23483381.15244  23483377.39448
  -8696440.29449  -6776445.01046         0.00041  20452146.76546  20452145.21149
  -3828889.12549  -2983550.95946         0.00041  20787776.41446  20787774.64049
 -11163263.21749  -8698642.11746         0.00041  20559740.75446  20559741.17349
 -17757099.05849 -13836685.42246         0.00041  21507128.44846  21507126.61549
  19974090.70748  15564214.27244         0.00041  24479956.39244  24479952.90748
 02 07 10 17 51 30.0000000  0  7 03 14 15 17 18 21 23
  -8999311.15248  -7012444.27245         0.00041  22451301.11345  22451297.99948
  -9485521.11848  -7391298.38144         0.00041  23462482.35544  23462479.19248
  -8687620.84049  -6769572.72246         0.00041  20453825.21446  20453823.57149
  -3807338.57649  -2966758.35246         0.00041  20791877.32846  20791875.52049
 -11139696.44449  -8680278.41046         0.00041  20564225.31746  20564225.61949
 -17783966.36249 -13857620.97146         0.00041  21502016.11946  21502014.20549
  20052968.86448  15625677.66644         0.00041  24494964.89844  24494963.78548
 02 07 10 17 52 00.0000000  0  7 03 14 15 17 18 21 23
  -9060835.89048  -7060385.59745         0.00041  22439592.96745  22439589.51348
  -9595211.38548  -7476771.18445         0.00041  23441609.54045  23441606.79348
  -8678511.03949  -6762474.18546         0.00041  20455558.42746  20455557.04349
  -3785510.46349  -2949749.45746         0.00041  20796031.12646  20796029.38749
 -11115864.09949  -8661707.76046         0.00041  20568760.61746  20568760.93749
 -17810622.85849 -13878392.24546         0.00041  21496943.33246  21496941.76649
  20131778.86248  15687088.01844         0.00041  24509960.26544  24509960.54848
 02 07 10 17 52 30.0000000  0  8 03 09 14 15 17 18 21 23
  -9121916.88248  -7107981.12846         0.00041  22427969.50746  22427967.06048
        -0.54057         0.64251         0.00051         0.00051  24278071.38857
  -9704756.87048  -7562131.15245         0.00041  23420764.59045  23420760.70448
  -8669098.73749  -6755139.93046         0.00041  20457349.94746  20457348.30349
  -3763392.58249  -2932514.75446         0.00041  20800240.01146  20800238.04149
 -11091756.05149  -8642922.27947         0.00041  20573348.24647  20573348.26049
 -17837057.92049 -13898990.98446         0.00041  21491912.42046  21491911.21849
  20210531.39748  15748453.55744         0.00041  24524948.11544  24524945.68848
 02 07 10 17 53 00.0000000  0  8 03 09 14 15 17 18 21 23
  -9182529.95648  -7155212.04646         0.00041  22416435.37546  22416432.66648
    -64937.44848         0.00041         0.00041         0.00041  24265715.61148
  -9814132.51548  -7647358.80245         0.00041  23399951.95645  23399946.15748
  -8659360.55549  -6747551.74446         0.00041  20459202.90346  20459201.50549
  -3740961.78149  -2915036.21746         0.00041  20804509.21246  20804506.40749
 -11067351.56149  -8623905.80747         0.00041  20577992.40047  20577992.46149
 -17863250.03549 -13919400.41246         0.00041  21486928.49646  21486926.92049
  20289248.09748  15809791.18944         0.00041  24539929.22144  24539925.60448
 02 07 10 17 53 30.0000000  0  8 03 09 14 15 17 18 21 23
  -9242676.20748  -7202079.23046         0.00041  22404989.32746  22404987.45948
   -129628.01747         0.00041         0.00041         0.00041  24253404.07847
  -9923339.05348  -7732454.69445         0.00041  23379170.82445  23379165.52048
  -8649299.04749  -6739711.61446         0.00041  20461117.41546  20461115.99249
  -3718220.48549  -2897315.75146         0.00041  20808836.03446  20808834.15849
 -11042655.14249  -8604661.85246         0.00041  20582691.62046  20582691.68349
 -17889202.79949 -13939623.32846         0.00041  21481990.66346  21481988.21849
  20367924.99248  15871097.76244         0.00041  24554902.03444  24554898.16548
 02 07 10 17 54 00.0000000  0  8 03 09 14 15 17 18 21 23
  -9302362.74748  -7248588.20846         0.00041  22393630.98446  22393629.27448
   -194078.13247   -151228.32141         0.00041         0.00041  24241139.14847
 -10032382.87348  -7817423.74745         0.00041  23358417.33545  23358415.90148
  -8638922.37849  -6731625.90946         0.00041  20463092.31546  20463090.46349
  -3695176.90349  -2879359.73246         0.00041  20813220.88546  20813219.05149
 -11017677.36249  -8585198.65746         0.00041  20587444.79446  20587445.07449
 -17914926.49949 -13959667.74446         0.00041  21477095.42446  21477092.84349
  20446552.24148  15932365.69044         0.00041  24569864.25144  24569860.83048
 02 07 10 17 54 30.0000000  0  8 03 09 14 15 17 18 21 23
  -9361586.76548  -7294736.75546         0.00041  22382362.60746  22382359.62948
   -258283.50348         0.00041         0.00041         0.00041  24228921.72948
 -10141260.11848  -7902263.01945         0.00041  23337699.09845  23337696.26448
  -8628228.60149  -6723293.11246         0.00041  20465127.41646  20465125.64449
  -3671829.16149  -2861166.70146         0.00041  20817663.81646  20817661.93749
 -10992418.48849  -8565516.42246         0.00041  20592251.75846  20592251.88749
 -17940420.58749 -13979533.24846         0.00041  21472243.23946  21472241.54149
  20525130.46748  15993595.38844         0.00041  24584816.32744  24584812.44248
 02 07 10 17 55 00.0000000  0  8 03 09 14 15 17 18 21 23
  -9420359.52348  -7340533.66346         0.00041  22371178.23246  22371175.09348
   -322626.03747         0.00041         0.00041         0.00041  24216746.27147
 -10249981.76548  -7986981.04945         0.00041  23317011.32345  23317006.40348
  -8617230.37349  -6714723.07446         0.00041  20467219.97446  20467218.48249
  -3648189.97449  -2842746.58246         0.00041  20822162.50446  20822160.70749
 -10966893.42249  -8545626.77046         0.00041  20597109.04346  20597109.06249
 -17965699.58649 -13999231.15046         0.00041  21467433.62846  21467431.68049
  20603645.27548  16054775.64744         0.00041  24599758.11944  24599753.59548
 02 07 10 17 55 30.0000000  0  8 03 09 14 15 17 18 21 23
  -9478684.09948  -7385981.34646         0.00041  22360078.46846  22360076.82648
   -387114.93647         0.00041         0.00041         0.00041  24204616.50947
 -10358550.22548  -8071579.72345         0.00041  23296349.99745  23296345.95448
  -8605931.89649  -6705919.08046         0.00041  20469370.38146  20469368.49549
  -3624263.39149  -2824102.51946         0.00041  20826715.20846  20826713.53049
 -10941108.56549  -8525534.69046         0.00041  20602015.78946  20602015.76249
 -17990769.23049 -14018765.91446         0.00041  21462662.95246  21462660.81749
  20682091.12848  16115902.22844         0.00041  24614684.73644  24614681.52748
 02 07 10 17 56 00.0000000  0  7 03 14 15 17 18 21 23
  -9536538.75348  -7431062.88946         0.00041  22349068.84546  22349067.21448
 -10466943.10548  -8156041.56445         0.00041  23275725.46945  23275720.75348
  -8594312.45949  -6696864.98646         0.00041  20471581.25846  20471579.46049
  -3600028.86649  -2805218.48546         0.00041  20831326.92546  20831324.92249
 -10915045.31449  -8505225.67346         0.00041  20606975.28346  20606975.44449
 -18015610.16449 -14038122.46146         0.00041  21457935.63646  21457933.67149
  20760487.07148  16176989.87144         0.00041  24629604.20944  24629599.73148
 02 07 10 17 56 30.0000000  0  8 03 09 14 15 17 18 21 23
  -9593925.86448  -7475780.09646         0.00041  22338148.61146  22338146.41448
        -0.59958         0.43151         0.00051         0.00051  24180507.25258
 -10575162.03848  -8240367.89045         0.00041  23255131.51745  23255127.26048
  -8582375.77549  -6687563.68346         0.00041  20473852.82046  20473851.39949
  -3575489.97849  -2786097.29146         0.00041  20835996.45146  20835994.74549
 -10888709.61849  -8484704.36946         0.00041  20611986.78046  20611986.88449
 -18040227.92649 -14057305.11346         0.00041  21453250.65346  21453248.99949
  20838828.16548  16238034.80244         0.00041  24644511.07244  24644507.54548
 02 07 10 17 57 00.0000000  0  8 03 09 14 15 17 18 21 23
  -9650830.04948  -7520120.99746         0.00041  22327319.96846  22327318.20248
    -62958.62848    -49057.73841         0.00041         0.00041  24168526.53348
 -10683190.81648  -8324546.02145         0.00041  23234571.88945  23234570.09648
  -8570107.14349  -6678003.72347         0.00041  20476187.63047  20476185.99549
  -3550632.04049  -2766727.49646         0.00041  20840726.90346  20840725.89549
 -10862088.95849  -8463961.01446         0.00041  20617052.41046  20617052.59549
 -18064609.36149 -14076303.61246         0.00041  21448611.16646  21448609.73249
  20917127.55748  16299047.22144         0.00041  24659409.75944  24659407.64348
 02 07 10 17 57 30.0000000  0  8 03 09 14 15 17 18 21 23
  -9707285.95448  -7564112.58646         0.00041  22316577.89546  22316575.15048
   -125678.81448         0.00041         0.00041         0.00041  24156591.66648
 -10791063.21048  -8408602.30145         0.00041  23214046.66645  23214041.96448
  -8557542.40449  -6668213.03046         0.00041  20478578.57846  20478576.65049
  -3525490.75749  -2747136.92646         0.00041  20845510.92746  20845509.54849
 -10835221.34149  -8443025.22846         0.00041  20622165.24246  20622165.17649
 -18088791.68449 -14095146.95446         0.00041  21444009.34146  21444007.13749
  20995347.97148  16359998.08744         0.00041  24674299.30344  24674292.89648
 02 07 10 17 58 00.0000000  0  8 03 09 14 15 17 18 21 23
  -9763274.52548  -7607740.00946         0.00041  22305923.71546  22305920.76748
   -188141.12348   -146602.21941         0.00041         0.00041  24144704.90848
 -10898759.57848  -8492521.44745         0.00041  23193550.88845  23193547.31748
  -8544663.58349  -6658177.60246         0.00041  20481029.02946  20481027.26249
  -3500048.26549  -2727311.64146         0.00041  20850353.01946  20850351.55449
 -10808091.07849  -8421884.77346         0.00041  20627327.99946  20627328.01349
 -18112758.91749 -14113822.69946         0.00041  21439448.86046  21439447.08549
  21073505.89248  16420900.30644         0.00041  24689168.55844  24689165.00348
 02 07 10 17 58 30.0000000  0  8 03 09 14 15 17 18 21 23
  -9818784.63248  -7650994.62746         0.00041  22295359.13646  22295357.15948
   -250333.01248         0.00041         0.00041         0.00041  24132870.43048
 -11006267.88748  -8576294.00845         0.00041  23173093.59345  23173088.87948
  -8531460.33249  -6647889.37147         0.00041  20483541.96147  20483540.24049
  -3474294.62449  -2707243.88846         0.00041  20855253.60946  20855252.08549
 -10780690.12949  -8400533.39546         0.00041  20632542.36046  20632542.25049
 -18136501.91349 -14132323.72346         0.00041  21434930.66846  21434928.37149
  21151610.12348  16481760.68244         0.00041  24704034.88744  24704028.35348
 02 07 10 17 59 00.0000000  0  8 03 09 14 15 17 18 21 23
  -9873828.08548  -7693885.62546         0.00041  22284884.50046  22284882.15848
   -312264.98448         0.00041         0.00041         0.00041  24121085.98248
 -11113599.35648  -8659928.81045         0.00041  23152667.97445  23152664.90848
  -8517945.92649  -6637358.68447         0.00041  20486113.46947  20486111.99349
  -3448242.51249  -2686943.56846         0.00041  20860211.33046  20860209.30649
 -10753033.72749  -8378982.96146         0.00041  20637805.33046  20637805.20749
 -18160035.07649 -14150661.23546         0.00041  21430451.90746  21430450.40549
  21229646.19348  16542567.94544         0.00041  24718884.46044  24718877.89548
 02 07 10 17 59 30.0000000  0  8 03 09 14 15 17 18 21 23
  -9928402.26248  -7736410.93846         0.00041  22274500.79946  22274497.86248
   -373933.19647         0.00041         0.00041         0.00041  24109350.19647
 -11220750.64548  -8743423.23545         0.00041  23132277.51745  23132274.72448
  -8504118.87649  -6626584.38046         0.00041  20488744.37346  20488743.15149
  -3421890.55249  -2666409.61146         0.00041  20865226.24446  20865224.32049
 -10725122.41149  -8357233.89046         0.00041  20643116.38846  20643116.47749
 -18183358.86749 -14168835.60646         0.00041  21426014.16546  21426011.99149
  21307614.31548  16603322.24044         0.00041  24733719.36244  24733714.82648
 02 07 10 18 00 00.0000000  0  7 03 14 15 17 18 21 23
  -9982488.31348  -7778555.90446         0.00041  22264207.79446  22264205.88348
 -11327701.88448  -8826761.72145         0.00041  23111925.81545  23111923.41348
  -8489961.16049  -6615552.41546         0.00041  20491438.77846  20491437.27549
  -3395220.75249  -2645627.98346         0.00041  20870300.90846  20870299.34949
 -10696940.34549  -8335273.84446         0.00041  20648479.37046  20648479.35949
 -18206457.07449 -14186834.18746         0.00041  21421618.83246  21421617.08849
  21385531.20748  16664036.59544         0.00041  24748543.68144  24748542.32148
 02 07 10 18 00 30.0000000  0  7 03 14 15 17 18 21 23
 -10036090.79348  -7820324.05146         0.00041  22254007.26546  22254004.86848
 -11434457.18048  -8909947.53245         0.00041  23091611.64345  23091608.48848
  -8475478.30249  -6604267.09546         0.00041  20494194.96146  20494193.37349
  -3368238.87549  -2624603.17646         0.00041  20875435.74746  20875433.89649
 -10668495.48049  -8313109.01946         0.00041  20653892.00346  20653892.33049
 -18229336.62649 -14204662.39746         0.00041  21417264.28246  21417262.45349
  21463389.66048  16724705.37744         0.00041  24763362.67944  24763358.00548
 02 07 10 18 01 00.0000000  0  7 03 14 15 17 18 21 23
 -10089154.85748  -7861672.65446         0.00041  22243910.08646  22243907.60248
 -11540960.90648  -8992937.34545         0.00041  23071344.92145  23071340.87448
  -8460616.82149  -6592686.73146         0.00041  20497022.67746  20497021.37649
  -3340891.23749  -2603293.35946         0.00041  20880639.52346  20880638.14849
 -10639736.53449  -8290699.45146         0.00041  20659365.14946  20659364.93049
 -18251945.55049 -14222279.71446         0.00041  21412962.51846  21412960.46449
  21541241.98448  16785369.51344         0.00041  24778175.91544  24778172.69548
 02 07 10 18 01 30.0000000  0  7 03 14 15 17 18 21 23
 -10141765.33248  -7902667.82746         0.00041  22233898.42546  22233896.39948
 -11647296.65648  -9075796.28145         0.00041  23051109.28345  23051105.36548
  -8445462.08149  -6580877.85546         0.00041  20499906.84546  20499904.98149
  -3313263.42949  -2581765.22346         0.00041  20885896.64846  20885895.09349
 -10610750.97649  -8268113.30846         0.00041  20664880.40246  20664880.73649
 -18274370.42149 -14239753.61846         0.00041  21408695.13946  21408693.22149
  21619001.30248  16845961.08544         0.00041  24792974.86044  24792969.67948
 02 07 10 18 02 00.0000000  0  7 03 14 15 17 18 21 23
 -10193887.49348  -7943282.47546         0.00041  22223980.25546  22223977.02448
 -11753429.13348  -9158496.80345         0.00041  23030911.52545  23030908.82948
  -8429980.24349  -6568814.11346         0.00041  20502852.59546  20502851.37049
  -3285321.59349  -2559992.40346         0.00041  20891214.36146  20891212.36149
 -10581507.02749  -8245325.81646         0.00041  20670445.39146  20670445.83149
 -18296579.14749 -14257059.09546         0.00041  21404468.81646  21404467.28649
  21696700.01248  16906505.44244         0.00041  24807758.46944  24807756.28748
 02 07 10 18 02 30.0000000  0  7 03 14 15 17 18 21 23
 -10245508.58448  -7983506.66046         0.00041  22214156.62346  22214154.08548
 -11859344.44648  -9241028.11245         0.00041  23010757.35045  23010754.58648
  -8414159.55749  -6556486.33346         0.00041  20505863.24946  20505861.93249
  -3257053.93649  -2537965.69646         0.00041  20896593.64446  20896591.17549
 -10551995.17849  -8222329.57646         0.00041  20676061.51446  20676061.75849
 -18318562.10149 -14274188.65846         0.00041  21400285.23646  21400284.03249
  21774348.57248  16967010.70944         0.00041  24822535.00044  24822533.11748
 02 07 10 18 03 00.0000000  0  8 03 09 14 15 17 18 21 23
 -10296643.23048  -8023351.82546         0.00041  22204424.89846  22204424.48848
        -0.73057         0.00051         0.00051         0.00051  24028752.33657
 -11965056.94948  -9323401.38845         0.00041  22990641.22545  22990638.07948
  -8398015.99449  -6543906.95146         0.00041  20508935.43446  20508933.71649
  -3228476.54649  -2515697.62646         0.00041  20902031.69646  20902029.37049
 -10522233.50649  -8199138.67246         0.00041  20681724.90746  20681725.25549
 -18340336.05849 -14291155.35546         0.00041  21396142.50346  21396140.28449
  21851929.86648  17027463.59044         0.00041  24837300.76144  24837296.09548
 02 07 10 18 03 30.0000000  0  7 03 14 15 17 18 21 23
 -10347294.24948  -8062820.14546         0.00041  22194787.65546  22194785.79148
 -12070567.93848  -9405617.64645         0.00041  22970562.43145  22970559.97948
  -8381553.05349  -6531078.70146         0.00041  20512068.65246  20512066.87949
  -3199592.82049  -2493190.85146         0.00041  20907528.17246  20907525.91749
 -10492227.43249  -8175757.33346         0.00041  20687434.77646  20687435.11449
 -18361906.56049 -14307963.51746         0.00041  21392037.36746  21392035.57049
  21929439.21048  17087860.37844         0.00041  24852049.94844  24852044.98648
 02 07 10 18 04 00.0000000  0  7 03 14 15 17 18 21 23
 -10397483.58048  -8101928.68246         0.00041  22185237.08046  22185234.37548
 -12175898.66048  -9487693.43745         0.00041  22950518.48945  22950516.14048
  -8364793.36049  -6518019.22346         0.00041  20515257.60646  20515256.15449
  -3170425.58449  -2470463.16746         0.00041  20913078.27646  20913076.31849
 -10462002.03549  -8152205.09146         0.00041  20693186.32446  20693186.66749
 -18383297.92249 -14324632.09846         0.00041  21387966.64146  21387965.49749
  22006852.56948  17148182.39944         0.00041  24866781.92244  24866774.78148
 02 07 10 18 04 30.0000000  0  7 03 14 15 17 18 21 23
 -10447191.07748  -8140661.75046         0.00041  22175778.20046  22175775.20048
 -12281028.12148  -9569612.39545         0.00041  22930512.50545  22930509.48148
  -8347717.91249  -6504713.69246         0.00041  20518506.70346  20518505.25749
  -3140955.70249  -2447499.65346         0.00041  20918686.60046  20918684.22749
 -10431540.45549  -8128468.81046         0.00041  20698982.92946  20698983.45749
 -18404492.33249 -14341147.20446         0.00041  21383933.46846  21383931.66549
  22084187.68448         0.00041         0.00041         0.00041  24881492.15948
 02 07 10 18 05 00.0000000  0  7 03 14 15 17 18 21 23
 -10496387.81948  -8178996.84546         0.00041  22166416.15746  22166414.10348
 -12385926.28848  -9651351.12345         0.00041  22910552.58945  22910547.73448
  -8330298.82449  -6491140.38746         0.00041  20521821.80146  20521819.94249
  -3111155.20749  -2424278.51746         0.00041  20924357.61946  20924355.41549
 -10400816.48649  -8104528.06246         0.00041  20704829.69746  20704829.79749
 -18425463.11949 -14357488.06146         0.00041  21379943.06946  21379941.26849
  22161471.09348  17268664.21041         0.00041         0.00041  24896199.62748
 02 07 10 18 05 30.0000000  0  7 03 14 15 17 18 21 23
 -10545079.71048  -8216938.58346         0.00041  22157149.85346  22157147.53148
 -12490598.31248  -9732913.64145         0.00041  22890633.61445  22890630.45348
  -8312542.91149  -6477304.62646         0.00041  20525200.79546  20525198.66549
  -3081031.02449  -2400805.17046         0.00041  20930089.81146  20930087.52049
 -10369839.11949  -8080389.87046         0.00041  20710724.70346  20710724.58049
 -18446218.89849 -14373661.37146         0.00041  21375993.26546  21375991.66149
  22238694.86948  17328838.45841         0.00041         0.00041  24910893.65848
 02 07 10 18 06 00.0000000  0  7 03 14 15 17 18 21 23
 -10593258.12148  -8254480.18546         0.00041  22147982.54546  22147979.42248
 -12595034.48448  -9814292.38945         0.00041  22870758.92445  22870757.32848
  -8294442.36449  -6463200.33146         0.00041  20528644.68146  20528643.51749
  -3050575.20649  -2377073.40446         0.00041  20935885.13246  20935883.42649
 -10338602.76549  -8056049.86246         0.00041  20716669.00146  20716668.99249
 -18466752.90449 -14389661.88546         0.00041  21372085.94846  21372083.63549
  22315865.53048  17388971.36544         0.00041  24925584.60044  24925579.46548
 02 07 10 18 06 30.0000000  0  7 03 14 15 17 18 21 23
 -10640935.32948  -8291631.23946         0.00041  22138909.87846  22138907.46148
 -12699246.23548  -9895496.22845         0.00041  22850927.68245  22850925.82748
  -8276010.37849  -6448837.76646         0.00041  20532152.38346  20532150.83149
  -3019801.16849  -2353093.67046         0.00041  20941741.35646  20941739.49749
 -10307122.70849  -8031519.95446         0.00041  20722659.38746  20722659.14349
 -18487080.26149 -14405501.36946         0.00041  21368217.34146  21368216.05049
  22392968.74548  17449051.71744         0.00041  24940250.36744  24940252.46848
 02 07 10 18 07 00.0000000  0  7 03 14 15 17 18 21 23
 -10688121.51848  -8328399.67546         0.00041  22129930.40846  22129928.14448
 -12803242.61448  -9976532.24045         0.00041  22831137.64645  22831135.55648
  -8257257.95449  -6434225.50646         0.00041  20535720.88046  20535719.38149
  -2988719.82249  -2328874.47546         0.00041  20947656.08746  20947653.85949
 -10275412.01549  -8006810.32846         0.00041  20728693.59546  20728693.55749
 -18507213.77049 -14421189.80646         0.00041  21364385.74646  21364383.53149
  22469992.39548  17509069.98944         0.00041  24954914.04344  24954911.15748
 02 07 10 18 07 30.0000000  0  7 03 14 15 17 18 21 23
 -10734806.11348  -8364777.25346         0.00041  22121045.72846  22121043.72348
 -12907012.36748 -10057391.68245         0.00041  22811391.93445  22811388.35548
  -8238175.29049  -6419355.90646         0.00041  20539352.62846  20539350.78949
  -2957321.47749  -2304408.26346         0.00041  20953630.87646  20953628.83649
 -10243463.13849  -7981915.09646         0.00041  20734773.17446  20734773.24849
 -18527144.93349 -14436720.56046         0.00041  21360593.17646  21360591.64849
  22546944.94348  17569032.99641         0.00041         0.00041  24969553.72448
 02 07 10 18 08 00.0000000  0  7 03 14 15 17 18 21 23
 -10780990.36348  -8400764.97146         0.00041  22112256.81346  22112255.80448
 -13010555.33248 -10138074.41345         0.00041  22791687.51245  22791685.23548
  -8218764.22849  -6404230.41746         0.00041  20543046.31646  20543044.19649
  -2925608.26249  -2279696.70246         0.00041  20959665.96546  20959663.97449
 -10211279.83749  -7956837.20146         0.00041  20740897.61446  20740897.30149
 -18546877.53349 -14452096.60546         0.00041  21356837.75746  21356835.99549
  22623823.25047         0.00041         0.00041         0.00041  24984179.73647
 02 07 10 18 08 30.0000000  0  6 03 14 15 17 18 21
 -10826656.99048  -8436349.34746         0.00041  22103566.76246  22103565.35648
 -13113853.34048 -10218566.26245         0.00041  22772031.41045  22772028.26548
  -8199008.21649  -6388836.14046         0.00041  20546806.05846  20546803.78649
  -2893563.47249  -2254726.76846         0.00041  20965764.00846  20965761.57349
 -10178847.58149  -7931565.32246         0.00041  20747069.44246  20747069.52849
 -18566396.04349 -14467305.81446         0.00041  21353124.58046  21353122.11049
 02 07 10 18 09 00.0000000  0  6 03 14 15 17 18 21
 -10871825.05548  -8471545.21446         0.00041  22094972.54346  22094969.95448
 -13216924.58548 -10298881.42545         0.00041  22752416.82145  22752414.05448
  -8178927.66949  -6373188.97746         0.00041  20550626.81946  20550624.90749
  -2861207.36049  -2229514.24246         0.00041  20971920.84646  20971918.86449
 -10146188.71649  -7906116.85746         0.00041  20753284.19546  20753284.26349
 -18585722.57749 -14482365.44446         0.00041  21349445.75346  21349444.21149
 02 07 10 18 09 30.0000000  0  6 03 14 15 17 18 21
 -10916454.43148  -8506321.32346         0.00041  22086480.19346  22086478.08248
 -13319727.94948 -10378987.82345         0.00041  22732853.80445  22732851.95248
  -8158483.26649  -6357258.28046         0.00041  20554517.36346  20554515.80049
  -2828500.67149  -2204028.55046         0.00041  20978144.31946  20978142.89449
 -10113266.19049  -7880462.95446         0.00041  20759548.81546  20759549.11849
 -18604819.21549 -14497245.93546         0.00041  21345813.03446  21345810.76049
 02 07 10 18 10 00.0000000  0  6 03 14 15 17 18 21
 -10960573.48748  -8540699.81046         0.00041  22078084.44046  22078082.42948
 -13422290.59848 -10458906.68646         0.00041  22713337.53646  22713334.26148
  -8137704.06149  -6341066.69346         0.00041  20558471.22046  20558469.59549
  -2795472.50149  -2178292.36846         0.00041  20984429.96746  20984428.10049
 -10080110.39249  -7854627.27946         0.00041  20765858.06646  20765858.46549
 -18623715.89549 -14511970.60646         0.00041  21342216.52746  21342214.05849
 02 07 10 18 10 30.0000000  0  6 03 14 15 17 18 21
 -11004184.34148  -8574682.28746         0.00041  22069784.47146  22069783.06048
 -13524613.29348 -10538638.56645         0.00041  22693863.87045  22693862.21148
  -8116592.58749  -6324616.20546         0.00041  20562489.15046  20562487.12049
  -2762125.35549  -2152307.59246         0.00041  20990774.57146  20990773.67649
 -10046726.29849  -7828613.70346         0.00041  20772211.39246  20772211.39049
 -18642417.19049 -14526543.04046         0.00041  21338657.64346  21338655.96149
 02 07 10 18 11 00.0000000  0  6 03 14 15 17 18 21
 -11047276.35548  -8608260.47846         0.00041  22061584.09446  22061582.73948
 -13626684.86248 -10618174.76446         0.00041  22674441.13346  22674438.82748
  -8095139.51149  -6307899.54046         0.00041  20566571.21546  20566569.23749
  -2728450.03649  -2126067.08946         0.00041  20997183.55246  20997182.29149
 -10013106.74549  -7802416.67646         0.00041  20778608.44846  20778608.75949
 -18660915.17849 -14540957.03946         0.00041  21335138.57046  21335136.22649
 02 07 10 18 11 30.0000000  0  6 03 14 15 17 18 21
 -11089842.94748  -8641429.24646         0.00041  22053484.57346  22053482.84048
 -13728497.51448 -10697509.19446         0.00041  22655067.43146  22655064.82448
  -8073338.84649  -6290912.02946         0.00041  20570719.58046  20570718.00849
  -2694440.63549  -2099566.30046         0.00041  21003655.58146  21003653.79849
  -9979247.79649  -7776033.09146         0.00041  20785051.85746  20785051.67649
 -18679205.07049 -14555208.90046         0.00041  21331656.63546  21331655.51749
 02 07 10 18 12 00.0000000  0  6 03 14 15 17 18 21
 -11131897.31248  -8674198.86146         0.00041  22045481.91846  22045480.33648
 -13830063.02848 -10776651.06446         0.00041  22635740.30846  22635737.82148
  -8051204.23449  -6273664.29446         0.00041  20574932.27846  20574930.11849
  -2660110.79749  -2072815.79946         0.00041  21010188.81246  21010186.26049
  -9945165.21749  -7749475.24946         0.00041  20791537.46646  20791537.64449
 -18697302.20849 -14569310.54246         0.00041  21328213.63746  21328211.23949
 02 07 10 18 12 30.0000000  0  6 03 14 15 17 18 21
 -11173426.38348  -8706559.16846         0.00041  22037579.18546  22037577.85248
 -13931367.38848 -10855589.44346         0.00041  22616463.03146  22616459.95548
  -8028723.55049  -6256146.89946         0.00041  20579210.03346  20579207.79449
  -2625448.40949  -2045806.18346         0.00041  21016784.45746  21016782.39949
  -9910848.48049  -7722734.94246         0.00041  20798067.60146  20798068.09949
 -18715196.33249 -14583254.00146         0.00041  21324807.97146  21324806.44249
 02 07 10 18 13 00.0000000  0  6 03 14 15 17 18 21
 -11214438.58548  -8738516.72846         0.00041  22029774.69146  22029773.26548
 -14032417.65448 -10934329.80746         0.00041  22597233.04946  22597230.89448
  -8005905.37149  -6238366.52246         0.00041  20583551.98646  20583550.33649
  -2590462.32949  -2018544.34346         0.00041  21023442.32146  21023440.37449
  -9876308.55449  -7695820.73146         0.00041  20804640.94546  20804640.76949
 -18732897.49549 -14597047.10946         0.00041  21321440.03746  21321438.06949
 02 07 10 18 13 30.0000000  0  6 03 14 15 17 18 21
 -11254941.41448  -8770077.35246         0.00041  22022068.30646  22022065.86748
 -14133220.36948 -11012877.28846         0.00041  22578050.73346  22578048.32048
  -7982758.24349  -6220329.81346         0.00041  20587956.46646  20587954.84549
  -2555161.15849  -1991036.96546         0.00041  21030159.78546  21030157.99249
  -9841555.72249  -7668740.61846         0.00041  20811253.94846  20811253.93049
 -18750414.87349 -14610696.99146         0.00041  21318106.94746  21318104.96549
 02 07 10 18 14 00.0000000  0  6 03 14 15 17 18 21
 -11294914.58648  -8801225.25146         0.00041  22014461.75646  22014459.25048
 -14233754.16848 -11091215.23046         0.00041  22558920.72246  22558917.51848
  -7959262.78649  -6202021.67446         0.00041  20592427.60346  20592425.95349
  -2519525.26349  -1963268.75946         0.00041  21036941.53746  21036938.93049
  -9806572.62149  -7641481.07446         0.00041  20817911.29246  20817910.92549
 -18767730.76349 -14624189.87446         0.00041  21314811.01346  21314809.76849
 02 07 10 18 14 30.0000000  0  7 03 09 14 15 17 18 21
 -11334356.04748  -8831958.84346         0.00041  22006955.74546  22006953.58348
        -0.33257         0.00051         0.00051         0.00051  23784418.96857
 -14334015.74548 -11169341.05646         0.00041  22539840.81646  22539838.36048
  -7935417.59249  -6183441.01746         0.00041  20596965.42846  20596963.90949
  -2483553.23149  -1935238.63846         0.00041  21043787.06346  21043784.31949
  -9771359.49349  -7614042.28746         0.00041  20824611.77046  20824611.27249
 -18784845.47149 -14637525.99246         0.00041  21311554.60446  21311552.88549
 02 07 10 18 15 00.0000000  0  6 03 14 15 17 18 21
 -11373270.57948  -8862281.83846         0.00041  21999550.45046  21999547.85548
 -14434008.67748 -11247257.54546         0.00041  22520813.15646  22520809.68148
  -7911228.07149  -6164592.06746         0.00041  20601568.27546  20601567.04349
  -2447250.60348  -1906950.91846         0.00041  21050694.56946  21050692.28948
  -9735923.88049  -7586430.12946         0.00041  20831355.05746  20831354.76149
 -18801765.88449 -14650710.71746         0.00041  21308334.71246  21308333.34249
 02 07 10 18 15 30.0000000  0  6 03 14 15 17 18 21
 -11411689.71148  -8892218.80546         0.00041  21992239.52046  21992236.91248
 -14533763.48448 -11324988.46846         0.00041  22501830.17246  22501827.21248
  -7886726.61949  -6145500.05246         0.00041  20606230.86346  20606229.22949
  -2410649.64048  -1878430.71246         0.00041  21057659.21446  21057657.21948
  -9700299.80749  -7558671.12246         0.00041  20838133.78046  20838133.76649
 -18818525.37949 -14663770.05146         0.00041  21305145.03646  21305143.04949
 02 07 10 18 16 00.0000000  0  6 03 14 15 17 18 21
 -11449562.68548  -8921730.19746         0.00041  21985033.48846  21985030.40948
 -14633227.83248 -11402493.07846         0.00041  22482902.62846  22482899.68348
  -7861862.82649  -6126125.69446         0.00041  20610962.58246  20610960.45849
  -2373700.24549  -1849638.99746         0.00041  21064690.48246  21064688.67149
  -9664439.06149  -7530727.70346         0.00041  20844958.08946  20844958.01249
 -18835075.02749 -14676665.86746         0.00041  21301995.59746  21301994.06549
 02 07 10 18 16 30.0000000  0  6 03 14 15 17 18 21
 -11486878.84748  -8950807.71446         0.00041  21977931.74046  21977929.31848
 -14732390.07248 -11479762.27046         0.00041  22464032.37546  22464030.34348
  -7836626.59949  -6106461.12146         0.00041  20615764.77546  20615763.31849
  -2336392.48349  -1820568.04946         0.00041  21071790.99746  21071788.46249
  -9628333.63449  -7502593.62046         0.00041  20851828.60346  20851828.99349
 -18851406.01949 -14689391.29846         0.00041  21298888.53446  21298887.18649
 02 07 10 18 17 00.0000000  0  7 03 09 14 15 17 18 21
 -11523661.80748  -8979469.75246         0.00041  21970931.30846  21970929.81348
        -1.06457         0.00051         0.00051         0.00051  23735944.53057
 -14831272.36748 -11556813.32746         0.00041  22445215.00046  22445213.48848
  -7811042.06149  -6086525.13546         0.00041  20620633.25846  20620631.48249
  -2298750.44749  -1791236.62846         0.00041  21078953.75646  21078951.56249
  -9592009.34749  -7474289.00046         0.00041  20858741.04646  20858741.17749
 -18867543.95849 -14701966.31046         0.00041  21295816.95146  21295815.54249
 02 07 10 18 17 30.0000000  0  7 03 09 14 15 17 18 21
 -11559922.32248  -9007724.71046         0.00041  21964030.52146  21964029.91748
    -49809.21547         0.00041         0.00041         0.00041  23726466.73347
 -14929884.32648 -11633653.72346         0.00041  22426450.11846  22426447.73848
  -7785120.64649  -6066326.65546         0.00041  20625566.05146  20625563.99149
  -2260785.59248  -1761653.65546         0.00041  21086178.24746  21086175.72948
  -9555479.56349  -7445824.25246         0.00041  20865692.22846  20865692.58149
 -18883502.38049 -14714401.43046         0.00041  21292780.92746  21292779.30349
 02 07 10 18 18 00.0000000  0  6 03 14 15 17 18 21
 -11595664.17348  -9035575.50146         0.00041  21957230.15046  21957228.60548
 -15028228.53748 -11710285.50046         0.00041  22407736.36046  22407733.26148
  -7758866.80149  -6045869.13046         0.00041  20630562.11646  20630560.31549
  -2222502.48049  -1731822.68646         0.00041  21093463.35146  21093461.15349
  -9518750.35749  -7417204.10146         0.00041  20872681.96046  20872681.99449
 -18899286.83749 -14726700.99446         0.00041  21289776.67146  21289774.96149
 02 07 10 18 18 30.0000000  0  6 03 14 15 17 18 21
 -11630889.70048  -9063023.94546         0.00041  21950527.06046  21950524.98148
 -15126305.72248 -11786709.20046         0.00041  22389072.95146  22389069.84248
  -7732283.19649  -6025154.64746         0.00041  20635620.80946  20635618.90849
  -2183903.75449  -1701745.78846         0.00041  21100808.67646  21100806.41049
  -9481826.29949  -7388432.11746         0.00041  20879708.69046  20879708.63249
 -18914900.85749 -14738867.75446         0.00041  21286805.81846  21286804.33349
 02 07 10 18 19 00.0000000  0  6 03 14 15 17 18 21
 -11665576.67348  -9090052.73746         0.00041  21943926.00146  21943924.29448
 -15224092.74548 -11862906.79946         0.00041  22370463.13946  22370461.64448
  -7705348.55849  -6004166.63046         0.00041  20640746.16246  20640744.59149
  -2144968.24648  -1671406.47046         0.00041  21108217.71046  21108215.08048
  -9444688.09149  -7359493.26346         0.00041  20886775.52346  20886775.36449
 -18930324.54249 -14750886.19146         0.00041  21283870.22446  21283868.93249
 02 07 10 18 19 30.0000000  0  6 03 14 15 17 18 21
 -11699704.75648  -9116646.05346         0.00041  21937431.85846  21937430.36948
 -15321567.64648 -11938861.18746         0.00041  22351914.05746  22351913.34048
  -7678042.89249  -5982889.50046         0.00041  20645942.39446  20645940.51349
  -2105675.70148  -1640788.92646         0.00041  21115694.78246  21115692.21748
  -9407317.62449  -7330373.42546         0.00041  20893886.91646  20893886.69649
 -18945539.49749 -14762741.99046         0.00041  21280975.56746  21280973.59449
 02 07 10 18 20 00.0000000  0  6 03 14 15 17 18 21
 -11733285.79048  -9142813.09646         0.00041  21931041.45446  21931039.86948
 -15418741.25248 -12014580.80046         0.00041  22333423.10846  22333421.01048
  -7650378.86449  -5961333.14146         0.00041  20651206.99946  20651204.83949
  -2066038.99148  -1609903.20346         0.00041  21123237.78746  21123235.12548
  -9369729.10449  -7301083.67446         0.00041  20901039.61146  20901039.32449
 -18960559.20249 -14774445.63446         0.00041  21278116.99546  21278115.31549
 02 07 10 18 20 30.0000000  0  6 03 14 15 17 18 21
 -11766333.28848  -9168564.38346         0.00041  21924752.88746  21924750.80048
 -15515625.49548 -12090074.93746         0.00041  22314986.32246  22314984.57148
  -7622370.09949  -5939508.14946         0.00041  20656536.98846  20656534.87949
  -2026071.84048  -1578760.01246         0.00041  21130843.08446  21130840.70648
  -9331938.28349  -7271636.29446         0.00041  20908231.30046  20908231.01749
 -18975398.69649 -14786008.87246         0.00041  21275293.30146  21275291.37249
 02 07 10 18 21 00.0000000  0  6 03 14 15 17 18 21
 -11798839.98848  -9193894.27046         0.00041  21918567.33946  21918565.00548
 -15612211.74648 -12165336.87446         0.00041  22296607.29946  22296604.42148
  -7594009.62249  -5917409.09046         0.00041  20661933.91146  20661931.64249
  -1985767.62548  -1547354.16046         0.00041  21138512.75846  21138510.06148
  -9293940.02949  -7242027.28146         0.00041  20915461.73946  20915462.13649
 -18990053.11849 -14797427.88846         0.00041  21272505.01646  21272502.77849
 02 07 10 18 21 30.0000000  0  7 03 09 14 15 17 18 21
 -11830786.43548  -9218787.59346         0.00041  21912488.88746  21912486.08548
        -0.53957         0.00051         0.00051         0.00051  23653294.13257
 -15708479.07448 -12240350.28846         0.00041  22278287.98646  22278285.40648
  -7565278.70549  -5895021.38546         0.00041  20667400.79346  20667399.15149
  -1945107.53948  -1515671.01746         0.00041  21146249.97746  21146247.58448
  -9255717.48649  -7212243.49446         0.00041  20922735.76046  20922735.74849
 -19004504.96249 -14808689.06146         0.00041  21269754.51046  21269752.73049
 02 07 10 18 22 00.0000000  0  6 03 14 15 17 18 21
 -11862188.18248  -9243256.46846         0.00041  21906513.49246  21906510.70148
 -15804441.89148 -12315126.42846         0.00041  22260026.88346  22260024.81548
  -7536193.27249  -5872357.42846         0.00041  20672935.63946  20672934.18649
  -1904107.42048  -1483722.91246         0.00041  21154051.90946  21154050.01148
  -9217288.19449  -7182298.60746         0.00041  20930048.58946  20930048.52949
 -19018771.32649 -14819805.69746         0.00041  21267039.85146  21267037.81649
 02 07 10 18 22 30.0000000  0  6 03 14 15 17 18 21
 -11893056.65148  -9267309.80846         0.00041  21900639.25946  21900636.15348
 -15900110.18648 -12389673.07646         0.00041  22241821.63846  22241819.91148
  -7506765.53249  -5849426.73346         0.00041  20678535.62746  20678533.65649
  -1862779.61849  -1451519.46146         0.00041  21161917.27446  21161914.60149
  -9178665.98849  -7152203.40346         0.00041  20937398.25846  20937398.08849
 -19032865.40549 -14830788.09446         0.00041  21264357.48046  21264355.83249
 02 07 10 18 23 00.0000000  0  6 03 14 15 17 18 21
 -11923386.24948  -9290943.26146         0.00041  21894867.08246  21894864.25848
 -15995476.90048 -12463984.72046         0.00041  22223673.97246  22223672.24348
  -7476990.16449  -5826225.15646         0.00041  20684201.93446  20684199.96149
  -1821118.75848  -1419056.49146         0.00041  21169844.44246  21169841.89548
  -9139847.05749  -7121954.90046         0.00041  20944785.20146  20944784.80549
 -19046782.88549 -14841632.87846         0.00041  21261709.32046  21261707.46249
 02 07 10 18 23 30.0000000  0  6 03 14 15 17 18 21
 -11953160.13348  -9314143.69246         0.00041  21889201.18146  21889198.96948
 -16090523.82348 -12538047.17146         0.00041  22205586.63546  22205584.79748
  -7446850.80149  -5802739.96046         0.00041  20689936.74246  20689935.05149
  -1779108.60048  -1386321.33746         0.00041  21177838.58746  21177836.46648
  -9100817.02249  -7091541.90146         0.00041  20952212.26346  20952212.25649
 -19060509.01349 -14852328.55646         0.00041  21259097.24346  21259095.52949
 02 07 10 18 24 00.0000000  0  6 03 14 15 17 18 21
 -11982408.42548  -9336934.57346         0.00041  21883634.64846  21883633.22248
 -16185279.38248 -12611882.58046         0.00041  22187555.19346  22187553.48848
  -7416377.68349  -5778994.69746         0.00041  20695735.69846  20695733.83749
  -1736779.57248  -1353337.70846         0.00041  21185893.75546  21185891.32648
  -9061607.80049  -7060989.27046         0.00041  20959673.44646  20959673.27149
 -19074074.94549 -14862899.41046         0.00041  21256515.19946  21256514.04749
 02 07 10 18 24 30.0000000  0  6 03 14 15 17 18 21
 -12011109.60248  -9359299.13646         0.00041  21878172.83046  21878171.54948
 -16279720.90848 -12685473.31446         0.00041  22169584.17746  22169581.91648
  -7385550.11149  -5754973.23446         0.00041  20701602.13246  20701600.40249
  -1694110.79048  -1320089.33246         0.00041  21194013.26446  21194010.59348
  -9022200.41449  -7030282.22946         0.00041  20967172.32746  20967172.15249
 -19087461.66349 -14873330.61346         0.00041  21253968.13946  21253966.92649
 02 07 10 18 25 00.0000000  0  6 03 14 15 17 18 21
 -12039259.22748  -9381233.91746         0.00041  21872816.20546  21872814.69148
 -16373842.29748 -12758814.58146         0.00041  22151673.08446  22151671.20248
  -7354363.79649  -5730672.23046         0.00041  20707536.89646  20707535.12349
  -1651098.21748  -1286573.07846         0.00041  21202198.79346  21202196.00148
  -8982592.29349  -6999418.76846         0.00041  20974709.19246  20974709.33949
 -19100666.31049 -14883619.93746         0.00041  21251455.41846  21251453.81449
 02 07 10 18 25 30.0000000  0  6 03 14 15 17 18 21
 -12066852.58448  -9402735.23246         0.00041  21867565.76946  21867563.65348
 -16467637.26248 -12831901.48446         0.00041  22133824.26746  22133822.11848
  -7322814.43649  -5706088.33546         0.00041  20713540.70746  20713538.73649
  -1607737.44048  -1252785.50446         0.00041  21210449.84246  21210447.41548
  -8942780.60449  -6968396.68546         0.00041  20982285.36846  20982285.24649
 -19113685.68249 -14893764.89946         0.00041  21248978.02746  21248976.51849
 02 07 10 18 26 00.0000000  0  6 03 14 15 17 18 21
 -12093878.99348  -9423794.77146         0.00041  21862422.99346  21862420.29848
 -16561093.78748 -12904724.66246         0.00041  22116040.03946  22116037.86548
  -7290891.72949  -5681213.50846         0.00041  20719614.93946  20719613.13349
  -1564018.30748  -1218718.68146         0.00041  21218768.89046  21218766.69948
  -8902756.84849  -6937209.35346         0.00041  20989902.07746  20989901.61149
 -19126510.35449 -14903758.14246         0.00041  21246537.59446  21246535.96549
 02 07 10 18 26 30.0000000  0  6 03 14 15 17 18 21
 -12120353.00748  -9444423.86046         0.00041  21857385.36546  21857382.48448
 -16654224.86848 -12977294.26046         0.00041  22098317.86346  22098315.88448
  -7258610.42349  -5656059.25946         0.00041  20725758.52346  20725756.57049
  -1519955.71548  -1184384.22546         0.00041  21227153.70646  21227151.79748
  -8862537.39749  -6905869.54146         0.00041  20997555.56646  20997555.22249
 -19139156.56849 -14913612.32346         0.00041  21244131.36746  21244129.55449
 02 07 10 18 27 00.0000000  0  6 03 14 15 17 18 21
 -12146310.89948  -9464650.78346         0.00041  21852445.38746  21852443.44248
 -16747065.41948 -13049637.46946         0.00041  22080650.30946  22080648.95748
  -7226007.46949  -5630654.38146         0.00041  20731962.59146  20731960.05749
  -1475586.56648  -1149810.89546         0.00041  21235597.16846  21235594.88248
  -8822160.92849  -6874407.37546         0.00041  21005238.52446  21005238.88549
 -19151662.35149 -14923357.08946         0.00041  21241751.07846  21241749.25049
 02 07 10 18 27 30.0000000  0  6 03 14 15 17 18 21
 -12171719.34748  -9484449.58146         0.00041  21847610.14646  21847608.50148
 -16839580.47848 -13121727.04046         0.00041  22063045.74346  22063043.80848
  -7193049.68249  -5604973.01446         0.00041  20738234.71546  20738231.86349
  -1430877.77548  -1114972.91246         0.00041  21244105.67446  21244102.68148
  -8781596.07849  -6842798.42146         0.00041  21012958.12746  21012958.00649
 -19163996.03049 -14932967.74346         0.00041  21239404.24746  21239402.82649
 02 07 10 18 28 00.0000000  0  6 03 14 15 17 18 21
 -12196560.57048  -9503806.37446         0.00041  21842882.92846  21842880.74048
 -16931750.77748 -13193547.97746         0.00041  22045505.21546  22045504.25448
  -7159719.68349  -5579001.60846         0.00041  20744576.49246  20744574.22749
  -1385812.23948  -1079856.93646         0.00041  21252680.52346  21252678.10548
  -8740826.85749  -6811030.21846         0.00041  21020716.24746  21020715.89949
 -19176141.12549 -14942431.44746         0.00041  21237093.14146  21237091.13749
 02 07 10 18 28 30.0000000  0  6 03 14 15 17 18 21
 -12220862.58048  -9522743.00446         0.00041  21838258.47246  21838256.33948
 -17023602.66848 -13265120.79646         0.00041  22028027.00646  22028025.32848
  -7126045.57849  -5552762.07246         0.00041  20750984.32446  20750982.42149
  -1340418.17248  -1044484.98046         0.00041  21261318.34046  21261316.52848
  -8699883.27549  -6779126.14446         0.00041  21028507.36046  21028507.08549
 -19188127.04149 -14951771.11446         0.00041  21234811.64146  21234810.29549
 02 07 10 18 29 00.0000000  0  6 03 14 15 17 18 21
 -12244609.73548  -9541247.28746         0.00041  21833740.18446  21833737.91548
 -17115118.88348 -13336432.04746         0.00041  22010612.01346  22010609.85348
  -7092012.00049  -5526242.43546         0.00041  20757460.76346  20757458.65849
  -1294680.00448  -1008844.88746         0.00041  21270022.50746  21270020.43848
  -8658751.21949  -6747075.20546         0.00041  21036334.39846  21036334.37649
 -19199939.48149 -14960975.60446         0.00041  21232564.24846  21232562.49749
 02 07 10 18 29 30.0000000  0  6 03 14 15 17 18 21
 -12267799.92748  -9559317.56646         0.00041  21829327.84146  21829325.41648
 -17206295.70348 -13407478.84246         0.00041  21993261.60346  21993259.76048
  -7057617.30149  -5499441.39646         0.00041  20764005.70446  20764004.29449
  -1248596.18348   -972935.45246         0.00041  21278791.92246  21278789.61048
  -8617430.42549  -6714877.19346         0.00041  21044197.92446  21044197.82349
 -19211577.72049 -14970044.35046         0.00041  21230349.17846  21230347.85149
 02 07 10 18 30 00.0000000  0  6 03 14 15 17 18 21
 -12290434.26748  -9576954.69846         0.00041  21825020.60046  21825018.16548
 -17297132.59648 -13478260.76146         0.00041  21975976.12246  21975974.31748
  -7022862.62849  -5472359.85046         0.00041  20770619.30546  20770617.97749
  -1202168.01748   -936757.69646         0.00041  21287627.56646  21287624.58548
  -8575923.77449  -6682534.35646         0.00041  21052096.45846  21052096.47049
 -19223044.16849 -14978979.23046         0.00041  21228167.32546  21228166.17849
 02 07 10 18 30 30.0000000  0  6 03 14 15 17 18 21
 -12312512.10448  -9594158.20346         0.00041  21820817.98746  21820816.76048
 -17387627.38648 -13548776.08646         0.00041  21958755.04246  21958752.83448
  -6987747.69949  -5444997.59146         0.00041  20777301.00346  20777300.04449
  -1155395.38148   -900311.54246         0.00041  21296527.86246  21296525.44648
  -8534232.51249  -6650047.67746         0.00041  21060029.74046  21060029.41949
 -19234339.89149 -14987781.08246         0.00041  21226017.97846  21226016.66949
 02 07 10 18 31 00.0000000  0  6 03 14 15 17 18 21
 -12334018.79648  -9610916.68846         0.00041  21816725.13346  21816724.07048
 -17477763.84448 -13619012.20746         0.00041  21941602.61146  21941600.49948
  -6952257.93149  -5417343.24646         0.00041  20784055.37346  20784054.05349
  -1108263.65948   -863585.56046         0.00041  21305496.62446  21305494.33948
  -8492343.75649  -6617407.10746         0.00041  21068000.98346  21068000.77749
 -19245451.22649 -14996439.25346         0.00041  21223903.84546  21223902.51349
 02 07 10 18 31 30.0000000  0  6 03 14 15 17 18 21
 -12354973.94948  -9627245.39346         0.00041  21812737.60746  21812735.32748
 -17567559.98448 -13688983.14546         0.00041  21924514.96846  21924513.46148
  -6916413.29649  -5389412.37746         0.00041  20790876.19346  20790874.24649
  -1060793.06648   -826595.50846         0.00041  21314530.13046  21314527.73848
  -8450279.13949  -6584629.49646         0.00041  21076005.17846  21076005.49249
 -19256399.12749 -15004970.07646         0.00041  21221820.50846  21221819.02449
 02 07 10 18 32 00.0000000  0  6 03 14 15 17 18 21
 -12375364.16148  -9643133.87146         0.00041  21808857.75646  21808855.63648
 -17657000.77748 -13758677.17846         0.00041  21907494.98846  21907493.09748
  -6880200.80449  -5361194.87146         0.00041  20797767.65646  20797765.33349
  -1012970.45448   -789331.17346         0.00041  21323630.32146  21323628.14948
  -8408026.54349  -6551705.40646         0.00041  21084046.17346  21084045.77749
 -19267171.65249 -15013364.24646         0.00041  21219770.55646  21219768.66349
 02 07 10 18 32 30.0000000  0  6 03 14 15 17 18 21
 -12395183.91949  -9658577.84546         0.00041  21805087.40046  21805085.59549
 -17746078.66948 -13828088.44546         0.00041  21890544.18546  21890542.05848
  -6843614.71049  -5332686.25646         0.00041  20804729.58546  20804727.67049
   -964790.13048   -751788.11546         0.00041  21332798.97946  21332796.57048
  -8365581.93849  -6518631.69846         0.00041  21092123.20246  21092122.87849
 -19277764.06949 -15021618.06946         0.00041  21217754.59746  21217753.40849
 02 07 10 18 33 00.0000000  0  6 03 14 15 17 18 21
 -12414434.81948  -9673578.55546         0.00041  21801424.11546  21801421.82348
 -17834793.55748 -13897216.85346         0.00041  21873662.08546  21873660.73948
  -6806656.67749  -5303887.80946         0.00041  20811762.30446  20811760.33549
   -916254.10048   -713967.87746         0.00041  21342034.94346  21342032.82248
  -8322948.67249  -6485410.98946         0.00041  21100236.03746  21100235.64349
 -19288179.47749 -15029733.96046         0.00041  21215773.31946  21215771.34849
 02 07 10 18 33 30.0000000  0  6 03 14 15 17 18 21
 -12433129.58348  -9688145.88546         0.00041  21797866.62446  21797863.35948
 -17923156.71649 -13966071.18346         0.00041  21856847.29246  21856846.01849
  -6769339.89649  -5274809.82046         0.00041  20818863.14746  20818861.50849
   -867375.50748   -675880.68546         0.00041  21351336.24446  21351334.05248
  -8280141.24149  -6452054.56846         0.00041  21108381.31646  21108381.52849
 -19298431.73149 -15037722.72446         0.00041  21213821.70046  21213820.00149
 02 07 10 18 34 00.0000000  0  6 03 14 15 17 18 21
 -12451285.92648  -9702293.67046         0.00041  21794411.84646  21794408.73848
 -18011184.25048 -14034663.98746         0.00041  21840095.61146  21840094.21248
  -6731682.08449  -5245466.08846         0.00041  20826028.79646  20826027.71249
   -818172.09148   -637540.40146         0.00041  21360698.79246  21360697.00948
  -8237178.71149  -6418577.29546         0.00041  21116557.35146  21116557.52449
 -19308539.87349 -15045599.19446         0.00041  21211898.51046  21211897.00549
 02 07 10 18 34 30.0000000  0  6 03 14 15 17 18 21
 -12468881.64748  -9716004.61746         0.00041  21791063.07946  21791060.24648
 -18098851.92548 -14102976.36746         0.00041  21823413.07046  21823411.46548
  -6693661.18549  -5215839.43346         0.00041  20833264.26546  20833262.77049
   -768621.79448   -598929.83446         0.00041  21370128.81646  21370126.35248
  -8194040.40149  -6384963.04846         0.00041  21124766.02246  21124766.46849
 -19318483.06649 -15053347.12146         0.00041  21210006.15446  21210004.66849
 02 07 10 18 35 00.0000000  0  6 03 14 15 17 18 21
 -12485924.22948  -9729284.54246         0.00041  21787819.97246  21787817.48448
 -18186165.50848 -14171012.84446         0.00041  21806797.79546  21806795.82948
  -6655284.58249  -5185935.61046         0.00041  20840567.16846  20840565.45249
   -718732.37148   -560055.01246         0.00041  21379622.69246  21379619.79748
  -8150735.36849  -6351218.87946         0.00041  21133007.14646  21133007.09949
 -19328269.52349 -15060972.92146         0.00041  21208143.72146  21208142.20749
 02 07 10 18 35 30.0000000  0  6 03 14 15 17 18 21
 -12502399.91749  -9742122.74546         0.00041  21784684.46746  21784682.81949
 -18273109.86448 -14238761.61346         0.00041  21790252.74846  21790250.85448
  -6616538.98149  -5155744.26346         0.00041  20847940.33746  20847938.69849
   -668490.31648   -520905.41046         0.00041  21389182.59346  21389180.70148
  -8107251.61349  -6317335.44546         0.00041  21141281.95546  21141281.39249
 -19337886.70749 -15068466.82046         0.00041  21206313.79846  21206312.12449
 02 07 10 18 36 00.0000000  0  6 03 14 15 17 18 21
 -12518322.07949  -9754529.64446         0.00041  21781654.27746  21781652.78649
 -18359696.31548 -14306231.49346         0.00041  21773775.49546  21773774.34748
  -6577437.56949  -5125275.66146         0.00041  20855381.69446  20855379.17349
   -617909.21648   -481491.60046         0.00041  21398807.87046  21398805.96248
  -8063603.67749  -6283324.07646         0.00041  21149587.79146  21149587.73249
 -19347349.08849 -15075840.09846         0.00041  21204513.25846  21204511.56549
 02 07 10 18 36 30.0000000  0  6 03 14 15 17 18 21
 -12533688.55448  -9766503.54046         0.00041  21778729.67746  21778727.47048
 -18445921.05349 -14373419.51746         0.00041  21757367.56546  21757366.30349
  -6537978.49749  -5094528.35646         0.00041  20862890.40446  20862888.20549
   -566987.10548   -441812.09046         0.00041  21408498.94046  21408496.24948
  -8019791.06349  -6249184.38446         0.00041  21157925.03446  21157924.60249
 -19356655.78449 -15083092.06746         0.00041  21202741.97346  21202740.17349
 02 07 10 18 37 00.0000000  0  6 03 14 15 17 18 21
 -12548474.76748  -9778025.27246         0.00041  21775915.75946  21775913.30248
 -18531757.55048 -14440305.02846         0.00041  21741033.72846  21741031.40948
  -6498137.01549  -5063483.06246         0.00041  20870471.48146  20870469.83549
   -515699.38948   -401847.68346         0.00041  21418258.61346  21418255.69448
  -7975790.24949  -6214898.05946         0.00041  21166298.24946  21166297.58249
 -19365782.42749 -15090203.73046         0.00041  21201005.44046  21201003.85249
 02 07 10 18 37 30.0000000  0  7 03 14 15 17 18 21 31
 -12562664.85748  -9789082.48346         0.00041  21773215.67046  21773213.53348
 -18617188.43648 -14506874.47246         0.00041  21724776.96946  21724775.06348
  -6457897.60349  -5032127.70546         0.00041  20878129.45946  20878126.91749
   -464030.53448   -361586.28246         0.00041  21428090.60946  21428088.34048
  -7931587.01449  -6180454.00646         0.00041  21174709.67146  21174709.48449
 -19374714.92449 -15097164.11446         0.00041  21199305.59146  21199304.39649
        -0.42658        -0.03351         0.00051         0.00051  23915064.91558
 02 07 10 18 38 00.0000000  0  7 03 14 15 17 18 21 31
 -12576308.69148  -9799714.03646         0.00041  21770618.98446  21770617.17448
 -18702261.44649 -14573165.05046         0.00041  21708587.39146  21708586.19449
  -6417309.59649  -5000500.70546         0.00041  20885853.22146  20885850.85649
   -412030.23748   -321066.61646         0.00041  21437986.00146  21437983.22848
  -7887232.36249  -6145891.96646         0.00041  21183149.76546  21183150.05449
 -19383503.76549 -15104012.55746         0.00041  21197633.27146  21197631.73149
    -75442.54148    -58786.02944         0.00041  23900709.65944  23900706.54748
 02 07 10 18 38 30.0000000  0  7 03 14 15 17 18 21 31
 -12589409.47648  -9809922.44246         0.00041  21768125.90846  21768123.73148
 -18786978.01649 -14639177.88046         0.00041  21692466.37446  21692465.05349
  -6376376.52749  -4968604.81746         0.00041  20893641.83946  20893640.23649
   -359701.89748   -280291.33146         0.00041  21447943.87546  21447941.28448
  -7842730.80449  -6111215.44546         0.00041  21191618.26246  21191618.55349
 -19392153.22249 -15110752.39246         0.00041  21195987.16846  21195985.70549
   -150504.26348   -117275.62844         0.00041  23886429.46044  23886422.29048
 02 07 10 18 39 00.0000000  0  7 03 14 15 17 18 21 31
 -12601940.45348  -9819686.84646         0.00041  21765740.97846  21765739.10048
 -18871309.56149 -14704890.69846         0.00041  21676418.04446  21676417.08349
  -6335071.67249  -4936419.23046         0.00041  20901501.75446  20901499.93449
   -307019.05848   -239239.80246         0.00041  21457968.88446  21457966.44748
  -7798057.18249  -6076404.84846         0.00041  21200119.65246  21200119.38549
 -19400637.38649 -15117363.42746         0.00041  21194372.81246  21194371.21249
   -225156.71748   -175446.30244         0.00041  23872220.81344  23872216.77748
 02 07 10 18 39 30.0000000  0  7 03 14 15 17 18 21 31
 -12613902.46248  -9829007.89846         0.00041  21763465.19246  21763463.21648
 -18955255.04249 -14770302.68646         0.00041  21660443.82046  21660442.78849
  -6293395.82049  -4903944.56146         0.00041  20909432.63846  20909430.53149
   -253982.46148   -197912.62346         0.00041  21468061.72846  21468059.19648
  -7753213.30849  -6041461.59346         0.00041  21208652.92246  21208652.94349
 -19408957.88249 -15123846.92746         0.00041  21192789.50246  21192788.00549
   -299398.76548   -233297.17744         0.00041  23858092.78744  23858089.33248
 02 07 10 18 40 00.0000000  0  7 03 14 15 17 18 21 31
 -12625310.97348  -9837897.64446         0.00041  21761295.29446  21761293.12148
 -19038828.29248 -14835424.62946         0.00041  21644540.66046  21644538.75048
  -6251364.40649  -4871192.83746         0.00041  20917431.28146  20917428.96049
   -200607.76948   -156321.99346         0.00041  21478218.35646  21478216.04248
  -7708215.96249  -6006398.74046         0.00041  21217215.74046  21217215.47649
 -19417131.24549 -15130215.77646         0.00041  21191233.94946  21191232.58649
   -373243.85048   -290838.75944         0.00041  23844040.30844  23844036.83348
 02 07 10 18 40 30.0000000  0  7 03 14 15 17 18 21 31
 -12636138.65548  -9846334.80046         0.00041  21759234.47346  21759233.07548
 -19121999.86249 -14900233.57846         0.00041  21628713.60346  21628712.10249
  -6208949.74249  -4838142.49546         0.00041  20925502.51746  20925500.43349
   -146867.27648   -114446.33746         0.00041  21488445.29646  21488442.22648
  -7663038.59449  -5971195.61446         0.00041  21225812.94646  21225812.45249
 -19425130.54449 -15136448.98846         0.00041  21189711.97646  21189710.34549
   -446662.28848   -348047.86744         0.00041  23830069.20344  23830065.70648
 02 07 10 18 41 00.0000000  0  7 03 14 15 17 18 21 31
 -12646396.42448  -9854327.87046         0.00041  21757282.52146  21757280.69548
 -19204778.82348 -14964736.59046         0.00041  21612961.16746  21612959.40148
  -6166162.81149  -4804802.05546         0.00041  20933644.43446  20933642.60949
    -92772.25348    -72294.42446         0.00041  21498739.28546  21498736.26748
  -7617693.47949  -5935861.76346         0.00041  21234441.63146  21234441.62049
 -19432967.46849 -15142555.67846         0.00041  21188220.68846  21188219.26649
   -519663.00848   -404931.47844         0.00041  23816174.79744  23816174.74148
 02 07 10 18 41 30.0000000  0  7 03 14 15 17 18 21 31
 -12656094.30448  -9861884.66546         0.00041  21755437.39146  21755435.52748
 -19287173.35948 -15028940.05746         0.00041  21597281.54046  21597280.11748
  -6123013.73949  -4771179.42746         0.00041  20941855.69246  20941853.87749
    -38332.66248    -29873.99146         0.00041  21509098.62246  21509096.13948
  -7572191.98549  -5900406.06746         0.00041  21243100.64146  21243100.25649
 -19440652.78949 -15148544.23946         0.00041  21186758.07146  21186756.67249
   -592254.00448   -461495.83444         0.00041  23802363.25944  23802361.19748
 02 07 10 18 42 00.0000000  0  7 03 14 15 17 18 21 31
 -12665253.27449  -9869021.53646         0.00041  21753694.30646  21753693.20749
 -19369202.56548 -15092858.84446         0.00041  21581672.54646  21581670.45448
  -6079523.35049  -4737290.84946         0.00041  20950131.50446  20950129.68049
     16430.46448     12798.52246         0.00041  21519519.58846  21519517.40748
  -7526556.00849  -5864845.58246         0.00041  21251784.48246  21251784.71849
 -19448208.35149 -15154431.68846         0.00041  21185320.32346  21185318.76549
   -664454.15848   -517755.65644         0.00041  23788623.82844  23788622.05248
 02 07 10 18 42 30.0000000  0  8 03 09 14 15 17 18 21 31
 -12673837.51048  -9875710.56246         0.00041  21752060.57746  21752058.87548
        -0.80157         0.00051         0.00051         0.00051  23355968.29957
 -19450828.59948 -15156463.48446         0.00041  21566138.78146  21566137.48848
  -6035655.79649  -4703108.35946         0.00041  20958479.41146  20958477.27849
     71552.77748     55750.93546         0.00041  21530009.76846  21530006.82848
  -7480750.72949  -5829153.17746         0.00041  21260501.18146  21260501.19849
 -19455598.91649 -15160190.56746         0.00041  21183913.84846  21183912.62249
   -736225.46248   -573681.33844         0.00041  23774966.42744  23774963.66748
 02 07 10 18 43 00.0000000  0  8 03 09 14 15 17 18 21 31
 -12681841.14548  -9881947.17146         0.00041  21750537.53446  21750535.39248
    -26966.27048         0.00041         0.00041         0.00041  23350837.29748
 -19532043.72848 -15219747.93646         0.00041  21550684.63946  21550682.32248
  -5991405.24549  -4668627.43546         0.00041  20966899.87546  20966897.64549
    127040.38548     98987.98646         0.00041  21540567.84046  21540565.66048
  -7434771.28849  -5793325.06446         0.00041  21269250.78346  21269250.97949
 -19462819.85349 -15165817.26246         0.00041  21182539.77446  21182538.06549
   -807559.81948   -629266.49844         0.00041  23761392.66144  23761389.43748
 02 07 10 18 43 30.0000000  0  8 03 09 14 15 17 18 21 31
 -12689302.05648  -9887760.95746         0.00041  21749118.64646  21749116.06148
    -53445.99448         0.00041         0.00041         0.00041  23345799.68048
 -19612883.99749 -15282740.29246         0.00041  21535300.74946  21535299.60449
  -5946809.37549  -4633877.43246         0.00041  20975385.90546  20975384.26149
    182855.25248    142480.04146         0.00041  21551189.20746  21551186.98248
  -7388656.92149  -5757391.81846         0.00041  21278025.88346  21278026.20849
 -19469909.83549 -15171341.91946         0.00041  21181190.99046  21181188.84649
   -878493.12248   -684539.14044         0.00041  23747890.91344  23747891.41648
 02 07 10 18 44 00.0000000  0  8 03 09 14 15 17 18 21 31
 -12696205.12348  -9893139.88646         0.00041  21747803.35146  21747802.61148
    -79422.93648    -61887.67841         0.00041         0.00041  23340857.10948
 -19693332.23749 -15345427.16146         0.00041  21519992.05946  21519990.77649
  -5901852.93049  -4598846.46446         0.00041  20983941.16646  20983939.03249
    239012.59448    186238.97046         0.00041  21561876.55746  21561873.53348
  -7342393.22149  -5721342.20346         0.00041  21286829.78946  21286829.62449
 -19476853.84949 -15176752.84446         0.00041  21179869.24846  21179867.25149
   -949008.10548   -739485.83544         0.00041  23734474.21144  23734472.95448
 02 07 10 18 44 30.0000000  0  8 03 09 14 15 17 18 21 31
 -12702537.94648  -9898074.58146         0.00041  21746599.00546  21746597.35548
   -104882.35648         0.00041         0.00041         0.00041  23336011.14948
 -19773373.77449 -15407797.12646         0.00041  21504760.57546  21504759.10449
  -5856522.67849  -4563524.21646         0.00041  20992567.47546  20992565.27849
    295525.37948    230274.84446         0.00041  21572630.53546  21572627.68748
  -7295968.32849  -5685166.97846         0.00041  21295664.26946  21295663.66349
 -19483639.53949 -15182040.39146         0.00041  21178578.15246  21178576.22549
  -1019089.61548   -794094.74144         0.00041  23721136.26244  23721137.11048
 02 07 10 18 45 00.0000000  0  8 03 09 14 15 17 18 21 31
 -12708306.88348  -9902569.86346         0.00041  21745501.41146  21745499.21548
   -129829.07548         0.00041         0.00041         0.00041  23331263.95648
 -19853013.18549 -15469853.76046         0.00041  21489605.76246  21489604.57449
  -5810825.21649  -4527915.83046         0.00041  21001263.35446  21001260.92949
    352386.67748    274582.29246         0.00041  21583450.52746  21583447.99948
  -7249390.10749  -5648872.28546         0.00041  21304527.89146  21304527.36549
 -19490274.61549 -15187210.57646         0.00041  21177315.07846  21177313.44949
  -1088742.26448   -848369.52144         0.00041  23707884.71544  23707883.09848
 02 07 10 18 45 30.0000000  0  8 03 09 14 15 17 18 21 31
 -12713486.21648  -9906605.72246         0.00041  21744515.91446  21744513.69448
   -154235.67148         0.00041         0.00041         0.00041  23326619.30848
 -19932223.13649 -15531575.74046         0.00041  21474533.20446  21474531.75349
  -5764734.98349  -4492001.40146         0.00041  21010034.43246  21010031.66549
    409622.47448    319181.54046         0.00041  21594341.42446  21594339.38848
  -7202633.56649  -5612438.63846         0.00041  21313425.51046  21313424.63249
 -19496733.70849 -15192243.63646         0.00041  21176085.91146  21176084.85849
  -1157938.21048   -902288.43844         0.00041  23694717.15544  23694715.86248
 02 07 10 18 46 00.0000000  0  8 03 09 14 15 17 18 21 31
 -12718083.90248  -9910188.35146         0.00041  21743640.78746  21743638.59748
   -178107.74348   -138784.80841         0.00041         0.00041  23322077.25848
 -20011009.30849 -15592967.50046         0.00041  21459539.87846  21459538.43349
  -5718259.35349  -4455786.66146         0.00041  21018878.16246  21018875.67849
    467224.82648    364066.43846         0.00041  21605303.64946  21605300.44248
  -7155707.24449  -5575872.69546         0.00041  21322355.04946  21322354.54549
 -19503025.01249 -15197145.94946         0.00041  21174888.66846  21174887.28149
  -1226683.01648   -955855.77944         0.00041  23681637.53144  23681633.22548
 02 07 10 18 46 30.0000000  0  8 03 09 14 15 17 18 21 31
 -12722143.91348  -9913352.00546         0.00041  21742868.24346  21742866.02948
   -201487.20048   -157002.52244         0.00041  23317634.74344  23317627.39048
 -20089413.47249 -15654061.58946         0.00041  21444620.24246  21444618.88649
  -5671442.17649  -4419305.79346         0.00041  21027787.30846  21027784.92549
    525150.02448    409202.91046         0.00041  21616326.28246  21616323.23648
  -7108656.02749  -5539209.41246         0.00041  21331308.46946  21331308.77049
 -19509193.05049 -15201952.20946         0.00041  21173715.06846  21173713.37949
  -1295018.36648  -1009104.04844         0.00041  23668631.50744  23668629.12348
 02 07 10 18 47 00.0000000  0  8 03 09 14 15 17 18 21 31
 -12725635.88248  -9916073.02846         0.00041  21742203.76446  21742201.44748
   -224341.51748         0.00041         0.00041         0.00041  23313278.11048
 -20167403.17749 -15714832.73146         0.00041  21429779.30246  21429778.23949
  -5624252.59449  -4382534.67446         0.00041  21036766.77046  21036765.06149
    583428.72848    454614.83846         0.00041  21627416.49046  21627413.80948
  -7061450.18549  -5502425.69346         0.00041  21340291.35646  21340291.62749
 -19515207.99249 -15206639.17746         0.00041  21172570.08046  21172568.28249
  -1362911.38748  -1062007.69344         0.00041  23655712.38544  23655708.96548
 02 07 10 18 47 30.0000000  0  8 03 09 14 15 17 18 21 31
 -12728569.09648  -9918358.66946         0.00041  21741645.86746  21741643.70648
   -246678.17748   -192216.16844         0.00041  23309031.32644  23309028.14248
 -20244985.74849 -15775286.63146         0.00041  21415015.61346  21415014.41049
  -5576699.92149  -4345480.69546         0.00041  21045815.85746  21045814.42649
    642051.76148    500295.07446         0.00041  21638572.34846  21638569.61048
  -7014099.82749  -5465529.30546         0.00041  21349302.01846  21349302.21249
 -19521079.38849 -15211214.28846         0.00041  21171453.62946  21171451.40749
  -1430369.43248  -1114572.34444         0.00041  23642875.35744  23642872.68948
 02 07 10 18 48 00.0000000  0  8 03 09 14 15 17 18 21 31
 -12730935.06749  -9920202.29846         0.00041  21741195.07146  21741194.05049
   -268486.80148   -209209.86644         0.00041  23304880.80344  23304878.19348
 -20322150.95349 -15835415.30346         0.00041  21400331.39446  21400329.92849
  -5528775.57449  -4308137.08046         0.00041  21054935.95446  21054933.61149
    701027.44648    546250.08846         0.00041  21649795.19846  21649791.91348
  -6966597.33849  -5428514.39946         0.00041  21358341.55346  21358341.22349
 -19526799.45749 -15215671.48046         0.00041  21170364.85146  21170363.31349
  -1497381.73848  -1166789.69945         0.00041  23630125.25445  23630119.82048
 02 07 10 18 48 30.0000000  0  8 03 09 14 15 17 18 21 31
 -12732725.34048  -9921597.32846         0.00041  21740854.64746  21740852.75548
   -289756.88248   -225783.88744         0.00041  23300833.41644  23300830.71248
 -20398887.92449 -15895210.28746         0.00041  21385729.05046  21385727.60149
  -5480470.65149  -4270496.92346         0.00041  21064128.07646  21064125.73849
    760364.57848    592486.73346         0.00041  21661085.87746  21661083.60048
  -6918934.70449  -5391374.72246         0.00041  21367411.51246  21367411.39749
 -19532359.59149 -15220004.04746         0.00041  21169307.18546  21169305.21749
  -1563937.38248  -1218651.17244         0.00041  23617458.07144  23617454.42448
 02 07 10 18 49 00.0000000  0  8 03 09 14 15 17 18 21 31
 -12733972.58848  -9922569.22346         0.00041  21740617.42346  21740615.46748
   -310519.23448   -241962.29844         0.00041  23296883.39844  23296878.85848
 -20475227.40749 -15954695.53946         0.00041  21371201.82346  21371200.47449
  -5431817.57849  -4232585.47546         0.00041  21073386.30046  21073383.89849
    820030.64648    638979.73146         0.00041  21672441.03146  21672437.87348
  -6871145.37549  -5354136.29746         0.00041  21376505.19046  21376505.32749
 -19537793.05449 -15224237.91046         0.00041  21168272.74546  21168271.33049
  -1630066.83748  -1270180.58144         0.00041  23604874.46044  23604870.35548
 02 07 10 18 49 30.0000000  0  8 03 09 14 15 17 18 21 31
 -12734661.87949  -9923106.33546         0.00041  21740486.56046  21740484.94349
   -330756.63648   -257731.67844         0.00041  23293032.38644  23293025.97948
 -20551152.33849 -16013857.77246         0.00041  21356753.30146  21356752.76049
  -5382801.08049  -4194390.83846         0.00041  21082714.34346  21082711.82449
    880040.87648    685740.89746         0.00041  21683859.90546  21683856.95748
  -6823215.04949  -5316788.00846         0.00041  21385626.57946  21385626.41149
 -19543085.22549 -15228361.66846         0.00041  21167265.65046  21167264.23849
  -1695752.83548  -1321364.41845         0.00041  23592375.50945  23592370.12148
 02 07 10 18 50 00.0000000  0  8 03 09 14 15 17 18 21 31
 -12734775.64549  -9923194.99746         0.00041  21740464.70746  21740463.19549
   -350449.84148   -273076.98044         0.00041  23289283.10044  23289279.61848
 -20626643.24649 -16072681.79446         0.00041  21342387.74046  21342387.25449
  -5333403.19049  -4155899.01146         0.00041  21092114.60846  21092111.73449
    940412.90848    732783.97046         0.00041  21695348.62546  21695346.09848
  -6775126.79249  -5279316.66246         0.00041  21394777.49546  21394777.37249
 -19548218.90649 -15232361.93646         0.00041  21166288.80546  21166287.28649
  -1760975.47048  -1372187.20544         0.00041  23579964.38944  23579959.62048
 02 07 10 18 50 30.0000000  0  8 03 09 14 15 17 18 21 31
 -12734333.79749  -9922850.72046         0.00041  21740549.23146  21740547.74849
   -369616.74748   -288012.20444         0.00041  23285637.06644  23285632.20248
 -20701718.01849 -16131181.56346         0.00041  21328101.73146  21328100.64149
  -5283643.70749  -4117125.42846         0.00041  21101583.52346  21101580.82749
   1001126.93248    780093.54546         0.00041  21706902.21846  21706899.40448
  -6726901.19249  -5241738.29846         0.00041  21403954.48546  21403954.16549
 -19553213.69749 -15236253.97646         0.00041  21165338.27246  21165336.79549
  -1825752.49848  -1422662.76544         0.00041  23567637.44544  23567632.67148
 02 07 10 18 51 00.0000000  0  8 03 09 14 15 17 18 21 31
 -12733337.08449  -9922074.07846         0.00041  21740739.14346  21740737.56749
   -388255.90848   -302536.16044         0.00041  23282088.40544  23282085.15248
 -20776375.18649 -16189355.92646         0.00041  21313894.99146  21313893.85349
  -5233522.89649  -4078070.29346         0.00041  21111120.88146  21111118.35649
   1062182.62248    827669.33846         0.00041  21718520.79846  21718518.40348
  -6678539.07549  -5204053.55346         0.00041  21413156.89746  21413157.05949
 -19558071.11549 -15240038.97446         0.00041  21164413.88246  21164412.32449
  -1890082.20048  -1472789.74644         0.00041  23555396.06944  23555391.02348
 02 07 10 18 51 30.0000000  0  8 03 09 14 15 17 18 21 31
 -12731768.25849  -9920851.62946         0.00041  21741037.45446  21741035.24749
   -406347.81548   -316633.74244         0.00041  23278647.55344  23278642.12948
 -20850595.07849 -16247189.55246         0.00041  21299771.32146  21299770.58749
  -5183022.91049  -4038719.68146         0.00041  21120730.51346  21120728.50649
   1123597.56548    875525.09646         0.00041  21730207.64746  21730205.47948
  -6630023.87949  -5166249.51846         0.00041  21422388.99046  21422389.22249
 -19562774.00949 -15243703.56146         0.00041  21163519.03046  21163517.47649
  -1953944.78948  -1522552.75344         0.00041  23543240.81044  23543238.42948
 02 07 10 18 52 00.0000000  0  8 03 09 14 15 17 18 21 31
 -12729631.50348  -9919186.63346         0.00041  21741443.89346  21741441.79648
   -423895.19848   -330306.98044         0.00041  23275307.40744  23275303.27948
 -20924380.22449 -16304684.41646         0.00041  21285730.56646  21285729.48649
  -5132148.05249  -3999076.95746         0.00041  21130411.69546  21130409.76249
   1185367.40348    923657.38546         0.00041  21741962.28746  21741959.11348
  -6581360.58149  -5128330.08746         0.00041  21431649.81346  21431649.41949
 -19567326.78249 -15247251.17446         0.00041  21162652.45546  21162650.81249
  -2017342.41948  -1571953.43744         0.00041  23531178.32144  23531174.73748
 02 07 10 18 52 30.0000000  0  8 03 09 14 15 17 18 21 31
 -12726932.17648  -9917083.27446         0.00041  21741957.96446  21741955.20948
   -440901.17448   -343558.33144         0.00041  23272072.97444  23272067.15648
 -20997733.54449 -16361842.79546         0.00041  21271771.82346  21271770.28249
  -5080902.93549  -3959145.72146         0.00041  21140163.38146  21140161.05449
   1247487.31748    972062.44546         0.00041  21753783.11146  21753780.26548
  -6532554.61149  -5090299.48946         0.00041  21440937.47446  21440937.00849
 -19571734.34249 -15250685.63146         0.00041  21161814.04546  21161812.41149
  -2080277.93948  -1620994.05744         0.00041  23519201.20944  23519199.27148
 02 07 10 18 53 00.0000000  0  8 03 09 14 15 17 18 21 31
 -12723673.68949  -9914544.21446         0.00041  21742577.79646  21742575.10449
   -457367.05448   -356388.84944         0.00041  23268936.93044  23268933.16648
 -21070656.17949 -16418665.59646         0.00041  21257895.09546  21257893.89949
  -5029290.47549  -3918928.25446         0.00041  21149985.40846  21149982.56749
   1309954.47048   1020738.06946         0.00041  21765670.69646  21765667.66348
  -6483609.74649  -5052160.65846         0.00041  21450250.43746  21450250.51749
 -19576000.77249 -15254010.12346         0.00041  21161001.97046  21161000.30049
  -2142752.10048  -1669675.15844         0.00041  23507314.60444  23507310.42648
 02 07 10 18 53 30.0000000  0  8 03 09 14 15 17 18 21 31
 -12719851.66149  -9911566.03246         0.00041  21743305.45646  21743302.36749
   -473286.34548   -368793.47344         0.00041  23265907.15644  23265903.96048
 -21143141.71449 -16475147.77946         0.00041  21244101.23146  21244100.53149
  -4977305.88349  -3878420.82346         0.00041  21159877.48646  21159875.30049
   1372773.25548   1069687.69946         0.00041  21777624.72346  21777621.53148
  -6434521.86549  -5013910.39446         0.00041  21459591.87346  21459592.23949
 -19580121.34749 -15257220.95846         0.00041  21160217.84746  21160216.35549
  -2204758.26348  -1717991.58644         0.00041  23495513.96244  23495510.63848
 02 07 10 18 54 00.0000000  0  8 03 09 14 15 17 18 21 31
 -12715485.27149  -9908163.68246         0.00041  21744136.01746  21744133.29749
   -488676.36248   -380785.61444         0.00041  23262979.28044  23262976.34948
 -21215207.30549 -16531302.73446         0.00041  21230387.66446  21230386.39249
  -4924968.33349  -3837638.35646         0.00041  21169837.24246  21169835.03349
   1435924.77648   1118896.59946         0.00041  21789642.42146  21789638.80748
  -6385310.85849  -4975564.19946         0.00041  21468956.16046  21468956.74549
 -19584115.65049 -15260333.40346         0.00041  21159457.79546  21159456.00449
  -2266313.35048  -1765956.52344         0.00041  23483800.21844  23483797.01748
 02 07 10 18 54 30.0000000  0  8 03 09 14 15 17 18 21 31
 -12710553.21349  -9904320.54546         0.00041  21745074.68146  21745071.83149
   -503514.03848   -392347.39644         0.00041  23260156.83244  23260153.20548
 -21286829.56149 -16587112.24546         0.00041  21216758.91346  21216757.31149
  -4872255.91649  -3796563.78446         0.00041  21179868.17746  21179865.49549
   1499430.41248   1168381.44646         0.00041  21801726.76246  21801723.81548
  -6335955.55349  -4937105.55446         0.00041  21478348.65746  21478348.73249
 -19587962.28549 -15263330.78546         0.00041  21158725.69446  21158724.13849
  -2327393.72048  -1813551.58445         0.00041  23472177.88345  23472174.78948
 02 07 10 18 55 00.0000000  0  8 03 09 14 15 17 18 21 31
 -12705063.83349  -9900043.12846         0.00041  21746119.40946  21746117.15149
   -517805.75748   -403483.76044         0.00041  23257435.17044  23257433.42748
 -21358014.66549 -16642581.10446         0.00041  21203212.63046  21203211.20149
  -4819176.64149  -3755203.34046         0.00041  21189968.35046  21189966.07149
   1563282.23048   1218136.03946         0.00041  21813877.41146  21813874.61448
  -6286464.78749  -4898541.34446         0.00041  21487766.55246  21487765.60049
 -19591669.53649 -15266219.55446         0.00041  21158020.27946  21158018.72849
  -2388005.33948  -1860781.35545         0.00041  23460643.59745  23460640.37948
 02 07 10 18 55 30.0000000  0  8 03 09 14 15 17 18 21 31
 -12699019.54949  -9895333.30946         0.00041  21747269.67046  21747267.37849
   -531551.58948   -414194.75944         0.00041  23254818.96844  23254816.79148
 -21428762.64449 -16697709.35446         0.00041  21189749.39946  21189748.31749
  -4765732.19549  -3713558.34646         0.00041  21200138.28846  21200136.53949
   1627478.39448   1268158.94346         0.00041  21826093.41246  21826090.43748
  -6236841.00249  -4859873.47046         0.00041  21497209.89246  21497209.32049
 -19595239.96049 -15269001.70546         0.00041  21157340.66946  21157339.19149
  -2448148.01648  -1907645.72545         0.00041  23449196.81145  23449195.07948
 02 07 10 18 56 00.0000000  0  8 03 09 14 15 17 18 21 31
 -12692427.36549  -9890196.55546         0.00041  21748524.09846  21748521.59649
   -544756.71848   -424484.42644         0.00041  23252308.32544  23252305.57748
 -21499078.13949 -16752500.60346         0.00041  21176368.33646  21176367.81949
  -4711929.09949  -3671633.89746         0.00041  21210376.72946  21210375.01149
   1692012.23148   1318444.98346         0.00041  21838374.59946  21838371.31748
  -6187091.30849  -4821107.50146         0.00041  21506677.04546  21506677.06749
 -19598680.51449 -15271682.66146         0.00041  21156686.33846  21156684.80649
  -2507826.22048  -1954148.16945         0.00041  23437841.78645  23437838.62248
 02 07 10 18 56 30.0000000  0  8 03 09 14 15 17 18 21 31
 -12685272.53549  -9884621.38446         0.00041  21749884.95946  21749883.28449
   -557404.19848   -434339.57444         0.00041  23249899.55244  23249899.02948
 -21568944.70549 -16806942.03446         0.00041  21163073.14546  21163072.62349
  -4657752.46349  -3629418.36546         0.00041  21220686.23346  21220684.41249
   1756898.64148   1369005.74646         0.00041  21850721.77046  21850718.62848
  -6137201.23849  -4782232.14646         0.00041  21516170.52446  21516170.23849
 -19601975.69149 -15274250.33246         0.00041  21156059.17746  21156057.63149
  -2567023.03148  -2000275.52445         0.00041  23426576.73245  23426573.59448
 02 07 10 18 57 00.0000000  0  8 03 09 14 15 17 18 21 31
 -12677553.57449  -9878606.63146         0.00041  21751354.18846  21751352.03949
   -569490.71448   -443757.61644         0.00041  23247601.35244  23247598.07048
 -21638358.39449 -16861030.57546         0.00041  21149864.62446  21149863.66249
  -4603200.39049  -3586910.28646         0.00041  21231068.12046  21231065.24549
   1822139.52248   1419842.71346         0.00041  21863136.80246  21863133.56348
  -6087169.67749  -4743246.53246         0.00041  21525691.37046  21525691.06249
 -19605124.12449 -15276703.66346         0.00041  21155460.40546  21155458.57249
  -2625734.43548  -2046024.61045         0.00041  23415403.55645  23415401.92048
 02 07 10 18 57 30.0000000  0  8 03 09 14 15 17 18 21 31
 -12669276.08949  -9872156.68046         0.00041  21752929.23146  21752926.73449
   -581019.56248   -452741.09344         0.00041  23245405.71744  23245403.88348
 -21707322.39549 -16914768.70746         0.00041  21136740.98146  21136740.03349
  -4548277.51749  -3544113.29546         0.00041  21241519.15746  21241516.77349
   1887729.93548   1470952.03546         0.00041  21875618.22846  21875615.27848
  -6037002.07549  -4704154.92246         0.00041  21535238.10046  21535237.87049
 -19608131.03449 -15279046.70746         0.00041  21154887.79146  21154886.47849
  -2683963.39048  -2091397.75945         0.00041  23404324.42945  23404321.56948
 02 07 10 18 58 00.0000000  0  8 03 09 14 15 17 18 21 31
 -12660444.63948  -9865275.06546         0.00041  21754610.27646  21754607.22848
   -591993.48948   -461292.20744         0.00041  23243320.08844  23243315.91148
 -21775839.02349 -16968158.22446         0.00041  21123702.81246  21123701.88249
  -4492987.76349  -3501030.41146         0.00041  21252040.41046  21252037.96249
   1953665.51848   1522330.32946         0.00041  21888165.41746  21888162.29948
  -5986702.81949  -4664960.73746         0.00041  21544809.99746  21544809.63349
 -19611000.91049 -15281282.97346         0.00041  21154341.50546  21154339.97549
  -2741711.89448  -2136396.54945         0.00041  23393335.13645  23393331.98648
 02 07 10 18 58 30.0000000  0  8 03 09 14 15 17 18 21 31
 -12651053.70549  -9857957.48046         0.00041  21756397.69646  21756394.59649
   -602405.11648   -469405.10244         0.00041  23241339.39244  23241334.64048
 -21843900.60149 -17021193.16546         0.00041  21110751.22346  21110750.20949
  -4437325.17349  -3457656.99746         0.00041  21262632.57846  21262630.48749
   2019952.27148   1573982.26146         0.00041  21900780.15546  21900777.01048
  -5936266.93149  -4625660.08846         0.00041  21554407.52746  21554407.18349
 -19613728.21249 -15283408.14446         0.00041  21153822.54346  21153821.01449
  -2798972.21448  -2181014.95945         0.00041  23382437.26345  23382434.18048
 02 07 10 18 59 00.0000000  0  8 03 09 14 15 17 18 21 31
 -12641114.93949  -9850213.00246         0.00041  21758288.42946  21758286.17949
   -612264.06048   -477087.38244         0.00041  23239461.33244  23239458.18948
 -21911516.77749 -17073881.05246         0.00041  21097883.61546  21097883.47449
  -4381301.28749  -3414002.05346         0.00041  21273293.82146  21273291.65449
   2086578.99648   1625899.11946         0.00041  21913458.20346  21913455.12048
  -5885706.02449  -4586261.99646         0.00041  21564028.42446  21564028.07149
 -19616324.16549 -15285430.95946         0.00041  21153328.32946  21153327.27349
  -2855753.55048  -2225260.12944         0.00041  23371632.54544  23371629.26348
 02 07 10 18 59 30.0000000  0  8 03 09 14 15 17 18 21 31
 -12630631.41349  -9842044.03846         0.00041  21760282.94446  21760281.02149
   -621571.06548   -484339.48944         0.00041  23237693.44644  23237687.10948
 -21978688.15749 -17126222.33546         0.00041  21085101.71246  21085101.41149
  -4324918.20649  -3370067.22346         0.00041  21284023.48746  21284020.81349
   2153542.91548   1678078.72446         0.00041  21926201.09046  21926197.91648
  -5835022.86949  -4546768.64246         0.00041  21573673.50546  21573672.91749
 -19618791.52349 -15287353.56946         0.00041  21152859.10446  21152857.97149
  -2912056.33748  -2269132.39944         0.00041  23360917.80344  23360914.69948
